[[{"header":{"parameterUnit":"m.s-1","parameterCategory":1,"la1":30.6,"la2":29.2853,"lo1":-89.7004,"lo2":-87.6739,"dy":0.0162,"dx":0.0183,"nx":112,"ny":82,"refTime":"2023-02-27T06:00:00:Z","depth":0,"parameterNumber":2,"parameterNumberName":"U-component_of_WINDS"},"data":[0.0,0.0,0.0,0.0,0.0,0.0,0.0,0.0,0.0,0.0,0.0,0.0,0.0,0.0,0.0,0.0,0.0,0.0,0.0,0.0,0.0,0.0,0.0,0.0,0.0,0.0,0.0,0.0,0.0,0.0,0.0,0.0,0.0,0.0,0.0,0.0,0.0,0.0,0.0,0.0,0.0,0.0,0.0,0.0,0.0,0.0,0.0,0.0,0.0,0.0,0.0,0.0,0.0,0.0,0.0,0.0,0.0,0.0,0.0,0.0,0.0,0.0,0.0,0.0,0.0,0.0,0.0,0.0,0.0,0.0,0.0,0.0,0.0,0.0,0.0,0.0,0.0,0.0,0.0,0.0,0.0,0.0,0.0,0.0,0.0,0.0,0.0,0.0,0.0,0.0,-6.9451,-6.9451,-6.9451,-6.9451,-6.9451,-6.9451,-6.9451,-6.9451,0.0,0.0,0.0,0.0,0.0,0.0,0.0,0.0,0.0,0.0,0.0,0.0,0.0,0.0,0.0,0.0,0.0,0.0,0.0,0.0,0.0,0.0,0.0,0.0,0.0,0.0,0.0,0.0,0.0,0.0,0.0,0.0,0.0,0.0,0.0,0.0,0.0,0.0,0.0,0.0,0.0,0.0,0.0,0.0,0.0,0.0,0.0,0.0,0.0,0.0,0.0,0.0,0.0,0.0,0.0,0.0,0.0,0.0,0.0,0.0,0.0,0.0,0.0,0.0,0.0,0.0,0.0,0.0,0.0,0.0,0.0,0.0,0.0,0.0,0.0,0.0,0.0,0.0,0.0,0.0,0.0,0.0,0.0,0.0,0.0,0.0,0.0,0.0,0.0,0.0,0.0,0.0,0.0,0.0,0.0,0.0,0.0,0.0,0.0,0.0,0.0,0.0,0.0,0.0,-6.9451,-6.9451,-6.9451,-6.9451,-6.9451,-6.9451,-6.9451,-6.9451,0.0,0.0,0.0,0.0,0.0,0.0,0.0,0.0,0.0,0.0,0.0,0.0,0.0,0.0,0.0,0.0,0.0,0.0,0.0,0.0,0.0,0.0,0.0,0.0,0.0,0.0,0.0,0.0,0.0,0.0,0.0,0.0,0.0,0.0,0.0,0.0,0.0,0.0,0.0,0.0,0.0,0.0,0.0,0.0,0.0,0.0,0.0,0.0,0.0,0.0,0.0,0.0,0.0,0.0,0.0,0.0,0.0,0.0,0.0,0.0,0.0,0.0,0.0,0.0,0.0,0.0,0.0,0.0,0.0,0.0,0.0,0.0,0.0,0.0,0.0,0.0,0.0,0.0,0.0,0.0,0.0,0.0,0.0,0.0,0.0,0.0,0.0,0.0,0.0,0.0,0.0,0.0,0.0,0.0,0.0,0.0,0.0,0.0,0.0,0.0,0.0,0.0,0.0,-6.9451,-6.9451,-6.9451,-6.9451,-6.9451,-6.9451,-6.9451,-6.9451,-6.9451,-6.9451,0.0,0.0,0.0,0.0,0.0,0.0,0.0,0.0,0.0,0.0,0.0,0.0,0.0,0.0,0.0,0.0,0.0,0.0,0.0,0.0,0.0,0.0,0.0,0.0,0.0,0.0,0.0,0.0,0.0,0.0,0.0,0.0,0.0,0.0,0.0,0.0,0.0,0.0,0.0,0.0,0.0,0.0,0.0,0.0,0.0,0.0,0.0,0.0,0.0,0.0,0.0,0.0,0.0,0.0,0.0,0.0,0.0,0.0,0.0,0.0,0.0,0.0,0.0,0.0,0.0,0.0,0.0,0.0,0.0,0.0,0.0,0.0,0.0,0.0,0.0,0.0,0.0,0.0,0.0,0.0,0.0,0.0,0.0,0.0,0.0,0.0,0.0,0.0,0.0,0.0,0.0,0.0,0.0,0.0,0.0,0.0,0.0,0.0,0.0,0.0,0.0,0.0,-6.9451,-6.9451,-6.9451,-6.9451,-6.9451,-6.9451,-6.9451,-6.9451,-6.9451,-6.9451,0.0,0.0,0.0,0.0,0.0,0.0,0.0,0.0,0.0,0.0,0.0,0.0,0.0,0.0,0.0,0.0,0.0,0.0,0.0,0.0,0.0,0.0,0.0,0.0,0.0,0.0,0.0,0.0,0.0,0.0,0.0,0.0,0.0,0.0,0.0,0.0,0.0,0.0,0.0,0.0,0.0,0.0,0.0,0.0,0.0,0.0,0.0,0.0,0.0,0.0,0.0,0.0,0.0,0.0,0.0,0.0,0.0,0.0,0.0,0.0,0.0,0.0,0.0,0.0,0.0,0.0,0.0,0.0,0.0,0.0,0.0,0.0,0.0,0.0,0.0,0.0,0.0,0.0,0.0,0.0,0.0,0.0,0.0,0.0,0.0,0.0,0.0,0.0,0.0,0.0,0.0,0.0,0.0,0.0,0.0,0.0,0.0,0.0,0.0,0.0,0.0,0.0,-6.9451,-6.9451,-6.9451,-6.9451,-6.9451,-6.9451,-6.9451,-6.9451,-6.9451,-6.9451,0.0,0.0,0.0,0.0,0.0,0.0,0.0,0.0,0.0,0.0,0.0,0.0,0.0,0.0,0.0,0.0,0.0,0.0,0.0,0.0,0.0,0.0,0.0,0.0,0.0,0.0,0.0,0.0,0.0,0.0,0.0,0.0,0.0,0.0,0.0,0.0,0.0,0.0,0.0,0.0,0.0,0.0,0.0,0.0,0.0,0.0,0.0,0.0,0.0,0.0,0.0,0.0,0.0,0.0,0.0,0.0,0.0,0.0,0.0,0.0,0.0,0.0,0.0,0.0,0.0,0.0,0.0,0.0,0.0,0.0,0.0,0.0,0.0,0.0,0.0,0.0,0.0,0.0,0.0,0.0,0.0,0.0,0.0,0.0,0.0,0.0,0.0,0.0,0.0,0.0,0.0,0.0,0.0,0.0,0.0,0.0,0.0,0.0,0.0,0.0,0.0,0.0,-6.9451,-6.9451,-6.9451,-6.9451,-6.9451,-6.9451,-6.9451,-6.9451,-6.9451,0.0,0.0,0.0,0.0,0.0,0.0,0.0,0.0,0.0,0.0,0.0,0.0,0.0,0.0,0.0,0.0,0.0,0.0,0.0,0.0,0.0,0.0,0.0,0.0,0.0,0.0,0.0,0.0,0.0,0.0,0.0,0.0,0.0,0.0,0.0,0.0,0.0,0.0,0.0,0.0,0.0,0.0,0.0,0.0,0.0,0.0,0.0,0.0,0.0,0.0,0.0,0.0,0.0,0.0,0.0,0.0,0.0,0.0,0.0,0.0,0.0,0.0,0.0,0.0,0.0,0.0,0.0,0.0,0.0,0.0,0.0,0.0,0.0,0.0,0.0,0.0,0.0,0.0,0.0,0.0,0.0,0.0,0.0,0.0,0.0,0.0,0.0,0.0,0.0,0.0,0.0,0.0,0.0,0.0,0.0,0.0,0.0,0.0,0.0,0.0,0.0,0.0,-6.9953,-6.9953,-6.9953,-6.9953,-6.9953,-6.9953,-6.9953,-6.9953,-6.9953,-6.9953,0.0,0.0,0.0,0.0,0.0,0.0,0.0,0.0,0.0,0.0,0.0,0.0,0.0,0.0,0.0,0.0,0.0,0.0,0.0,0.0,0.0,0.0,0.0,0.0,0.0,0.0,0.0,0.0,0.0,0.0,0.0,0.0,0.0,0.0,0.0,0.0,0.0,0.0,0.0,0.0,0.0,0.0,0.0,0.0,0.0,0.0,0.0,0.0,0.0,0.0,0.0,0.0,0.0,0.0,0.0,0.0,0.0,0.0,0.0,0.0,0.0,0.0,0.0,0.0,0.0,0.0,0.0,0.0,0.0,0.0,0.0,0.0,0.0,0.0,0.0,0.0,0.0,0.0,0.0,0.0,0.0,0.0,0.0,0.0,0.0,0.0,0.0,0.0,0.0,0.0,0.0,0.0,0.0,0.0,0.0,0.0,0.0,0.0,0.0,0.0,0.0,0.0,-7.1083,-7.1083,-7.1083,-7.1083,-7.1083,-7.1083,-7.1083,-7.1083,-7.1083,0.0,0.0,0.0,0.0,0.0,0.0,0.0,0.0,0.0,0.0,0.0,0.0,0.0,0.0,0.0,0.0,0.0,0.0,0.0,0.0,0.0,0.0,0.0,0.0,0.0,0.0,0.0,0.0,0.0,0.0,0.0,0.0,0.0,0.0,0.0,0.0,0.0,0.0,0.0,0.0,0.0,0.0,0.0,0.0,0.0,0.0,0.0,0.0,0.0,0.0,0.0,0.0,0.0,0.0,0.0,0.0,0.0,0.0,0.0,0.0,0.0,0.0,0.0,0.0,0.0,0.0,0.0,0.0,0.0,0.0,0.0,0.0,0.0,0.0,0.0,0.0,0.0,0.0,0.0,0.0,0.0,0.0,0.0,0.0,0.0,0.0,0.0,0.0,0.0,0.0,0.0,0.0,0.0,0.0,0.0,0.0,0.0,0.0,0.0,0.0,0.0,0.0,0.0,-7.1083,-7.1083,-7.1083,-7.1083,-7.1083,-7.1083,-7.1083,-7.1083,-7.1083,-7.1083,0.0,0.0,0.0,0.0,0.0,0.0,0.0,0.0,0.0,0.0,0.0,0.0,0.0,0.0,0.0,0.0,0.0,0.0,0.0,0.0,0.0,0.0,0.0,0.0,0.0,0.0,0.0,0.0,0.0,0.0,0.0,0.0,0.0,0.0,0.0,0.0,0.0,0.0,0.0,0.0,0.0,0.0,0.0,0.0,0.0,0.0,0.0,0.0,0.0,0.0,0.0,0.0,0.0,0.0,0.0,0.0,0.0,0.0,0.0,0.0,0.0,0.0,0.0,0.0,0.0,0.0,0.0,0.0,0.0,0.0,0.0,0.0,0.0,0.0,0.0,0.0,0.0,0.0,0.0,0.0,0.0,0.0,0.0,0.0,0.0,0.0,0.0,0.0,0.0,0.0,0.0,0.0,0.0,0.0,0.0,0.0,0.0,0.0,0.0,0.0,0.0,0.0,-7.0135,-6.9161,-6.8564,-6.8564,-6.8564,-6.8971,-7.0135,-7.0135,-7.0537,-7.1736,0.0,0.0,0.0,0.0,0.0,0.0,0.0,0.0,0.0,0.0,0.0,0.0,0.0,0.0,0.0,0.0,0.0,0.0,0.0,0.0,0.0,0.0,0.0,0.0,0.0,0.0,0.0,0.0,0.0,0.0,0.0,0.0,0.0,0.0,0.0,0.0,0.0,0.0,0.0,0.0,0.0,0.0,0.0,0.0,0.0,0.0,0.0,0.0,0.0,0.0,0.0,0.0,0.0,0.0,0.0,0.0,0.0,0.0,0.0,0.0,0.0,0.0,0.0,0.0,0.0,0.0,0.0,0.0,0.0,0.0,0.0,0.0,0.0,0.0,0.0,0.0,0.0,0.0,0.0,0.0,0.0,0.0,0.0,0.0,0.0,0.0,0.0,0.0,0.0,0.0,0.0,0.0,0.0,0.0,0.0,0.0,0.0,0.0,0.0,0.0,0.0,0.0,-6.8676,-6.6286,-6.4706,-6.4706,-6.4706,-6.5688,-6.8088,-6.8285,-6.9502,-7.2122,0.0,0.0,0.0,0.0,0.0,0.0,0.0,0.0,0.0,0.0,0.0,0.0,0.0,0.0,0.0,0.0,0.0,0.0,0.0,0.0,0.0,0.0,0.0,0.0,0.0,0.0,0.0,0.0,0.0,0.0,0.0,0.0,0.0,0.0,0.0,0.0,0.0,0.0,0.0,0.0,0.0,0.0,0.0,0.0,0.0,0.0,0.0,0.0,0.0,0.0,0.0,0.0,0.0,0.0,0.0,0.0,0.0,0.0,0.0,0.0,-4.3446,-4.5823,0.0,0.0,0.0,0.0,0.0,0.0,0.0,0.0,0.0,0.0,0.0,0.0,0.0,0.0,0.0,0.0,0.0,0.0,0.0,0.0,0.0,0.0,0.0,0.0,0.0,0.0,0.0,0.0,0.0,0.0,0.0,0.0,0.0,0.0,0.0,0.0,0.0,0.0,0.0,0.0,-6.8676,-6.6286,-6.4706,-6.4706,-6.4706,-6.4908,-6.5488,-6.5488,-6.6707,-6.9284,-6.9502,0.0,0.0,0.0,0.0,0.0,0.0,0.0,0.0,0.0,0.0,0.0,0.0,0.0,0.0,0.0,0.0,0.0,0.0,0.0,0.0,0.0,0.0,0.0,0.0,0.0,0.0,0.0,0.0,0.0,0.0,0.0,0.0,0.0,0.0,0.0,0.0,0.0,0.0,0.0,0.0,0.0,0.0,0.0,0.0,0.0,0.0,0.0,0.0,0.0,0.0,0.0,0.0,0.0,0.0,0.0,0.0,0.0,0.0,0.0,-4.014,-4.2065,0.0,0.0,0.0,0.0,0.0,0.0,0.0,0.0,0.0,0.0,0.0,0.0,0.0,0.0,0.0,0.0,0.0,0.0,0.0,0.0,0.0,0.0,0.0,0.0,0.0,0.0,0.0,0.0,0.0,0.0,0.0,0.0,0.0,0.0,0.0,0.0,0.0,0.0,0.0,0.0,-6.4863,-6.2449,-6.0864,-6.0864,-6.0864,-6.1257,-6.2675,-6.2675,-6.4482,-6.848,-6.8676,0.0,0.0,0.0,0.0,0.0,0.0,0.0,0.0,0.0,0.0,0.0,0.0,0.0,0.0,0.0,0.0,0.0,0.0,0.0,0.0,0.0,0.0,0.0,0.0,0.0,0.0,0.0,0.0,0.0,0.0,0.0,0.0,0.0,0.0,0.0,0.0,0.0,0.0,0.0,0.0,0.0,0.0,0.0,0.0,0.0,0.0,0.0,0.0,0.0,0.0,0.0,0.0,0.0,-3.6834,-3.6941,-3.6941,-3.6941,-3.6941,-3.6941,-3.6981,-3.8266,-4.0576,-4.1055,0.0,0.0,0.0,0.0,0.0,0.0,0.0,0.0,0.0,0.0,0.0,0.0,0.0,0.0,0.0,0.0,0.0,0.0,0.0,0.0,0.0,0.0,-5.6582,-5.6582,-5.6582,-5.6582,-5.6582,0.0,0.0,0.0,0.0,0.0,0.0,0.0,0.0,0.0,0.0,0.0,-6.0635,-5.8203,-5.6582,-5.6582,-5.6582,-5.7608,-5.9614,-5.9823,-6.2038,-6.708,-6.7695,-6.9284,0.0,0.0,0.0,0.0,0.0,0.0,0.0,0.0,0.0,0.0,0.0,0.0,0.0,0.0,0.0,0.0,0.0,0.0,0.0,0.0,0.0,0.0,0.0,0.0,0.0,0.0,0.0,0.0,0.0,0.0,0.0,0.0,-1.7026,-1.7148,0.0,0.0,0.0,0.0,0.0,0.0,0.0,0.0,0.0,0.0,0.0,0.0,0.0,-3.5872,-3.638,-3.6473,-3.6647,-3.6874,-3.6901,-3.6941,-3.6941,-3.6941,-3.6941,-3.6941,-3.7195,0.0,-3.7591,-4.0431,0.0,0.0,0.0,0.0,0.0,0.0,0.0,0.0,0.0,0.0,0.0,0.0,0.0,0.0,0.0,0.0,0.0,0.0,0.0,0.0,0.0,0.0,-5.6582,-5.6582,-5.6582,-5.6582,-5.6582,-5.6582,-5.6796,-5.6989,-5.8816,-5.9634,0.0,0.0,0.0,0.0,0.0,0.0,-6.0635,-5.8203,-5.6582,-5.6582,-5.6582,-5.6796,-5.7202,-5.7202,-5.8414,-6.1442,-6.3875,-6.6485,-6.909,-7.1118,0.0,0.0,0.0,0.0,0.0,0.0,0.0,0.0,0.0,0.0,0.0,0.0,0.0,0.0,0.0,0.0,0.0,0.0,0.0,0.0,0.0,0.0,0.0,0.0,0.0,0.0,0.0,0.0,0.0,-1.7046,-1.7121,-1.7182,-1.7344,-1.9208,0.0,0.0,0.0,0.0,0.0,0.0,0.0,0.0,0.0,-3.5872,-3.6032,-3.6246,-3.65,-3.6647,-3.6834,-3.6941,-3.6941,-3.6941,-3.6941,-3.7128,-3.7195,-3.7195,-3.7489,-3.7555,-3.7422,-3.8875,-4.0567,-4.2512,0.0,0.0,0.0,0.0,-4.8536,-4.7445,-4.761,-4.855,-4.9861,-5.1453,0.0,0.0,0.0,0.0,0.0,0.0,0.0,-5.6582,-5.6582,-5.6582,-5.6582,-5.6582,-5.6582,-5.6582,-5.6582,-5.6582,-5.6582,-5.6582,-5.7608,-5.8012,-5.6796,-5.8625,0.0,0.0,0.0,-5.8414,-5.8414,-5.7395,-5.6582,-5.6582,-5.6582,-5.6582,-5.6582,-5.6582,-5.78,-6.0427,-6.1648,-6.428,-6.848,-6.989,-7.1118,0.0,0.0,0.0,0.0,0.0,0.0,0.0,0.0,0.0,0.0,0.0,0.0,0.0,0.0,0.0,0.0,0.0,0.0,0.0,0.0,0.0,0.0,0.0,0.0,0.0,0.0,0.0,0.0,-1.7127,-1.7222,-1.7297,-1.815,-1.9806,0.0,0.0,0.0,0.0,0.0,0.0,-3.5618,-3.5698,-3.5885,-3.6179,-3.6393,-3.654,-3.662,-3.6834,-3.6941,-3.6941,-3.7008,-3.7048,-3.7048,-3.7342,-3.7489,-3.7529,-3.7809,-3.7929,-3.7929,-3.7929,-3.9401,-4.161,-4.2587,-4.3881,-4.5403,-4.6094,-4.5885,-4.5435,-4.5435,-4.5853,-4.6766,-4.8977,-5.0319,-5.1453,-5.4571,0.0,0.0,0.0,0.0,-5.6582,-5.6582,-5.6582,-5.6582,-5.6582,-5.6582,-5.6582,-5.6582,-5.6582,-5.6582,-5.6582,-5.6582,-5.6582,-5.6582,-5.6582,0.0,-5.6582,-5.6582,-5.6582,-5.6582,-5.6582,-5.6582,-5.6582,-5.6582,-5.6582,-5.6582,-5.6582,-5.7395,-5.9425,-6.024,-6.2449,-6.6462,-6.7869,-6.9696,-7.1716,0.0,0.0,0.0,0.0,0.0,0.0,0.0,0.0,0.0,0.0,0.0,0.0,0.0,0.0,0.0,0.0,0.0,0.0,0.0,0.0,0.0,0.0,0.0,0.0,0.0,0.0,0.0,0.0,0.0,-1.7589,-1.9993,0.0,0.0,0.0,0.0,-3.4755,-3.5444,-3.5618,-3.5631,-3.5899,-3.6179,-3.6473,-3.65,-3.6647,-3.6901,-3.6941,-3.6941,-3.6941,-3.7235,-3.7342,-3.7382,-3.7676,-3.7782,-3.7809,-3.8116,-3.8223,-3.8223,-3.8223,-3.8466,-3.8951,-4.1915,-4.1618,-3.9386,-4.2304,-4.1618,-3.9181,-3.9181,-4.0958,-4.3429,-4.3641,-4.5435,-4.8311,-5.1435,-5.2327,0.0,0.0,-5.6582,-5.6582,-5.6582,-5.6582,-5.6582,-5.6582,-5.6582,-5.6582,-5.6582,-5.6582,-5.6582,-5.6582,-5.6582,-5.6582,-5.6582,0.0,-5.6582,-5.6582,-5.6582,-5.6582,-5.6582,-5.6582,-5.6582,-5.6582,-5.6582,-5.6582,-5.6582,-5.6582,-5.6582,-5.6796,-5.9215,-6.0635,-6.1029,-6.5865,-6.8676,-6.8895,-7.1309,0.0,0.0,0.0,0.0,0.0,0.0,0.0,0.0,0.0,0.0,0.0,0.0,0.0,0.0,0.0,0.0,0.0,0.0,0.0,0.0,0.0,0.0,0.0,0.0,0.0,0.0,0.0,0.0,-2.0209,-2.139,0.0,-2.8886,-3.0193,-3.2209,-3.5245,-3.5578,-3.5792,-3.6179,-3.6299,-3.6473,-3.6754,-3.6794,-3.6834,-3.6941,-3.6941,-3.7048,-3.7235,-3.7342,-3.7489,-3.7676,-3.7969,-3.8103,-3.8116,-3.8437,-3.8544,-3.8544,-3.8544,-3.8544,-3.8557,-3.9793,-3.9631,-3.8936,-3.9834,-3.9631,-3.8718,-3.8718,-3.9399,-4.0512,-4.2532,-4.5194,-4.8072,-5.1198,-5.0759,-5.0337,-5.5237,-5.5237,-5.412,-5.6134,-5.6582,-5.6582,-5.6582,-5.6582,-5.6582,-5.6582,-5.6582,-5.6582,-5.6582,-5.6582,-5.6582,-5.6582,-5.6582,-5.6582,-5.6582,-5.6582,-5.6582,-5.6582,-5.6582,-5.6582,-5.6582,-5.6582,-5.6582,-5.6582,-5.6582,-5.6582,-5.6582,-5.7608,-5.8816,-6.0427,-6.4078,-6.6882,-6.8676,-7.1309,-7.274,0.0,0.0,0.0,0.0,0.0,0.0,0.0,0.0,0.0,0.0,0.0,0.0,0.0,0.0,0.0,0.0,0.0,0.0,0.0,0.0,0.0,0.0,0.0,0.0,0.0,0.0,-1.8311,-2.0295,-2.2352,-2.5231,-2.9112,-3.1356,-3.3437,-3.5391,-3.5805,-3.6099,-3.6473,-3.6607,-3.6727,-3.6941,-3.6941,-3.6941,-3.6941,-3.7048,-3.7195,-3.7382,-3.7595,-3.7782,-3.7969,-3.829,-3.8397,-3.8437,-3.8624,-3.8718,-3.8718,-3.8718,-3.8718,-3.8718,-3.8718,-3.8718,-3.8718,-3.8718,-3.8718,-3.8718,-3.8718,-3.8718,-3.8936,-4.0958,-4.2974,-4.5209,-4.8089,-4.8533,-4.855,-5.2563,-5.3669,-5.3885,-5.4787,-5.5901,-5.6582,-5.6582,-5.6582,-5.6582,-5.6582,-5.6582,-5.6582,-5.6582,-5.6582,-5.6582,-5.6582,-5.6582,-5.6582,-5.6582,-5.6582,-5.6582,-5.6582,-5.6582,-5.6582,-5.6582,-5.6582,-5.6582,-5.6582,-5.6582,-5.6582,-5.6582,-5.6582,-5.7395,-5.9215,-6.2675,-6.5488,-6.7278,-7.0902,-7.274,-7.274,0.0,0.0,0.0,0.0,0.0,0.0,0.0,0.0,0.0,0.0,0.0,0.0,0.0,0.0,0.0,0.0,0.0,0.0,0.0,0.0,0.0,0.0,0.0,-1.765,-1.765,-1.7704,-1.8067,-2.3066,-2.6529,-2.6539,-3.2178,-3.5631,-3.5658,-3.6179,-3.65,-3.6513,-3.6794,-3.6941,-3.6941,-3.6941,-3.6941,-3.6941,-3.7235,-3.7382,-3.7422,-3.7996,-3.8263,-3.829,-3.8584,-3.8718,-3.8718,-3.8718,-3.8718,-3.8718,-3.8718,-3.8718,-3.8718,-3.8718,-3.8718,-3.8718,-3.8718,-3.8718,-3.8718,-3.8718,-3.8718,-3.8718,-3.8718,-3.8718,-3.9154,-4.2304,-4.5225,-4.7437,-4.7643,-5.1872,-5.5686,-5.2781,-5.4337,-5.6582,-5.6582,-5.6582,-5.6582,-5.6582,-5.6582,-5.6582,-5.6582,-5.6582,-5.6582,-5.6582,-5.6582,-5.6582,-5.6582,-5.6582,0.0,-5.6582,-5.6582,-5.6582,-5.6582,-5.6582,-5.6582,-5.6582,-5.6582,-5.6582,-5.6582,-5.6582,-5.6582,-5.6796,-6.1854,-6.4706,-6.4908,-7.0107,-7.274,-7.274,0.0,0.0,0.0,0.0,0.0,0.0,0.0,0.0,0.0,0.0,0.0,0.0,0.0,0.0,0.0,0.0,0.0,0.0,0.0,0.0,0.0,0.0,-1.765,-1.765,-1.7738,-1.87,-2.0678,-2.4372,-2.7455,-2.981,-3.3387,-3.5805,-3.6233,-3.6393,-3.6607,-3.6794,-3.6901,-3.6941,-3.6941,-3.6941,-3.7048,-3.7275,-3.7342,-3.7595,-3.801,-3.8183,-3.837,-3.8611,-3.8691,-3.8718,-3.8718,-3.8718,-3.8718,-3.8718,-3.8718,-3.8718,-3.8718,-3.8718,-3.8718,-3.8718,-3.8718,-3.8718,-3.8718,-3.8718,-3.8718,-3.8718,-3.8718,-3.8718,-3.9154,-4.2304,-4.2289,-4.2076,-4.6318,-4.8738,-5.0319,-5.1672,-5.4337,-5.6582,-5.6582,-5.6582,-5.6582,-5.6582,-5.6582,-5.6582,-5.6582,-5.6582,-5.6582,-5.6582,-5.6582,-5.6582,-5.6582,-5.6582,-5.6582,-5.6582,-5.6582,-5.6582,-5.6582,-5.6582,-5.6582,-5.6582,-5.6582,-5.6582,-5.6582,-5.6582,-5.7395,-5.9425,-6.288,-6.6508,-7.0517,-7.1931,-7.274,0.0,0.0,0.0,0.0,0.0,0.0,0.0,0.0,0.0,0.0,0.0,0.0,0.0,0.0,0.0,0.0,0.0,0.0,0.0,0.0,0.0,0.0,-1.7738,-1.7738,-1.7738,-1.7812,-1.8508,-2.0255,-2.4228,-2.7373,-2.926,-3.3422,-3.6139,-3.6473,-3.662,-3.6754,-3.6941,-3.6941,-3.6941,-3.6941,-3.7048,-3.7195,-3.7382,-3.7635,-3.7929,-3.8263,-3.8397,-3.8544,-3.8718,-3.8718,-3.8718,-3.8718,-3.8718,-3.8718,-3.8718,-3.8718,-3.8718,-3.8718,0.0,0.0,0.0,0.0,-3.8718,-3.8718,-3.8718,-3.8718,-3.8718,-3.8718,-3.8718,-3.8936,-4.0728,-4.0958,-4.0958,-4.3216,-4.5644,-4.8089,-4.9658,-5.2545,-5.5022,-5.6348,-5.6582,-5.6582,-5.6582,-5.6582,-5.6582,-5.6582,-5.6582,0.0,-5.6582,-5.6582,-5.6582,-5.6582,-5.6582,-5.6582,-5.6582,-5.6582,-5.6582,-5.6582,-5.6582,-5.6582,-5.6582,-5.6582,0.0,0.0,0.0,-5.8414,-6.206,-6.3875,0.0,0.0,0.0,-7.274,-7.274,-7.274,0.0,0.0,-7.259,-7.2565,0.0,0.0,0.0,0.0,0.0,0.0,0.0,0.0,0.0,0.0,0.0,0.0,0.0,0.0,0.0,0.0,-1.786,-1.786,-1.786,-1.786,-1.786,-1.788,-2.304,-2.6664,-2.6933,-3.2421,-3.6062,-3.654,-3.6794,-3.6941,-3.6941,-3.6941,0.0,0.0,0.0,-3.7422,-3.7489,-3.7996,-3.8263,-3.833,-3.8584,-3.8718,-3.8718,-3.8718,-3.8718,-3.8718,-3.8718,-3.8718,-3.8718,-3.8718,-3.8718,-3.8718,-3.8718,-3.8718,-3.8718,-3.8718,-3.8718,-3.8718,-3.8718,0.0,0.0,-3.8718,-3.8718,-3.8718,-3.8718,-4.0512,-4.209,-3.9372,-4.2746,-4.7197,-4.7404,-4.9896,-5.2781,-5.5901,-5.6582,-5.6582,-5.6582,-5.6582,-5.6582,-5.6582,-5.6582,-5.6582,-5.6582,-5.6582,-5.6582,-5.6582,-5.6582,-5.6582,-5.6582,-5.6582,-5.6582,-5.6582,-5.6582,0.0,-5.6582,-5.6582,-5.6582,-5.6582,-5.6776,-5.9236,-6.4078,-6.4885,-6.7301,-7.2122,-7.2526,-7.274,-7.274,-7.274,-7.274,-7.274,-7.274,-7.274,0.0,0.0,0.0,0.0,0.0,0.0,0.0,0.0,0.0,0.0,0.0,0.0,0.0,0.0,0.0,-1.786,-1.786,-1.786,-1.786,-1.786,-1.7914,-1.8036,-2.1136,-2.4348,-2.7125,-3.0809,-3.3899,-3.6626,-3.6901,-3.6941,-3.6941,-3.6941,-3.7048,-3.7275,-3.7342,-3.7595,-3.8076,-3.8183,-3.8397,-3.8651,-3.8691,0.0,-3.8718,-3.8718,-3.8718,-3.8718,-3.8718,-3.8718,-3.8718,-3.8718,-3.8718,-3.8718,-3.8718,-3.8718,-3.8718,-3.8718,-3.8718,-3.8718,-3.8718,-3.8718,-3.8718,-3.8718,-3.8718,-3.8718,-3.8718,-3.9168,0.0,-3.8936,-4.1188,-4.4517,-4.6974,-4.9896,-5.2781,-5.5901,-5.6582,-5.6582,-5.6582,-5.6582,-5.6582,-5.6582,-5.6582,-5.6582,-5.6582,-5.6582,-5.6582,-5.6582,-5.6582,-5.6582,-5.6582,-5.6582,-5.6582,-5.6582,-5.6582,-5.6582,-5.6582,-5.6582,-5.6582,-5.6582,-5.8605,-6.024,-6.1442,-6.5665,-6.848,-6.9478,-7.1525,-7.274,-7.274,-7.274,-7.274,-7.274,-7.274,-7.274,0.0,0.0,0.0,0.0,0.0,0.0,0.0,0.0,0.0,0.0,0.0,-1.7806,0.0,0.0,-1.786,-1.786,-1.786,-1.786,-1.786,-1.7935,-1.8002,-1.8077,-2.0793,-2.4057,-2.7275,-3.031,-3.3592,-3.6693,-3.6941,-3.6941,-3.6941,-3.7088,-3.7235,-3.7382,-3.7676,-3.7969,-3.8263,-3.8397,-3.8584,-3.8718,-3.8718,-3.8718,-3.8718,-3.8718,-3.8718,-3.8718,-3.8718,-3.8718,-3.8718,-3.8718,-3.8718,-3.8718,-3.8718,-3.8718,-3.8718,-3.8718,-3.8718,-3.8718,-3.8718,-3.8718,-3.8718,-3.8718,-3.8718,-3.8718,-3.8718,-3.8718,-3.8718,-3.8718,-3.9848,-4.1861,-4.651,-4.8772,-5.0979,-5.5471,-5.6582,-5.6582,-5.6582,-5.6582,-5.6582,-5.6582,-5.6582,-5.6582,-5.6582,-5.6582,-5.6582,-5.6582,-5.6582,-5.6582,-5.6582,-5.6582,-5.6582,-5.6582,-5.6582,-5.6582,-5.6582,-5.6582,-5.6582,-5.6582,-5.78,-5.9823,-6.247,-6.5287,-6.7892,-7.071,-7.1931,-7.274,-7.274,-7.274,-7.274,-7.274,-7.274,-7.274,0.0,0.0,0.0,0.0,0.0,0.0,0.0,0.0,-1.7116,-1.7183,-1.7541,-1.7909,-1.7846,-1.786,-1.786,-1.786,-1.786,-1.788,-1.7901,-1.8023,-1.8111,-1.8165,-2.0507,-2.3562,-2.7356,-3.0016,-3.3056,-3.6719,-3.6941,-3.6967,-3.7008,-3.7235,-3.7422,-3.7569,-3.801,-3.829,-3.837,-3.8584,-3.8718,-3.8718,-3.8718,-3.8718,-3.8718,-3.8718,-3.8718,-3.8718,-3.8718,-3.8718,-3.8718,-3.8718,-3.8718,-3.8718,-3.8718,-3.8718,-3.8718,-3.8718,-3.8718,-3.8718,-3.8718,-3.8718,-3.8718,-3.8718,-3.8718,-3.8718,-3.8718,-3.8718,-3.8718,-3.8718,-3.8718,-3.9834,-4.5435,-4.7197,-4.8994,-5.4337,-5.6134,-5.6582,-5.6582,-5.6582,-5.6582,-5.6582,-5.6582,-5.6582,-5.6582,-5.6582,-5.6582,-5.6582,-5.6582,-5.6582,-5.6582,-5.6582,-5.6582,-5.6582,-5.6582,-5.6582,-5.6582,-5.6582,-5.6582,-5.6582,-5.6582,-5.8816,-6.3673,-6.4505,-6.6905,-7.1906,-7.2526,-7.274,-7.274,-7.274,-7.274,-7.274,-7.274,-7.274,-0.0,-0.0,-0.0,-0.0,-0.1059,-0.1481,0.0,0.0,-1.7083,-1.7621,-1.7772,-1.7909,-1.7846,-1.786,-1.786,-1.786,-1.786,-1.7914,-1.8036,-1.8077,-1.8199,-1.8443,-1.872,-2.1284,-2.735,-2.809,-3.0812,-3.6471,-3.6941,-3.7048,-3.7315,-3.7382,-3.7635,-3.8143,-3.8223,-3.8397,-3.8651,-3.8718,-3.8718,-3.8718,-3.8718,-3.8718,-3.8718,-3.8718,-3.8718,-3.8718,-3.8718,-3.8718,-3.8718,-3.8718,-3.8718,-3.8718,-3.8718,-3.8718,-3.8718,-3.8718,-3.8718,-3.8718,-3.8718,-3.8718,-3.8718,-3.8718,-3.8718,-3.8718,-3.8718,-3.8718,-3.8718,-3.8718,-3.8718,-3.9386,-4.2761,-4.5628,-4.8533,-5.1872,-5.4571,-5.6582,-5.6582,-5.6582,-5.6582,-5.6582,-5.6582,-5.6582,-5.6582,-5.6582,-5.6582,-5.6582,-5.6582,-5.6582,-5.6582,-5.6582,-5.6582,-5.6582,-5.6582,-5.6582,-5.6582,-5.6582,-5.6582,-5.6582,-5.6582,-5.8012,-6.0842,-6.3491,-6.6087,-6.909,-7.1525,-7.274,-7.274,-7.274,-7.274,-7.274,-7.274,-7.274,-0.0,-0.0,-0.149,-0.8309,-0.98,-0.9796,-0.9811,-1.3567,-1.7203,-1.7758,-1.7895,-1.7792,-1.7846,-1.786,-1.786,0.0,-1.786,-1.7914,-1.8077,-1.8165,-1.8301,-1.8511,-1.8599,-2.1202,-2.7399,-2.7874,-3.0362,-3.6471,-3.6941,-3.7088,-3.7382,-3.7529,-3.7823,-3.8263,-3.8437,-3.8584,-3.8718,-3.8718,-3.8718,-3.8718,-3.8718,-3.8718,-3.8718,-3.8718,-3.8718,-3.8718,-3.8718,-3.8718,-3.8718,-3.8718,-3.8718,-3.8718,-3.8718,-3.8718,-3.8718,-3.8718,-3.8718,-3.8718,-3.8718,-3.8718,-3.8718,-3.8718,-3.8718,-3.8718,-3.8718,-3.8718,-3.8718,-3.8718,-3.8718,-3.9399,-4.2319,-4.545,-4.8294,-5.1417,-5.4337,-5.6582,-5.6582,-5.6582,-5.6582,-5.6582,-5.6582,-5.6582,-5.6582,-5.6582,-5.6582,-5.6582,-5.6582,-5.6582,-5.6582,-5.6582,-5.6582,-5.6582,-5.6582,-5.6582,-5.6582,-5.6582,-5.6582,-5.6582,-5.6582,-5.8625,-6.288,-6.41,-6.6707,-7.0902,-7.2122,-7.274,-7.274,-7.274,-7.274,-7.274,-7.274,-7.274,-0.0,-0.0,-0.1917,-1.0261,-1.2388,-1.3036,-1.6188,-1.717,-1.7284,-1.7847,-1.7978,-1.786,-1.786,-1.786,-1.786,-1.786,-1.7901,-1.7989,-1.8124,-1.8287,-1.8423,-1.8586,-1.8694,-2.0825,-2.6063,-2.7409,-3.0136,-3.5323,-3.655,-3.7195,-3.7489,-3.7782,-3.8076,-3.837,-3.8611,-3.8718,-3.8718,-3.8718,-3.8718,-3.8718,-3.8718,-3.8718,-3.8718,-3.8718,-3.8718,-3.8718,-3.8718,-3.8718,-3.8718,-3.8718,-3.8718,-3.8718,-3.8718,-3.8718,-3.8718,-3.8718,-3.8718,-3.8718,-3.8718,-3.8718,-3.8718,-3.8718,-3.8718,-3.8718,-3.8718,-3.8718,-3.8718,-3.8718,-3.8718,-3.9181,-4.1403,-4.4079,-4.6974,-4.9215,-5.2563,-5.5452,-5.5452,-5.592,-5.6582,-5.6582,-5.6582,-5.6582,-5.6582,-5.6582,-5.6582,-5.6582,-5.6582,-5.6582,-5.6582,-5.6582,-5.6582,-5.6582,-5.6582,-5.6582,-5.6582,-5.6582,-5.6582,-5.6582,-5.6582,-5.9026,-6.4505,-6.4706,-6.7301,-7.2526,-7.274,-7.274,-7.274,-7.274,-7.274,-7.274,-7.274,-7.274,-0.0,-0.0,-0.0,-0.0425,-0.0423,-0.3382,-1.4389,-1.7351,-1.7912,-1.7847,-1.7978,-1.786,-1.786,-1.786,-1.786,-1.786,-1.7989,-1.8145,-1.8287,-1.8443,-1.8586,-1.8742,-1.8762,-1.9907,0.0,-2.6063,-2.9212,-3.2373,-3.5604,-3.7489,-3.7782,-3.8076,-3.8397,-3.8691,-3.8718,-3.8718,-3.8718,-3.8718,-3.8718,-3.8718,-3.8718,-3.8718,-3.8718,-3.8718,-3.8718,-3.8718,-3.8718,-3.8718,-3.8718,-3.8718,-3.8718,-3.8718,-3.8718,-3.8718,-3.8718,-3.8718,-3.8718,-3.8718,-3.8718,-3.8718,-3.8718,-3.8718,-3.8718,-3.8718,-3.8718,-3.8718,-3.8718,-3.8718,-3.8718,-3.8731,-3.8704,-4.0958,-4.3414,-4.3429,-4.7899,-5.2309,-5.2309,-5.4571,-5.6582,-5.6582,-5.6582,-5.6582,-5.6582,-5.6582,-5.6582,-5.6582,-5.6582,-5.6582,-5.6582,-5.6582,-5.6582,-5.6582,-5.6582,-5.6582,-5.6582,-5.6582,-5.6582,-5.6582,-5.6582,-5.9026,-6.4505,-6.4706,-6.7301,-7.2526,-7.274,-7.274,-7.274,-7.274,-7.274,-7.274,-7.274,-7.274,-0.0,0.0,-0.0,-0.0,-0.0,-0.2999,-1.4327,-1.7528,-1.7875,-1.7998,-1.7826,-1.786,-1.786,-1.786,-1.786,-1.786,-1.7989,-1.8145,-1.8301,-1.8443,-1.8586,-1.8742,-1.8762,0.0,0.0,0.0,0.0,-3.2172,-3.5604,-3.7529,-3.7809,-3.8103,-3.8397,-3.8718,-3.8718,-3.8718,-3.8718,-3.8718,-3.8718,-3.8718,-3.8718,-3.8718,-3.8718,-3.8718,-3.8718,-3.8718,-3.8718,-3.8718,-3.8718,-3.8718,-3.8718,-3.8718,-3.8718,-3.8718,-3.8718,-3.8718,-3.8718,-3.8718,-3.8718,-3.8718,-3.8718,-3.8718,-3.8718,-3.8718,-3.8718,-3.8718,-3.8718,-3.8718,-3.8718,-3.8718,-3.8718,-4.0987,-4.3656,-4.5644,-4.9215,-5.2563,-5.4571,-5.5901,-5.6582,-5.6582,-5.6582,-5.6582,-5.6582,-5.6582,-5.6582,-5.6582,-5.6582,-5.6582,-5.6582,-5.6582,-5.6582,-5.6582,-5.6582,-5.6582,-5.6582,-5.6582,-5.6582,-5.6582,-5.6582,-5.8203,-6.1854,-6.3673,-6.6309,-6.9914,-7.1716,-7.274,-7.274,-7.274,-7.274,-7.274,-7.274,-7.274,0.0,-0.0,-0.0,-0.0,-0.0,-0.1941,-0.9349,-1.4501,-1.7964,-1.7846,-1.786,-1.786,-1.786,-1.786,-1.788,-1.7935,-1.8077,-1.8233,-1.8375,-1.8511,-1.8654,-1.8742,-1.8762,-1.8762,-1.8762,0.0,0.0,-3.0576,-3.4994,-3.7635,-3.7809,-3.821,-3.8504,-3.8718,-3.8718,-3.8718,-3.8718,-3.8718,-3.8718,-3.8718,-3.8718,-3.8718,-3.8718,-3.8718,-3.8718,-3.8718,-3.8718,-3.8718,-3.8718,-3.8718,-3.8718,-3.8718,-3.8718,-3.8718,-3.8718,-3.8718,-3.8718,-3.8718,-3.8718,-3.8718,-3.8718,-3.8718,-3.8718,-3.8718,-3.8718,-3.8718,-3.8718,-3.8718,-3.8718,-3.8718,-3.8718,-4.0051,-4.2076,-4.4079,-4.7643,-5.0996,-5.2999,-5.5022,-5.6582,-5.6582,-5.6582,-5.6582,-5.6582,-5.6582,-5.6582,-5.6582,-5.6582,-5.6582,-5.6582,-5.6582,-5.6582,-5.6582,-5.6582,-5.6582,-5.6582,-5.6582,-5.6582,-5.6582,-5.6582,-5.78,-6.0427,-6.3288,-6.5888,-6.8676,-7.1309,-7.274,-7.274,-7.274,-7.274,-7.274,-7.274,-7.274,-0.0,-0.0,-0.0,-0.0,-0.0,-0.0,-0.0,-0.92,-1.7978,-1.7846,-1.786,-1.786,0.0,0.0,-1.7914,-1.8287,-1.8213,-1.8369,-1.8498,-1.8654,-1.8762,-1.8762,-1.8762,-1.8762,-1.8762,-2.4226,0.0,-2.7874,0.0,-3.7809,-3.7809,-3.8397,-3.8718,-3.8718,-3.8718,-3.8718,-3.8718,-3.8718,-3.8718,-3.8718,-3.8718,-3.8718,-3.8718,-3.8718,-3.8718,-3.8718,-3.8718,-3.8718,-3.8718,-3.8718,-3.8718,-3.8718,-3.8718,-3.8718,-3.8718,-3.8718,-3.8718,-3.8718,-3.8718,-3.8718,-3.8718,-3.8718,-3.8718,-3.8718,-3.8718,-3.8718,-3.8718,-3.8718,-3.8718,-3.8718,-3.8718,-3.8718,-3.8731,-3.895,-4.3429,-4.766,-4.7866,-5.2545,-5.6582,-5.6582,-5.6582,-5.6582,-5.6582,-5.6582,-5.6582,-5.6582,-5.6582,-5.6582,-5.6582,-5.6582,-5.6582,-5.6582,-5.6582,-5.6582,-5.6582,-5.6582,-5.6582,-5.6582,-5.6582,-5.78,-6.0219,-6.3084,-6.5888,-6.848,-7.1309,-7.274,-7.274,-7.274,-7.274,-7.274,-7.274,-7.274,-0.0,-0.0,-0.0,-0.0,-0.0,-0.0,-0.0,-0.9261,-1.7935,-1.7914,-1.788,-1.786,-1.786,-1.786,0.0,-1.7914,-1.8145,0.0,-1.8375,-1.8599,-1.8762,-1.8762,-1.8762,-1.8762,-1.8762,-2.4226,-2.7874,0.0,-3.4013,-3.7809,-3.7809,-3.8397,-3.8718,-3.8718,-3.8718,-3.8718,-3.8718,-3.8718,-3.8718,-3.8718,-3.8718,-3.8718,-3.8718,-3.8718,-3.8718,-3.8718,-3.8718,-3.8718,-3.8718,-3.8718,-3.8718,-3.8718,-3.8718,-3.8718,-3.8718,-3.8718,-3.8718,-3.8718,-3.8718,-3.8718,-3.8718,-3.8718,-3.8718,-3.8718,-3.8718,-3.8718,-3.8718,-3.8718,-3.8718,-3.8718,-3.8718,-3.8718,-3.9154,-4.1417,-4.4984,-4.8311,-5.0557,-5.3904,-5.6582,-5.6582,-5.6582,-5.6582,-5.6582,-5.6582,-5.6582,-5.6582,-5.6582,-5.6582,-5.6582,-5.6582,-5.6582,-5.6582,-5.6582,-5.6582,-5.6582,-5.6582,-5.6582,-5.6582,-5.6582,-5.6989,-5.7608,-6.2265,-6.5109,-6.5688,-7.0325,-7.274,-7.274,-7.274,-7.274,-7.274,-7.274,-7.274,-0.0,-0.0,-0.0,-0.0,-0.0,-0.0,-0.0,-0.5293,-1.1621,-1.6805,-1.7894,-1.786,-1.786,-1.786,-1.788,0.0,0.0,0.0,-1.8409,-1.862,-1.8762,-1.8762,-1.8762,-1.8762,-1.8762,-2.3105,-2.6509,-2.7863,-3.4013,-3.7809,-3.7809,-3.8397,-3.8718,-3.8718,-3.8718,-3.8718,-3.8718,-3.8718,-3.8718,-3.8718,-3.8718,-3.8718,-3.8718,-3.8718,-3.8718,-3.8718,-3.8718,-3.8718,-3.8718,-3.8718,-3.8718,-3.8718,-3.8718,-3.8718,-3.8718,-3.8718,-3.8718,-3.8718,-3.8718,-3.8718,-3.8718,-3.8718,-3.8718,-3.8718,-3.8718,-3.8718,-3.8718,-3.8718,-3.8718,-3.8718,-3.8718,-3.8718,-3.9168,-4.0742,-4.3399,-4.6526,-4.9419,-5.2563,-5.5022,-5.6368,-5.6582,-5.6582,-5.6582,-5.6582,-5.6582,-5.6582,-5.6582,-5.6582,-5.6582,-5.6582,-5.6582,-5.6582,-5.6582,-5.6582,-5.6582,-5.6582,-5.6582,-5.6582,-5.6582,-5.6582,-5.6582,-6.1854,-6.4706,-6.4706,-6.9914,-7.274,-7.274,-7.274,-7.274,-7.274,-7.274,-7.274,-0.0,-0.0,-0.0,-0.0,-0.0,-0.0,-0.0,-0.0,-0.334,-1.5442,-1.7894,-1.786,-1.786,-1.786,-1.7894,-1.7813,0.0,-1.8355,-1.8477,-1.8654,-1.8762,-1.8762,-1.8762,-1.8762,-1.8762,-2.1502,-2.4693,-2.7647,-3.3787,-3.7342,-3.7809,-3.8397,-3.8718,-3.8718,-3.8718,-3.8718,-3.8718,-3.8718,-3.8718,-3.8718,-3.8718,-3.8718,-3.8718,-3.8718,-3.8718,-3.8718,-3.8718,-3.8718,-3.8718,-3.8718,-3.8718,-3.8718,-3.8718,-3.8718,-3.8718,-3.8718,-3.8718,-3.8718,-3.8718,-3.8718,-3.8718,-3.8718,-3.8718,-3.8718,-3.8718,-3.8718,-3.8718,-3.8718,-3.8718,-3.8718,-3.8718,-3.8718,-3.8718,-3.8718,-4.0958,-4.4095,-4.6974,-5.0302,-5.3452,-5.6134,-5.6582,-5.6582,-5.6582,-5.6582,-5.6582,-5.6582,-5.6582,-5.6582,-5.6582,-5.6582,-5.6582,-5.6582,-5.6582,-5.6582,-5.6582,-5.6582,-5.6582,-5.6582,-5.6582,-5.6582,-5.6582,-6.1854,-6.4706,-6.4706,-6.9914,-7.274,-7.274,-7.274,-7.274,-7.274,-7.274,-7.274,-0.0,-0.0,-0.0,-0.0,-0.0,-0.0,-0.0,-0.0,-0.3342,-1.5471,-1.7914,-1.786,-1.786,-1.786,-1.786,-1.7894,-1.8145,-1.8321,-1.8355,-1.8586,-1.8762,-1.8762,-1.8762,-1.8762,-1.8762,-2.1502,-2.4693,0.0,-3.1727,-3.5268,-3.7569,-3.8397,-3.8718,-3.8718,-3.8718,-3.8718,-3.8718,-3.8718,-3.8718,-3.8718,-3.8718,-3.8718,-3.8718,-3.8718,-3.8718,-3.8718,-3.8718,0.0,-3.8718,-3.8718,-3.8718,-3.8718,-3.8718,-3.8718,-3.8718,-3.8718,-3.8718,-3.8718,-3.8718,-3.8718,-3.8718,-3.8718,-3.8718,-3.8718,-3.8718,-3.8718,-3.8718,-3.8718,-3.8718,-3.8718,-3.8718,-3.8718,-3.8718,-3.8718,-4.0958,-4.4095,-4.699,-5.1908,-5.592,-5.6582,-5.6582,-5.6582,-5.6582,-5.6582,-5.6582,-5.6582,-5.6582,-5.6582,-5.6582,-5.6582,-5.6582,-5.6582,-5.6582,-5.6582,-5.6582,-5.6582,-5.6582,-5.6582,-5.6582,-5.6582,-5.6582,-6.1854,-6.4706,-6.4706,-6.9914,-7.274,-7.274,-7.274,-7.274,-7.274,-7.274,-7.274,-0.0,-0.0,-0.0,-0.0,-0.0,-0.0,-0.0,-0.0,-0.3342,-1.5483,-1.7935,-1.786,-1.786,-1.786,-1.788,-1.7968,-1.8179,-1.8335,-1.8423,-1.862,-1.8762,-1.8762,-1.8762,-1.8762,-1.8762,-2.0146,-2.2867,-2.7647,-2.9876,-3.2942,-3.7596,-3.8397,-3.8718,-3.8718,-3.8718,-3.8718,-3.8718,-3.8718,-3.8718,-3.8718,-3.8718,-3.8718,-3.8718,-3.8718,-3.8718,-3.8718,-3.8718,-3.8718,-3.8718,-3.8718,-3.8718,-3.8718,-3.8718,-3.8718,-3.8718,-3.8718,-3.8718,-3.8718,-3.8718,-3.8718,-3.8718,-3.8718,-3.8718,-3.8718,-3.8718,-3.8718,-3.8718,-3.8718,-3.8718,-3.8718,-3.8718,-3.8718,-3.8718,-3.8718,-4.209,-4.5869,-4.742,-5.2327,-5.6582,-5.6582,-5.6582,-5.6582,-5.6582,-5.6582,-5.6582,-5.6582,-5.6582,-5.6582,-5.6582,-5.6582,-5.6582,-5.6582,-5.6582,-5.6582,-5.6582,-5.6582,-5.6582,-5.6582,-5.6582,-5.6582,-5.6582,-6.1854,-6.4706,-6.4706,-6.9914,-7.274,-7.274,-7.274,-7.274,-7.274,-7.274,-7.274,-0.0,-0.0,-0.0,-0.0,-0.0,-0.0,-0.0,-0.0,-0.3342,-1.5483,-1.7935,-1.786,-1.786,-1.786,-1.7914,-1.7847,-1.8213,-1.8375,-1.8511,-1.8674,-1.8762,-1.8762,-1.8762,-1.8762,-1.8762,-1.8762,0.0,-2.6509,-2.8728,0.0,-3.7768,-3.8464,-3.8718,-3.8718,-3.8718,-3.8718,-3.8718,-3.8718,-3.8718,-3.8718,-3.8718,-3.8718,-3.8718,-3.8718,-3.8718,-3.8718,-3.8718,-3.8718,-3.8718,-3.8718,-3.8718,-3.8718,-3.8718,-3.8718,-3.8718,-3.8718,-3.8718,-3.8718,-3.8718,-3.8718,-3.8718,-3.8718,-3.8718,-3.8718,-3.8718,-3.8718,-3.8718,-3.8718,-3.8718,-3.8718,-3.8718,-3.8718,-3.8718,-3.8718,-4.3171,-4.7643,-4.7643,-5.2327,-5.6582,-5.6582,-5.6582,-5.6582,-5.6582,-5.6582,-5.6582,-5.6582,-5.6582,-5.6582,-5.6582,-5.6582,-5.6582,-5.6582,-5.6582,-5.6582,-5.6582,-5.6582,-5.6582,-5.6582,-5.6582,-5.6582,-5.6582,-6.1257,-6.41,-6.4706,-6.9308,-7.2122,-7.274,-7.274,-7.274,-7.274,-7.274,-7.274,-0.0,-0.0,-0.0,-0.0,-0.0,-0.0,-0.0,-0.0,-0.3342,-1.5483,-1.7935,-1.786,-1.786,-1.786,-1.7914,-1.7847,-1.8445,-1.861,-1.8511,-1.8674,-1.8762,-1.8762,-1.8762,-1.8762,-1.8762,-1.8762,-2.0124,-2.3556,-2.9417,0.0,-3.8366,-3.8691,-3.8718,-3.8718,-3.8718,-3.8718,-3.8718,-3.8718,-3.8718,-3.8718,-3.8718,-3.8718,-3.8718,-3.8718,-3.8718,-3.8718,-3.8718,-3.8718,0.0,-3.8718,-3.8718,-3.8718,-3.8718,-3.8718,-3.8718,-3.8718,-3.8718,-3.8718,-3.8718,-3.8718,-3.8718,-3.8718,-3.8718,-3.8718,-3.8718,-3.8718,-3.8718,-3.8718,-3.8718,-3.8718,-3.8718,-3.8718,-3.8718,-3.8718,-4.3414,-4.766,-4.7643,-5.2327,-5.6582,-5.6582,-5.6582,-5.6582,-5.6582,-5.6582,-5.6582,-5.6582,-5.6582,-5.6582,-5.6582,-5.6582,-5.6582,-5.6582,-5.6582,-5.6582,-5.6582,-5.6582,-5.6582,-5.6582,-5.6582,-5.6582,-5.6582,-5.9425,-6.206,-6.4706,-6.7498,-7.03,-7.274,-7.274,-7.274,-7.274,-7.274,-7.274,-0.0,-0.0,-0.0,-0.0,-0.0,-0.0,-0.0,-0.0,-0.3342,-1.5483,-1.7935,-1.786,-1.786,-1.786,-1.7914,-1.7847,-1.8445,-1.8837,-1.8747,-1.8674,-1.8762,-1.8762,-1.8762,-1.8762,0.0,0.0,-2.0863,-2.6004,0.0,0.0,-3.818,-3.8611,-3.8718,-3.8718,-3.8718,-3.8718,-3.8718,-3.8718,-3.8718,-3.8718,-3.8718,-3.8718,-3.8718,-3.8718,-3.8718,-3.8718,-3.8718,-3.8718,0.0,-3.8718,-3.8718,-3.8718,-3.8718,-3.8718,-3.8718,-3.8718,-3.8718,-3.8718,-3.8718,-3.8718,-3.8718,-3.8718,-3.8718,-3.8718,-3.8718,-3.8718,-3.8718,-3.8718,-3.8718,-3.8718,-3.8718,-3.8718,-3.9181,-4.0958,-4.4517,-4.8106,-4.9861,-5.3669,-5.6582,-5.6582,-5.6582,-5.6582,-5.6582,-5.6582,-5.6582,-5.6582,-5.6582,-5.6582,-5.6582,-5.6582,-5.6582,-5.6582,-5.6582,-5.6582,-5.6582,-5.6582,-5.6582,-5.6582,-5.6582,-5.6582,-5.6582,-5.9215,-6.1854,-6.4706,-6.7278,-7.0107,-7.274,-7.274,-7.274,-7.274,-7.274,-7.274,-0.0,-0.0,-0.0,-0.0,-0.0,-0.0,-0.0,-0.0,-0.3342,-1.5471,-1.7914,-1.786,-1.786,-1.786,-1.7914,-1.7847,-1.8213,-1.861,-1.8754,-1.8905,-1.8762,-1.8762,0.0,-1.8762,0.0,-1.8762,-2.1349,0.0,0.0,0.0,-3.8007,-3.8544,-3.8718,-3.8718,-3.8718,-3.8718,-3.8718,-3.8718,-3.8718,-3.8718,-3.8718,-3.8718,-3.8718,-3.8718,-3.8718,-3.8718,-3.8718,-3.8718,0.0,-3.8718,-3.8718,-3.8718,-3.8718,-3.8718,-3.8718,-3.8718,-3.8718,-3.8718,-3.8718,-3.8718,-3.8718,-3.8718,-3.8718,-3.8718,-3.8718,-3.8718,-3.8718,-3.8718,-3.8718,-3.8718,-3.8718,-3.8718,-3.9386,-4.2518,-4.5419,-4.8533,-5.1435,-5.4553,-5.6582,-5.6582,-5.6582,-5.6582,-5.6582,-5.6582,-5.6582,-5.6582,-5.6582,-5.6582,-5.6582,-5.6582,-5.6582,-5.6582,-5.6582,-5.6582,-5.6582,-5.6582,-5.6582,-5.6582,-5.6582,-5.6582,-5.6582,-5.9215,-6.1854,-6.4706,-6.7278,-7.0107,-7.274,-7.274,-7.274,-7.274,-7.274,-7.274,-0.0,-0.0,-0.0,-0.0,-0.0,-0.0,-0.0,-0.0,-0.334,-1.5442,-1.7894,-1.786,-1.786,-1.786,-1.7914,-1.7847,-1.7981,-1.8141,-1.8747,-1.8905,-1.8762,0.0,0.0,-1.8762,-1.8762,-1.8762,0.0,0.0,0.0,0.0,-3.7994,-3.8544,-3.8718,-3.8718,-3.8718,-3.8718,-3.8718,-3.8718,-3.8718,-3.8718,-3.8718,-3.8718,-3.8718,-3.8718,-3.8718,-3.8718,-3.8718,-3.8718,0.0,-3.8718,-3.8718,-3.8718,-3.8718,-3.8718,-3.8718,-3.8718,-3.8718,-3.8718,-3.8718,-3.8718,-3.8718,-3.8718,-3.8718,-3.8718,-3.8718,-3.8718,-3.8718,-3.8718,-3.8718,-3.8718,-3.8718,-3.8718,-3.9386,-4.2518,-4.5419,-4.8533,-5.1435,-5.4553,-5.6582,-5.6582,-5.6582,-5.6582,-5.6582,-5.6582,-5.6582,-5.6582,-5.6582,-5.6582,-5.6582,-5.6582,-5.6582,-5.6582,-5.6582,-5.6582,-5.6582,-5.6582,-5.6582,-5.6582,-5.6582,-5.6582,-5.6582,-5.9215,-6.1854,-6.4706,-6.7278,-7.0107,-7.274,-7.274,-7.274,-7.274,-7.274,-7.274,-0.0,-0.0,-0.0,-0.0,-0.0,-0.0,-0.0,-0.6399,-1.3202,-1.704,-1.7894,-1.786,-1.786,-1.786,-1.788,-1.7935,-1.7914,-1.8101,-1.861,-1.8836,0.0,-1.8762,-1.8762,-1.8762,0.0,0.0,0.0,0.0,0.0,0.0,-3.4693,-3.7283,-3.8718,-3.8718,-3.8718,-3.8718,-3.8718,-3.8718,-3.8718,-3.8718,-3.8718,-3.8718,-3.8718,-3.8718,-3.8718,-3.8718,-3.8718,-3.8718,-3.8718,-3.8718,-3.8718,-3.8718,-3.8718,-3.8718,-3.8718,-3.8718,-3.8718,-3.8718,-3.8718,-3.8718,-3.8718,-3.8718,-3.8718,-3.8718,-3.8718,-3.8718,-3.8718,-3.8718,-3.8718,-3.8718,-3.8718,-3.8718,-4.0065,-4.4984,-4.6974,-4.9011,-5.412,-5.592,-5.6582,-5.6582,-5.6582,-5.6582,-5.6582,-5.6582,-5.6582,-5.6582,-5.6582,-5.6582,-5.6582,-5.6582,-5.6582,-5.6582,-5.6582,-5.6582,-5.6582,-5.6582,-5.6582,-5.6582,-5.6582,-5.6582,-5.6582,-5.9215,-6.1854,-6.4706,-6.7278,-7.0107,-7.274,-7.274,-7.274,-7.274,-7.274,-7.274,-0.0,-0.0,-0.0,-0.0,-0.0,-0.0,-0.0,-0.9272,-1.7968,-1.7914,-1.788,-1.786,-1.786,-1.786,-1.786,-1.786,-1.7893,-1.8088,-1.8788,-1.8802,0.0,-1.8762,0.0,0.0,0.0,0.0,0.0,0.0,0.0,0.0,-3.316,-3.6654,-3.8611,-3.8718,-3.8718,-3.8718,-3.8718,-3.8718,-3.8718,-3.8718,-3.8718,-3.8718,-3.8718,-3.8718,-3.8718,-3.8718,-3.8718,-3.8718,0.0,-3.8718,-3.8718,-3.8718,-3.8718,-3.8718,-3.8718,-3.8718,-3.8718,-3.8718,-3.8718,-3.8718,-3.8718,-3.8718,-3.8718,-3.8718,-3.8718,-3.8718,-3.8718,-3.8718,-3.8718,-3.8718,-3.8718,-3.8718,-4.0296,-4.6334,-4.766,-4.9198,-5.5237,-5.6582,-5.6582,-5.6582,-5.6582,-5.6582,-5.6582,-5.6582,-5.6582,-5.6582,-5.6582,-5.6582,-5.6582,-5.6582,-5.6582,-5.6582,-5.6582,-5.6582,-5.6582,-5.6582,-5.6582,-5.6582,-5.6582,-5.6582,-5.6582,-6.024,-6.2858,-6.4706,-6.8308,-7.1118,-7.274,-7.274,-7.274,-7.274,-7.274,-7.274,0.0,-0.0,-0.0,-0.0,-0.0,-0.0218,-0.1086,-0.9909,0.0,-1.788,-1.786,-1.786,-1.786,-1.786,-1.786,-1.786,-1.7893,-1.8088,-1.8788,-1.8802,0.0,0.0,-1.8762,0.0,-1.8762,0.0,0.0,0.0,0.0,0.0,-3.2942,-3.6219,-3.818,-3.8718,-3.8718,-3.8718,-3.8718,-3.8718,-3.8718,-3.8718,-3.8718,-3.8718,-3.8718,-3.8718,-3.8718,0.0,-3.8718,0.0,0.0,-3.8718,-3.8718,-3.8718,-3.8718,-3.8718,-3.8718,-3.8718,-3.8718,-3.8718,-3.8718,-3.8718,-3.8718,-3.8718,-3.8718,-3.8718,-3.8718,-3.8718,-3.8718,-3.8718,-3.8718,-3.8718,-3.8718,-3.8718,-4.0296,-4.6094,-4.7643,-4.9198,-5.5237,-5.6582,-5.6582,-5.6582,-5.6582,-5.6582,-5.6582,-5.6582,-5.6582,-5.6582,-5.6582,-5.6582,-5.6582,-5.6582,-5.6582,-5.6582,-5.6582,-5.6582,-5.6582,-5.6582,-5.6582,-5.6582,-5.6582,-5.6582,-5.6582,-6.1854,-6.4706,-6.4706,-6.9914,-7.274,-7.274,-7.274,-7.274,-7.274,-7.274,-7.274,-0.0,0.0,-0.0,-0.0,-0.0,-0.2396,0.0,-1.5931,-1.7914,-1.788,-1.786,-1.786,-1.786,-1.786,-1.786,-1.786,-1.7893,-1.8088,-1.8788,-1.8802,0.0,-1.8762,-1.8762,-1.8762,0.0,0.0,0.0,0.0,0.0,-2.3529,-3.143,-3.3708,-3.6049,-3.8718,-3.8718,-3.8718,-3.8718,-3.8718,-3.8718,-3.8718,-3.8718,-3.8718,-3.8718,-3.8718,-3.8718,-3.8718,-3.8718,0.0,-3.8718,-3.8718,-3.8718,-3.8718,-3.8718,-3.8718,-3.8718,-3.8718,-3.8718,-3.8718,-3.8718,-3.8718,-3.8718,-3.8718,-3.8718,-3.8718,-3.8718,-3.8718,-3.8718,-3.8718,-3.8718,-3.8718,-3.8718,-3.8718,-4.0296,-4.6094,-4.766,-4.9437,-5.5237,-5.6582,-5.6582,-5.6582,-5.6582,-5.6582,-5.6582,-5.6582,-5.6582,-5.6582,-5.6582,-5.6582,-5.6582,-5.6582,-5.6582,-5.6582,-5.6582,-5.6582,-5.6582,-5.6582,-5.6582,-5.6582,-5.6582,-5.6582,-5.6582,-6.1854,-6.4706,-6.4706,-6.9914,-7.274,-7.274,-7.274,-7.274,-7.274,-7.274,-7.274,-0.0,-0.0,-0.0,-0.0,-0.0,-0.3045,-1.5096,-1.7944,-1.7894,-1.786,-1.786,-1.786,-1.786,-1.786,-1.786,-1.786,-1.7893,-1.8141,-1.8733,0.0,-1.8762,-1.8762,-1.8762,0.0,0.0,0.0,0.0,0.0,0.0,-2.1525,-2.8098,-3.3105,-3.6679,-3.8504,-3.8651,-3.8718,-3.8718,-3.8718,-3.8718,-3.8718,-3.8718,-3.8718,-3.8718,-3.8718,-3.8718,-3.8718,-3.8718,0.0,-3.8718,-3.8718,-3.8718,-3.8718,-3.8718,-3.8718,-3.8718,-3.8718,-3.8718,-3.8718,-3.8718,-3.8718,-3.8718,-3.8718,-3.8718,-3.8718,-3.8718,-3.8718,-3.8718,-3.8718,-3.8718,-3.8718,-3.8718,-3.8718,-4.0296,-4.6094,-4.766,-4.9198,-5.5237,-5.6582,-5.6582,-5.6582,-5.6582,-5.6582,-5.6582,-5.6582,-5.6582,-5.6582,-5.6582,-5.6582,-5.6582,-5.6582,-5.6582,-5.6582,-5.6582,-5.6582,-5.6582,-5.6582,-5.6582,-5.6582,-5.6582,-5.6582,-5.6582,-6.1854,-6.5911,-6.8308,-7.1309,-7.274,-7.274,-7.274,-7.274,-7.274,-7.274,-7.274,-0.0,-0.0,-0.0,-0.0,-0.0,-0.304,-1.5096,-1.793,-1.786,-1.786,-1.786,-1.786,-1.786,-1.786,-1.786,-1.786,-1.79,-1.8195,-1.8728,-1.8762,-1.8762,-1.8762,-1.8762,0.0,0.0,0.0,0.0,0.0,0.0,-2.0252,-2.3616,-3.2229,-3.7575,-3.833,-3.8584,-3.8718,-3.8718,-3.8718,-3.8718,-3.8718,-3.8718,-3.8718,-3.8718,-3.8718,-3.8718,-3.8718,0.0,0.0,-3.8718,-3.8718,-3.8718,-3.8718,-3.8718,-3.8718,-3.8718,-3.8718,-3.8718,-3.8718,-3.8718,-3.8718,-3.8718,-3.8718,-3.8718,-3.8718,-3.8718,-3.8718,-3.8718,-3.8718,-3.8718,-3.8718,-3.8718,-3.8718,-4.0296,-4.6094,-4.7643,-4.9198,-5.5237,-5.6582,-5.6582,-5.6582,-5.6582,-5.6582,-5.6582,-5.6582,-5.6582,-5.6582,-5.6582,-5.6582,-5.6582,-5.6582,-5.6582,-5.6582,-5.6582,-5.6582,-5.6582,-5.6582,-5.6582,-5.6582,-5.6582,-5.6989,-5.78,-6.2265,-6.7301,-7.2526,-7.274,-7.274,-7.274,-7.274,-7.274,-7.274,-7.274,-7.274,-0.0,-0.0,-0.0,-0.0,-0.0,-0.304,-1.5096,-1.793,-1.786,-1.786,-1.786,-1.786,-1.786,-1.786,-1.786,-1.786,-1.8356,-1.8665,-1.8728,0.0,-1.8762,-1.8762,0.0,0.0,0.0,0.0,0.0,0.0,0.0,-1.8967,-1.9683,-2.7956,-3.4499,-3.8406,-3.8691,-3.8718,-3.8718,-3.8718,-3.8718,-3.8718,-3.8718,-3.8718,-3.8718,-3.8718,-3.8718,-3.8718,0.0,-3.8718,-3.8718,-3.8718,-3.8718,-3.8718,-3.8718,-3.8718,-3.8718,-3.8718,-3.8718,-3.8718,-3.8718,-3.8718,-3.8718,-3.8718,-3.8718,-3.8718,-3.8718,-3.8718,-3.8718,-3.8718,-3.8718,-3.8718,-3.8718,-3.8718,-4.0296,-4.6094,-4.766,-4.9437,-5.5237,-5.6582,-5.6582,-5.6582,-5.6582,-5.6582,-5.6582,-5.6582,-5.6582,-5.6582,-5.6582,-5.6582,-5.6582,-5.6582,-5.6582,-5.6582,-5.6582,-5.6582,-5.6582,-5.6582,-5.6582,-5.6582,-5.6582,-5.8625,-6.3288,-6.4303,-6.7301,-7.2526,-7.274,-7.274,-7.274,-7.274,-7.274,-7.274,-7.274,-7.274,-0.0,-0.0,-0.0,-0.0,-0.0,-0.3043,-1.5155,-1.7978,-1.786,-1.786,-1.786,-1.786,-1.786,-1.786,-1.7914,-1.786,-1.8465,-1.8893,-1.8728,-1.8762,-1.8762,0.0,0.0,0.0,0.0,0.0,0.0,0.0,0.0,0.0,-1.8891,-2.2418,-2.8814,-3.7976,-3.8539,-3.8618,-3.8718,-3.8718,-3.8718,-3.8718,-3.8718,-3.8718,-3.8718,-3.8718,-3.8718,-3.8718,0.0,-3.8718,-3.8718,-3.8718,-3.8718,-3.8718,-3.8718,-3.8718,-3.8718,-3.8718,-3.8718,-3.8718,-3.8718,-3.8718,-3.8718,-3.8718,-3.8718,-3.8718,-3.8718,-3.8718,-3.8718,-3.8718,-3.8718,-3.8718,-3.8718,-3.8718,-4.0296,-4.6094,-4.7643,-4.9198,-5.5237,-5.6582,-5.6582,-5.6582,-5.6582,-5.6582,-5.6582,-5.6582,-5.6582,-5.6582,-5.6582,-5.6582,-5.6582,-5.6582,-5.6582,-5.6582,-5.6582,-5.6582,-5.6582,-5.6582,-5.6582,-5.6582,-5.8012,-6.0656,-6.4505,-6.6087,-6.87,-7.2526,-7.274,-7.274,-7.274,-7.274,-7.274,-7.274,-7.274,-7.274,-0.0,-0.0,-0.0,-0.0,-0.2164,-0.6533,-1.5882,-1.7792,-1.786,-1.786,-1.786,-1.786,-1.786,-1.786,-1.7968,-1.7802,-1.8321,-1.8893,-1.8728,-1.8762,-1.8762,-1.8762,0.0,0.0,0.0,0.0,0.0,0.0,0.0,0.0,-1.8836,-1.8796,-2.3432,-3.3348,-3.6792,-3.8711,-3.8592,-3.8758,-3.8718,-3.8718,-3.8718,-3.8718,-3.8718,-3.8718,-3.8718,-3.8718,-3.8718,-3.8718,-3.8718,-3.8718,-3.8718,-3.8718,-3.8718,-3.8718,-3.8718,-3.8718,-3.8718,-3.8718,-3.8718,-3.8718,-3.8718,-3.8718,-3.8718,-3.8718,-3.8718,-3.8718,-3.8718,-3.8718,-3.8718,-3.8718,-3.8718,-3.8718,-4.0296,-4.6094,-4.7643,-4.9198,-5.5237,-5.6582,-5.6582,-5.6582,-5.6582,-5.6582,-5.6582,-5.6582,-5.6582,-5.6582,-5.6582,-5.6582,-5.6582,-5.6582,-5.6582,-5.6582,-5.6582,-5.6582,-5.6582,-5.6582,-5.6582,-5.6582,-5.9005,-6.1854,-6.4505,-6.7301,-6.989,-7.274,-7.274,-7.274,-7.274,-7.274,-7.274,-7.274,-7.274,-7.274,-0.0,-0.0,-0.0,-0.0,-0.8281,-1.6896,-1.7684,-1.7792,-1.786,-1.786,-1.786,-1.786,-1.786,-1.786,-1.7968,-1.7802,-1.8321,-1.8893,-1.8728,0.0,0.0,0.0,0.0,0.0,0.0,0.0,0.0,0.0,0.0,0.0,-1.8749,-1.8762,-1.955,-2.0877,-3.2407,-3.8618,-3.861,-3.8618,-3.8718,-3.8718,-3.8718,-3.8718,-3.8718,-3.8718,-3.8718,-3.8718,-3.8718,-3.8718,-3.8718,-3.8718,-3.8718,-3.8718,-3.8718,-3.8718,-3.8718,-3.8718,-3.8718,-3.8718,-3.8718,-3.8718,-3.8718,-3.8718,-3.8718,-3.8718,-3.8718,-3.8718,-3.8718,-3.8718,-3.8718,-3.8718,-3.8718,-3.8718,-4.0296,-4.6094,-4.766,-4.9437,-5.5237,-5.6582,-5.6582,-5.6582,-5.6582,-5.6582,-5.6582,-5.6582,-5.6582,-5.6582,-5.6582,-5.6582,-5.6582,-5.6582,-5.6582,-5.6582,-5.6582,-5.6582,-5.6582,-5.6582,-5.6582,-5.6582,-5.9005,-6.1854,-6.4505,-6.7301,-6.989,-7.274,-7.274,-7.274,-7.274,-7.274,-7.274,-7.274,-7.274,-7.274,-0.0,-0.0,-0.0,-0.0,-0.8933,-1.7799,-1.7792,-1.786,-1.786,-1.786,-1.786,-1.786,-1.786,-1.786,-1.7968,-1.7802,-1.8321,-1.8893,0.0,0.0,0.0,0.0,0.0,0.0,0.0,0.0,0.0,0.0,0.0,0.0,0.0,-1.885,-1.8918,-1.9214,-2.4277,-3.0761,-3.8636,-3.8618,-3.8718,-3.8718,-3.8718,-3.8718,-3.8718,-3.8718,-3.8718,-3.8718,-3.8718,-3.8718,-3.8718,-3.8718,-3.8718,-3.8718,-3.8718,-3.8718,-3.8718,-3.8718,-3.8718,-3.8718,-3.8718,-3.8718,-3.8718,-3.8718,-3.8718,-3.8718,-3.8718,-3.8718,-3.8718,-3.8718,-3.8718,-3.8718,-3.8718,-3.8718,-4.0296,-4.6094,-4.766,-4.9437,-5.5237,-5.6582,-5.6582,-5.6582,-5.6582,-5.6582,-5.6582,-5.6582,-5.6582,-5.6582,-5.6582,-5.6582,-5.6582,-5.6582,-5.6582,-5.6582,-5.6582,-5.6582,-5.6582,-5.6582,-5.6582,-5.6582,-5.972,-6.2865,-6.6234,-6.9524,-7.1716,-7.2715,-7.274,-7.274,-7.274,-7.274,-7.274,-7.274,-7.274,-7.274,-0.0,-0.0,-0.0854,-0.4562,-1.1786,-1.7813,-1.786,-1.7894,-1.786,-1.786,-1.786,-1.786,-1.786,-1.786,-1.7968,-1.7802,-1.8321,0.0,0.0,0.0,0.0,0.0,0.0,0.0,0.0,0.0,0.0,0.0,0.0,0.0,0.0,-1.8864,-1.8697,-1.8731,-1.9456,-2.5834,-3.8623,-3.8711,-3.8592,-3.8718,-3.8718,-3.8718,-3.8718,-3.8718,-3.8718,-3.8718,-3.8718,-3.8718,-3.8718,-3.8718,-3.8718,-3.8718,-3.8718,-3.8718,-3.8718,-3.8718,-3.8718,-3.8718,-3.8718,-3.8718,-3.8718,-3.8718,-3.8718,-3.8718,-3.8718,-3.8718,-3.8718,-3.8718,-3.8718,-3.8718,-3.8718,-3.8718,-4.0065,-4.4968,-4.6974,-4.9011,-5.412,-5.592,-5.6582,-5.6582,-5.6582,-5.6582,-5.6582,-5.6582,-5.6582,-5.6582,-5.6582,-5.6582,-5.6582,-5.6582,-5.6582,-5.6582,-5.6582,-5.6582,-5.6582,-5.6582,-5.6698,-5.6635,-5.885,-6.2276,-6.6458,-7.0543,-7.274,-7.274,-7.274,-7.274,-7.274,-7.274,-7.274,-7.274,-7.274,-7.274,-0.0,-0.0,-0.2781,-1.4211,-1.7358,-1.7841,-1.788,-1.7894,-1.786,-1.786,-1.786,-1.786,-1.786,-1.786,-1.7968,-1.7802,-1.8321,0.0,0.0,0.0,0.0,0.0,0.0,0.0,0.0,0.0,0.0,0.0,0.0,0.0,0.0,-1.8762,-1.883,-1.8751,-1.9456,-2.5825,-3.8375,-3.8636,-3.8751,-3.8718,-3.8718,-3.8718,-3.8718,-3.8718,-3.8718,-3.8718,-3.8718,-3.8718,-3.8718,-3.8718,-3.8718,-3.8718,-3.8718,-3.8718,-3.8718,-3.8718,-3.8718,-3.8718,-3.8718,-3.8718,-3.8718,-3.8718,-3.8718,-3.8718,-3.8718,-3.8718,-3.8718,-3.8718,-3.8718,-3.8718,-3.8718,-3.8718,-3.9386,-4.2518,-4.5403,-4.8294,-5.1435,-5.4571,-5.6582,-5.6582,-5.6582,-5.6582,-5.6582,-5.6582,-5.6582,-5.6582,-5.6582,-5.6582,-5.6582,-5.6582,-5.6582,-5.6582,-5.6582,-5.6582,-5.6582,-5.6582,-5.6655,-5.6682,-5.67,-5.9158,-6.4639,-6.9914,-7.274,-7.274,-7.274,-7.274,-7.274,-7.274,-7.274,-7.274,-7.274,-7.274,-0.0,-0.0,-0.2791,-1.4216,-1.7391,-1.7895,-1.788,-1.7894,-1.786,-1.786,-1.786,-1.786,-1.786,-1.786,-1.7968,-1.7802,-1.8321,0.0,0.0,0.0,0.0,0.0,0.0,0.0,0.0,0.0,0.0,0.0,0.0,0.0,0.0,-1.8762,-1.883,-1.8751,-1.8884,-2.1096,-2.5298,-3.4333,-3.8645,-3.8751,-3.8592,-3.8718,-3.8718,-3.8718,-3.8718,-3.8718,-3.8718,-3.8718,-3.8718,-3.8718,-3.8718,-3.8718,-3.8718,-3.8718,-3.8718,-3.8718,-3.8718,-3.8718,-3.8718,-3.8718,-3.8718,-3.8718,-3.8718,-3.8718,-3.8718,-3.8718,-3.8718,-3.8718,-3.8718,-3.8718,-3.8718,-3.8718,-3.9631,-4.3336,-4.2753,-4.3983,-5.3347,-5.5994,-5.6582,-5.6582,-5.6582,-5.6582,-5.6582,-5.6582,-5.6582,-5.6582,-5.6582,-5.6582,-5.6582,-5.6582,-5.6582,-5.6582,-5.6582,-5.6582,-5.6582,-5.6582,-5.6655,-5.6682,-6.3645,-6.8573,-7.0291,-7.1871,-7.274,-7.274,-7.274,-7.274,-7.274,-7.274,-7.274,-7.274,-7.274,-7.2941,-0.0,-0.3425,-0.8846,-1.5542,-1.7629,-1.7944,-1.786,-1.788,-1.786,-1.786,-1.786,-1.786,-1.786,-1.7914,-1.7813,-1.7821,0.0,0.0,0.0,0.0,0.0,0.0,0.0,0.0,0.0,0.0,0.0,0.0,0.0,0.0,0.0,-1.8762,-1.8796,-1.8898,-1.8864,-1.8938,-1.9358,-2.7111,-3.3642,-3.8636,-3.8711,-3.8592,-3.8718,-3.8718,-3.8718,-3.8718,-3.8718,-3.8718,-3.8718,-3.8718,-3.8718,-3.8718,-3.8718,-3.8718,-3.8718,-3.8718,-3.8718,-3.8718,-3.8718,-3.8718,-3.8718,-3.8718,-3.8718,-3.8718,-3.8718,-3.8718,-3.8718,-3.8718,-3.8718,-3.8718,-3.8718,-3.8718,-3.9195,-4.1747,-4.0533,-4.1221,-5.0952,-5.4835,-5.6582,-5.6582,-5.6582,-5.6582,-5.6582,-5.6582,-5.6582,-5.6582,-5.6582,-5.6582,-5.6582,-5.6582,-5.6582,-5.6582,-5.6582,-5.6582,-5.6582,-5.6582,-5.6517,-5.6614,-6.6689,-7.2809,-7.2658,-7.2636,-7.274,-7.274,-7.274,-7.274,-7.274,-7.274,-7.2841,-7.3067,-7.3067,-7.3368,-0.0,-0.8804,-1.7864,-1.7961,-1.7854,-1.7964,-1.7846,-1.786,-1.786,-1.786,-1.786,-1.786,-1.786,-1.7982,-1.7914,0.0,0.0,0.0,0.0,0.0,0.0,0.0,0.0,0.0,0.0,0.0,0.0,0.0,0.0,0.0,0.0,-1.8762,-1.8762,-1.8762,-1.8898,-1.8731,-1.8731,-1.9358,-2.5525,-3.7071,-3.8114,-3.8751,-3.8758,-3.8718,-3.8718,-3.8718,-3.8718,-3.8718,-3.8718,-3.8718,-3.8718,-3.8718,-3.8718,-3.8718,-3.8718,-3.8718,-3.8718,-3.8718,-3.8718,-3.8718,-3.8718,-3.8718,-3.8718,-3.8718,-3.8718,-3.8718,-3.8718,-3.8718,-3.8718,-3.8718,-3.8718,-3.8718,-3.8718,-3.8718,-3.8706,-4.0509,-4.7099,-5.2636,-5.6582,-5.6582,-5.6582,-5.6582,-5.6582,-5.6582,-5.6582,-5.6582,-5.6582,-5.6582,-5.6582,-5.6582,-5.6582,-5.6582,-5.6582,-5.6582,-5.6582,-5.6523,-5.6662,-5.6517,-6.6705,-7.2666,-7.2601,-7.274,-7.274,-7.274,-7.274,-7.274,-7.2765,-7.2816,-7.3117,-7.3669,-7.3669,-7.3971,-0.0,-0.8811,-1.7919,-1.794,-1.7895,-1.7826,-1.786,-1.786,-1.786,-1.786,-1.786,-1.786,-1.786,-1.7982,0.0,0.0,0.0,0.0,0.0,0.0,0.0,0.0,0.0,0.0,0.0,0.0,0.0,0.0,0.0,0.0,0.0,-1.8762,-1.8762,-1.8762,-1.8796,-1.8864,-1.8751,-1.949,-2.1011,0.0,-3.4017,-3.861,-3.8778,-3.8592,-3.8718,-3.8718,-3.8718,-3.8718,-3.8718,-3.8718,-3.8718,-3.8718,-3.8718,-3.8718,-3.8718,-3.8718,-3.8718,-3.8718,-3.8718,-3.8718,-3.8718,-3.8718,-3.8718,-3.8718,-3.8718,-3.8718,-3.8718,-3.8718,-3.8718,-3.8718,-3.8718,-3.8718,-3.8718,-3.8718,-3.8706,-4.1561,-5.2361,-5.5706,-5.6582,-5.6582,-5.6582,-5.6582,-5.6582,-5.6582,-5.6582,-5.6582,-5.6582,-5.6582,-5.6582,-5.6582,-5.6582,-5.6582,-5.6582,-5.6582,-5.6582,-5.663,-5.6669,-5.6679,-6.6707,-7.2761,-7.2765,-7.274,-7.274,-7.274,-7.274,-7.2676,-7.2736,-7.3684,-7.4062,-7.4247,-7.4247,-7.4523,-0.8135,-1.2766,-1.7541,-1.7875,-1.7998,-1.786,-1.786,-1.786,-1.786,-1.786,-1.786,-1.786,-1.786,0.0,0.0,0.0,0.0,0.0,0.0,0.0,0.0,0.0,0.0,0.0,0.0,0.0,0.0,0.0,0.0,0.0,0.0,-1.8762,-1.8762,-1.8762,-1.8762,-1.883,-1.8751,-1.8993,-1.931,-1.9692,-2.6517,-3.2759,-3.8636,-3.8618,-3.8718,-3.8718,-3.8718,-3.8718,-3.8718,-3.8718,-3.8718,-3.8718,-3.8718,-3.8718,-3.8718,-3.8718,-3.8718,-3.8718,-3.8718,-3.8718,-3.8718,-3.8718,-3.8718,-3.8718,-3.8718,-3.8718,-3.8718,-3.8718,-3.8718,-3.8718,-3.8718,-3.8718,-3.8718,-3.8718,-3.8706,-4.2067,-5.4041,-5.6571,-5.6582,-5.6582,-5.6582,-5.6582,-5.6582,-5.6582,-5.6582,-5.6582,-5.6582,-5.6582,-5.6582,-5.6582,-5.6582,-5.6582,-5.6582,-5.6639,-5.6669,-5.6582,-5.8768,-6.3924,-6.9651,-7.2618,-7.267,-7.262,-7.2736,-7.2776,-7.2736,-7.2719,-7.2702,-7.4021,-7.4641,-7.4774,-7.4799,-7.5101,-1.6661,-1.7217,-1.7364,-1.7806,-1.786,-1.786,-1.786,-1.786,-1.786,-1.786,-1.786,-1.786,0.0,0.0,0.0,0.0,0.0,0.0,0.0,0.0,0.0,0.0,0.0,0.0,0.0,0.0,0.0,0.0,0.0,0.0,-1.8762,-1.8762,-1.8762,-1.8762,-1.8762,-1.8816,-1.8717,-1.8731,-1.9061,-1.9447,-1.9692,-2.628,-3.8636,-3.8618,-3.8718,-3.8718,-3.8718,-3.8718,-3.8718,-3.8718,-3.8718,-3.8718,-3.8718,-3.8718,-3.8718,-3.8718,-3.8718,-3.8718,-3.8718,-3.8718,-3.8718,-3.8718,-3.8718,-3.8718,-3.8718,-3.8718,-3.8718,-3.8718,-3.8718,-3.8718,-3.8718,-3.8718,-3.8718,-3.8718,-3.8706,-4.2067,-5.4041,-5.6571,-5.6582,-5.6582,-5.6582,-5.6582,-5.6582,-5.6582,-5.6582,-5.6582,-5.6582,-5.6582,-5.6582,-5.6582,-5.6582,-5.6582,-5.664,-5.656,-5.6573,-5.8348,-6.338,-7.2663,-7.328,-7.3207,-7.3223,-7.3248,-7.3342,-7.3261,-7.3268,-7.3223,-7.3273,-7.4573,-7.5195,-7.513,-7.5352,-7.5628,-1.501,-1.7787,-1.7779,-1.7812,-1.786,-1.786,-1.786,-1.786,-1.786,0.0,0.0,0.0,0.0,0.0,0.0,0.0,0.0,0.0,0.0,0.0,0.0,0.0,0.0,0.0,0.0,0.0,0.0,0.0,0.0,0.0,-1.8762,-1.8762,-1.8762,-1.8762,-1.8762,-1.8782,-1.8796,-1.8918,-1.8818,-1.8959,-1.9447,-2.628,-3.8636,-3.8618,-3.8718,-3.8718,-3.8718,-3.8718,-3.8718,-3.8718,-3.8718,-3.8718,-3.8718,-3.8718,-3.8718,-3.8718,-3.8718,-3.8718,-3.8718,-3.8718,-3.8718,-3.8718,-3.8718,-3.8718,-3.8718,-3.8718,-3.8718,-3.8718,-3.8718,-3.8718,-3.8718,-3.8718,-3.8718,-3.8718,-3.8706,-4.2067,-5.4041,-5.6571,-5.6582,-5.6582,-5.6582,-5.6582,-5.6582,-5.6582,-5.6582,-5.6582,-5.6582,-5.6582,-5.6582,-5.6582,-5.6582,-5.6582,-5.6621,-5.666,-5.6662,-6.515,-7.1981,-7.5435,-7.5724,-7.5634,-7.5726,-7.5591,-7.5717,-7.5692,-7.5634,-7.5659,-7.5547,-7.5844,-7.602,-7.5929,-7.5929,-7.5979,-0.6448,-1.2886,-1.7978,-1.7846,-1.786,-1.786,-1.786,-1.786,-1.786,0.0,0.0,0.0,0.0,0.0,0.0,0.0,0.0,0.0,0.0,0.0,0.0,0.0,0.0,0.0,0.0,0.0,0.0,0.0,0.0,-1.8762,-1.8762,-1.8762,-1.8762,-1.8762,-1.8762,-1.8762,-1.8762,-1.883,-1.8972,-1.9203,-1.9685,-2.6345,-3.8624,-3.861,-3.8618,-3.8718,-3.8718,-3.8718,-3.8718,-3.8718,-3.8718,-3.8718,-3.8718,-3.8718,-3.8718,-3.8718,-3.8718,-3.8718,-3.8718,-3.8718,-3.8718,-3.8718,-3.8718,-3.8718,-3.8718,-3.8718,-3.8718,-3.8718,-3.8718,-3.8718,-3.8718,-3.8718,-3.8718,-3.8718,-3.8706,-4.2067,-5.4041,-5.6571,-5.6582,-5.6582,-5.6582,-5.6582,-5.6582,-5.6582,-5.6582,-5.6582,-5.6582,-5.6582,-5.6582,-5.6524,-5.664,-5.664,-5.6716,-5.6894,-5.7957,-6.8168,-7.4931,-7.608,-7.6172,-7.6046,-7.6046,-7.6172,-7.6051,-7.6051,-7.6096,-7.6096,-7.6051,-7.6051,-7.6126,-7.6055,-7.6055,-7.6055,-0.0,-0.8811,-1.7894,-1.788,-1.788,-1.786,0.0,0.0,0.0,0.0,0.0,0.0,0.0,0.0,0.0,0.0,0.0,0.0,0.0,0.0,0.0,0.0,0.0,0.0,0.0,0.0,0.0,0.0,0.0,-1.8762,-1.8762,-1.8762,-1.8762,-1.8762,-1.8762,-1.8762,-1.8762,-1.8796,-1.8938,-1.9392,-1.9671,-2.4621,-3.3957,-3.716,-3.8751,-3.8718,-3.8718,-3.8718,-3.8718,-3.8718,-3.8718,-3.8718,-3.8718,-3.8718,-3.8718,-3.8718,-3.8718,-3.8718,-3.8718,-3.8718,-3.8718,-3.8718,-3.8718,-3.8718,-3.8718,-3.8718,-3.8718,-3.8718,-3.8718,-3.8718,-3.8718,-3.8718,-3.8718,-3.8718,-3.8706,-4.1992,-5.4118,-5.6576,-5.6582,-5.6582,-5.6582,-5.6582,-5.6582,-5.6582,-5.6582,-5.6582,-5.6582,-5.6621,-5.6699,-5.6699,-5.6696,-5.7107,-5.7224,-5.7696,-5.9077,-6.9571,-7.6067,-7.6026,-7.6126,-7.6055,-7.6055,-7.6055,-7.6055,-7.6055,-7.6055,-7.6055,-7.6055,-7.6055,-7.6055,-7.6055,-7.6055,-7.6055,-0.0,-0.8835,-1.7812,-1.7894,-1.7894,-1.786,0.0,0.0,0.0,0.0,0.0,0.0,0.0,0.0,0.0,0.0,0.0,0.0,0.0,0.0,0.0,0.0,0.0,0.0,0.0,0.0,0.0,0.0,0.0,-1.8762,-1.8762,-1.8762,-1.8762,-1.8762,-1.8762,-1.8762,-1.8762,-1.8898,-1.8751,-1.8771,-1.9379,-2.011,-2.1179,-3.3161,-3.8751,-3.8718,-3.8718,-3.8718,-3.8718,-3.8718,-3.8718,-3.8718,-3.8718,-3.8718,-3.8718,-3.8718,-3.8718,-3.8718,-3.8718,-3.8718,-3.8718,-3.8718,-3.8718,-3.8718,-3.8718,-3.8718,-3.8718,-3.8718,-3.8718,-3.8718,-3.8718,-3.8718,-3.8718,-3.8718,-3.8706,-4.2035,-5.3933,-5.6621,-5.6582,-5.6582,-5.6582,-5.6582,-5.6582,-5.6582,-5.6582,-5.6582,-5.6582,-5.6699,-5.6561,-5.6619,-5.7344,-5.8942,-5.8998,-5.9,-5.9137,-6.9523,-7.6127,-7.6105,-7.6055,-7.6055,-7.6055,-7.6055,-7.6055,-7.6055,-7.6055,-7.6055,-7.6055,-7.6055,-7.6055,-7.6055,-7.6055,-7.6055,-0.0,-0.8872,-1.7914,-1.7935,-1.7894,-1.786,0.0,0.0,0.0,0.0,0.0,0.0,0.0,0.0,0.0,0.0,0.0,0.0,0.0,0.0,0.0,0.0,0.0,0.0,0.0,0.0,0.0,0.0,0.0,0.0,-1.8762,-1.8762,-1.8762,-1.8762,-1.8762,-1.8762,-1.8762,-1.8816,-1.8884,-1.8751,-1.9128,-1.9358,-2.0181,-3.2827,-3.8676,-3.8718,-3.8718,-3.8718,-3.8718,-3.8718,-3.8718,-3.8718,-3.8718,-3.8718,-3.8718,-3.8718,-3.8718,-3.8718,-3.8718,-3.8718,-3.8718,-3.8718,-3.8718,-3.8718,-3.8718,-3.8718,-3.8718,-3.8718,-3.8718,-3.8718,-3.8718,-3.8718,-3.8788,-3.8665,-4.4494,-5.1385,-5.5763,-5.6582,-5.6582,-5.6582,-5.6582,-5.6582,-5.6582,-5.6582,-5.666,-5.664,-5.6679,-5.658,-5.6673,-5.7613,-5.8442,-5.9138,-5.914,-6.2053,-6.9379,-7.3855,-7.6102,-7.613,-7.6055,-7.6055,-7.6055,-7.6055,-7.6055,-7.6055,-7.6055,-7.6055,-7.6055,-7.6055,-7.6055,-7.6055,-7.6055,-7.6055,-0.0,-0.5791,-1.2776,-1.6824,0.0,-1.788,0.0,0.0,0.0,0.0,0.0,0.0,0.0,0.0,0.0,0.0,0.0,0.0,0.0,0.0,0.0,0.0,0.0,0.0,0.0,0.0,0.0,0.0,0.0,0.0,-1.8762,-1.8762,-1.8762,-1.8762,-1.8762,-1.8762,-1.8762,-1.8762,-1.8816,-1.8918,-1.8818,-1.9047,-2.0109,-3.2804,-3.8676,-3.8718,-3.8718,-3.8718,-3.8718,-3.8718,-3.8718,-3.8718,-3.8718,-3.8718,-3.8718,-3.8718,-3.8718,-3.8718,-3.8718,-3.8718,-3.8718,-3.8718,-3.8718,-3.8718,-3.8718,-3.8718,-3.8718,-3.8718,-3.8718,-3.8718,-3.8718,-3.8597,-3.8762,-3.8692,-4.7767,-5.6535,-5.6582,-5.6582,-5.6582,-5.6582,-5.6582,-5.6582,-5.6582,-5.668,-5.6601,-5.66,-5.7068,-5.7558,-5.7452,-5.8398,-5.9193,-5.9272,-5.912,-6.3676,-7.5184,-7.6182,-7.6157,-7.6105,-7.6055,-7.6055,-7.6055,-7.6055,-7.6055,-7.6055,-7.6055,-7.6055,-7.6055,-7.6055,-7.6055,-7.6055,-7.6055,-7.6055,0.0,0.0,0.0,-1.4363,0.0,0.0,0.0,0.0,0.0,0.0,0.0,0.0,0.0,0.0,0.0,0.0,0.0,0.0,0.0,0.0,0.0,0.0,0.0,0.0,0.0,0.0,0.0,0.0,0.0,-1.8762,-1.8762,-1.8762,-1.8762,-1.8762,-1.8762,-1.8762,-1.8762,-1.8762,-1.8762,-1.8762,-1.8918,-1.9145,-2.0197,-3.2789,-3.8751,-3.8718,-3.8718,-3.8718,-3.8718,-3.8718,-3.8718,-3.8718,-3.8718,-3.8718,-3.8718,-3.8718,-3.8718,-3.8718,-3.8718,-3.8718,-3.8718,-3.8718,-3.8718,-3.8718,-3.8718,-3.8718,-3.8718,-3.8718,-3.8718,-3.8718,-3.8718,-3.8627,-3.8837,-3.9099,-4.8197,-5.6673,-5.6504,-5.6582,-5.6582,-5.6582,-5.6582,-5.6582,-5.6582,-5.664,-5.6638,-5.6658,-5.817,-5.9199,-5.9115,-5.9154,-5.9272,-5.914,-5.9174,-6.3882,-7.5136,-7.6201,-7.6055,-7.6055,-7.6055,-7.6055,-7.6055,-7.6055,-7.6055,-7.6055,-7.6055,-7.6055,-7.6055,-7.6055,-7.6055,-7.6055,-7.6055,-7.6055,-0.0,0.0,0.0,0.0,0.0,0.0,0.0,0.0,0.0,0.0,0.0,0.0,0.0,0.0,0.0,0.0,0.0,0.0,0.0,0.0,0.0,0.0,0.0,0.0,0.0,0.0,0.0,0.0,-1.8762,-1.8762,-1.8762,-1.8762,-1.8762,-1.8762,-1.8762,-1.8762,-1.8762,-1.8762,-1.8762,-1.8762,-1.8918,-1.8905,-1.9479,-3.2766,-3.8751,-3.8718,-3.8718,-3.8718,-3.8718,-3.8718,-3.8718,-3.8718,-3.8718,-3.8718,-3.8718,-3.8718,-3.8718,-3.8718,-3.8718,-3.8718,-3.8718,-3.8718,-3.8718,-3.8718,-3.8718,-3.8718,-3.8718,-3.8718,-3.8718,-3.8718,-3.8718,-3.8627,-4.0916,-4.9693,-5.4063,-5.6673,-5.6504,-5.6582,-5.6582,-5.6582,-5.6582,-5.6582,-5.6582,-5.664,-5.703,-5.8229,-5.8941,-5.9115,-5.9227,-5.9285,-5.9101,-5.918,-5.9174,-6.3882,-7.5136,-7.6201,-7.6055,-7.6055,-7.6055,-7.6055,-7.6055,-7.6055,-7.6055,-7.6055,-7.6055,-7.6055,-7.6055,-7.6055,-7.6055,-7.6055,-7.6055,-7.6055,-0.0,-0.0,-0.0,-0.0,0.0,0.0,-1.7249,-1.7894,0.0,0.0,0.0,0.0,0.0,0.0,0.0,0.0,0.0,0.0,0.0,0.0,0.0,0.0,0.0,0.0,0.0,0.0,0.0,-1.8762,-1.8762,-1.8762,-1.8762,-1.8762,-1.8762,-1.8762,-1.8762,-1.8762,-1.8762,-1.8762,-1.8762,-1.8762,-1.885,-1.885,-1.924,-3.2675,-3.8618,-3.8718,-3.8718,-3.8718,-3.8718,-3.8718,-3.8718,-3.8718,-3.8718,-3.8718,-3.8718,-3.8718,-3.8718,-3.8718,-3.8718,-3.8718,-3.8718,-3.8718,-3.8718,-3.8718,-3.8718,-3.8718,-3.8718,-3.8718,-3.8718,-3.8718,-3.8718,-3.8695,-4.1704,-5.3855,-5.6659,-5.658,-5.666,-5.6582,-5.6582,-5.6582,-5.6582,-5.6621,-5.6543,-5.6619,-5.7084,-5.896,-5.9154,-5.9187,-5.914,-5.918,-5.9285,-5.9115,-5.9169,-6.3731,-7.5186,-7.6155,-7.6055,-7.6055,-7.6055,-7.6055,-7.6055,-7.6055,-7.6055,-7.6055,-7.6055,-7.6055,-7.6055,-7.6055,-7.6055,-7.6055,-7.6055,-7.6055,-0.0,-0.0,-0.0,-0.0,-0.4466,0.0,-1.6577,-1.7894,-1.786,0.0,0.0,0.0,0.0,0.0,0.0,0.0,0.0,0.0,0.0,0.0,0.0,0.0,0.0,0.0,0.0,-1.8762,-1.8762,-1.8762,-1.8762,-1.8762,-1.8762,-1.8762,-1.8762,-1.8762,-1.8762,-1.8762,-1.8762,-1.8762,-1.8762,-1.8762,-1.8762,-1.8762,-1.924,-3.1022,-3.7399,-3.8718,-3.8718,-3.8718,-3.8718,-3.8718,-3.8718,-3.8718,-3.8718,-3.8718,-3.8718,-3.8718,-3.8718,-3.8718,-3.8718,-3.8718,-3.8718,-3.8718,-3.8718,-3.8718,-3.8718,-3.8718,-3.8718,-3.8718,-3.8718,-3.8718,-3.8718,-3.8733,-4.1799,-5.3764,-5.659,-5.6582,-5.6582,-5.6582,-5.6582,-5.6582,-5.6621,-5.6504,-5.658,-5.675,-5.7472,-5.9056,-5.9187,-5.918,-5.918,-5.918,-5.9272,-5.9298,-6.024,-6.5206,-7.5257,-7.6033,-7.6055,-7.6055,-7.6055,-7.6055,-7.6055,-7.6055,-7.6055,-7.6055,-7.6055,-7.6055,-7.6055,-7.6055,-7.6055,-7.6055,-7.6055,-7.6055,-0.0,-0.0,-0.0,-0.0,-0.4476,0.0,-1.6608,-1.7914,-1.786,0.0,0.0,0.0,0.0,0.0,0.0,0.0,0.0,0.0,0.0,0.0,0.0,0.0,0.0,0.0,0.0,-1.8762,-1.8762,-1.8762,-1.8762,-1.8762,-1.8762,-1.8762,-1.8762,-1.8762,-1.8762,-1.8762,-1.8762,-1.8762,-1.8762,-1.8762,-1.8762,-1.8762,-1.8994,-2.141,-2.851,-3.8718,-3.8718,-3.8718,-3.8718,-3.8718,-3.8718,-3.8718,-3.8718,-3.8718,-3.8718,-3.8718,-3.8718,-3.8718,-3.8718,-3.8718,-3.8718,-3.8718,-3.8718,-3.8718,-3.8718,-3.8718,-3.8718,-3.8718,-3.8718,-3.8718,-3.8718,-3.8733,-4.1799,-5.3764,-5.659,-5.6582,-5.6582,-5.6582,-5.6582,-5.6582,-5.6582,-5.6561,-5.6619,-5.7832,-5.8736,-5.9134,-5.9187,-5.918,-5.918,-5.918,-5.9272,-5.9298,-6.7452,-7.3783,-7.5936,-7.6033,-7.6055,-7.6055,-7.6055,-7.6055,-7.6055,-7.6055,-7.6055,-7.6055,-7.6055,-7.6055,-7.6055,-7.6055,-7.6055,-7.6055,-7.6055,-7.6055,-0.0,-0.0,-0.0,-0.0,-0.2239,0.0,0.0,-1.7948,-1.7894,0.0,0.0,0.0,0.0,0.0,0.0,0.0,0.0,0.0,0.0,0.0,0.0,0.0,0.0,0.0,0.0,-1.8762,-1.8762,-1.8762,-1.8762,-1.8762,-1.8762,-1.8762,-1.8762,-1.8762,-1.8762,-1.8762,-1.8762,-1.8762,-1.8762,-1.8762,-1.8762,-1.8762,-1.8762,-1.883,-2.6127,-3.8718,-3.8618,-3.8618,-3.8718,-3.8718,-3.8718,-3.8718,-3.8718,-3.8718,-3.8718,-3.8718,-3.8718,-3.8718,-3.8718,-3.8718,-3.8718,-3.8718,-3.8718,-3.8718,-3.8718,-3.8718,-3.8718,-3.8718,-3.8718,-3.8664,-3.8667,-3.8796,-4.1725,-5.3842,-5.6596,-5.6582,-5.6582,-5.6582,-5.664,-5.6582,-5.6638,-5.6929,-5.7795,-5.8662,-5.9193,-5.9148,-5.9101,-5.918,-5.918,-5.918,-5.9154,-5.9129,-6.9321,-7.6174,-7.613,-7.6132,-7.6055,-7.6055,-7.6055,-7.6055,-7.6055,-7.6055,-7.6055,-7.6055,-7.6055,-7.6055,-7.6055,-7.6055,-7.6055,-7.6055,-7.6055,-7.6055,-0.0,-0.0,-0.0,-0.0,-0.0,-0.2904,0.0,0.0,0.0,0.0,0.0,0.0,0.0,0.0,0.0,0.0,0.0,0.0,0.0,0.0,0.0,0.0,0.0,0.0,0.0,-1.8762,-1.8762,-1.8762,-1.8762,-1.8762,-1.8762,-1.8762,-1.8762,-1.8762,-1.8762,-1.8762,-1.8762,-1.8762,-1.8762,-1.8762,-1.8762,-1.8762,-1.8762,-1.8884,-2.4701,-3.5096,-3.7659,-3.8685,-3.8718,-3.8718,-3.8718,-3.8718,-3.8718,-3.8718,-3.8718,-3.8718,-3.8718,-3.8718,-3.8718,-3.8718,-3.8718,-3.8718,-3.8718,-3.8718,-3.8718,-3.8718,-3.8718,-3.8718,-3.8718,-3.8624,-3.8641,-4.0433,-4.4536,-5.4244,-5.66,-5.6582,-5.6582,-5.6582,-5.668,-5.6561,-5.6948,-5.7555,-5.8881,-5.9237,-5.9109,-5.914,-5.918,-5.918,-5.918,-5.9285,-5.9239,-5.9161,-6.9311,-7.6173,-7.6007,-7.6055,-7.6055,-7.6055,-7.6055,-7.6055,-7.6055,-7.6055,-7.6055,-7.6055,-7.6055,-7.6055,-7.6055,-7.6055,-7.6055,-7.6055,-7.6055,-7.6055,-0.0,-0.0,-0.0,-0.0,-0.0,-0.1788,-0.8491,0.0,-1.8124,-1.8077,0.0,0.0,0.0,0.0,0.0,0.0,0.0,0.0,0.0,0.0,0.0,0.0,0.0,0.0,0.0,0.0,-1.8762,-1.8762,-1.8762,-1.8762,-1.8762,-1.8762,-1.8762,-1.8762,-1.8762,-1.8762,-1.8762,-1.8762,-1.8762,-1.8762,-1.8762,-1.8762,-1.8762,-1.8782,-1.9979,-2.2378,-3.3827,-3.8758,-3.8718,-3.8718,-3.8718,-3.8718,-3.8718,-3.8718,-3.8718,-3.8718,-3.8718,-3.8718,-3.8718,-3.8718,-3.8718,-3.8718,-3.8718,-3.8718,-3.8718,-3.8718,-3.8718,-3.8718,-3.8718,-3.8624,-3.8641,-4.6543,-5.4968,-5.6249,-5.66,-5.6582,-5.6582,-5.6582,-5.668,-5.6561,-5.7854,-5.8881,-5.9237,-5.9148,-5.914,-5.918,-5.918,-5.918,-5.918,-5.9158,-5.9194,-5.9291,-6.9341,-7.6048,-7.6155,-7.6055,-7.6055,-7.6055,-7.6055,-7.6055,-7.6055,-7.6055,-7.6055,-7.6055,-7.6055,-7.6055,-7.6055,-7.6055,-7.6055,-7.6055,-7.6055,-7.6055,-0.0,-0.0,-0.0,-0.0,-0.0,-0.1579,-0.7879,-1.3844,-1.8321,-1.8233,0.0,0.0,0.0,0.0,0.0,0.0,-1.849,0.0,0.0,0.0,0.0,0.0,0.0,0.0,0.0,0.0,0.0,0.0,0.0,-1.8762,-1.8762,-1.8762,-1.8762,-1.8762,-1.8762,-1.8762,-1.8762,-1.8762,-1.8762,-1.8762,-1.8762,-1.8762,-1.8762,-1.885,-1.885,-1.9958,-3.2942,-3.8618,-3.8718,-3.8718,-3.8718,-3.8718,-3.8718,-3.8718,-3.8718,-3.8718,-3.8718,-3.8718,-3.8718,-3.8718,-3.8718,-3.8718,-3.8718,-3.8718,-3.8718,-3.8718,-3.8718,-3.8718,-3.8718,-3.8788,-3.8769,-4.7568,-5.66,-5.6538,-5.6563,-5.6582,-5.6582,-5.6524,-5.6522,-5.6634,-5.7969,-5.9237,-5.9148,-5.9101,-5.918,-5.918,-5.918,-5.918,-5.918,-5.9279,-6.1706,-6.8378,-7.3346,-7.6127,-7.613,-7.6055,-7.6055,-7.6055,-7.6055,-7.6055,-7.6055,-7.6055,-7.6055,-7.6055,-7.6055,-7.6055,-7.6055,-7.6055,-7.6055,-7.6055,-7.6055,-7.6055,-0.0,-0.0,-0.0,-0.0,-0.0,-0.1139,-0.5679,-1.283,-1.8498,-1.8409,-1.8498,0.0,0.0,0.0,-1.8749,-1.8708,0.0,-1.8265,0.0,0.0,0.0,0.0,0.0,0.0,0.0,0.0,0.0,0.0,-1.8762,-1.8762,-1.8762,-1.8762,-1.8762,-1.8762,-1.8762,-1.8762,-1.8762,-1.8762,-1.8762,-1.8762,-1.8762,-1.8762,-1.8762,-1.8884,-1.8864,-1.9479,-3.2965,-3.8645,-3.8718,-3.8718,-3.8718,-3.8718,-3.8718,-3.8718,-3.8718,-3.8718,-3.8718,-3.8718,-3.8718,-3.8718,-3.8718,-3.8718,-3.8718,-3.8718,-3.8718,-3.8718,-3.8718,-3.8718,-3.8718,-3.8761,-3.872,-4.7643,-5.6562,-5.666,-5.6582,-5.6582,-5.6582,-5.6621,-5.6755,-5.722,-5.8223,-5.9233,-5.914,-5.918,-5.918,-5.918,-5.918,-5.918,-5.918,-5.912,-6.3462,-7.4901,-7.605,-7.6031,-7.6105,-7.6055,-7.6055,-7.6055,-7.6055,-7.6055,-7.6055,-7.6055,-7.6055,-7.6055,-7.6055,-7.6055,-7.6055,-7.6055,-7.6055,-7.6055,-7.6055,-7.6055,-0.0,-0.0,-0.0,-0.0,-0.0,-0.0,-0.0229,-0.9927,-1.866,-1.8599,-1.8674,-1.8762,-1.8762,-1.8762,-1.8708,-1.8802,-1.8891,0.0,0.0,0.0,0.0,0.0,0.0,0.0,0.0,0.0,0.0,-1.8762,-1.8762,-1.8762,-1.8762,-1.8762,-1.8762,-1.8762,-1.8762,-1.8762,-1.8762,-1.8762,-1.8762,-1.8762,-1.8762,-1.8762,-1.8762,-1.8762,-1.8762,-1.9479,-3.2793,-3.8718,-3.8718,-3.8718,-3.8718,-3.8718,-3.8718,-3.8718,-3.8718,-3.8718,-3.8718,-3.8718,-3.8718,-3.8718,-3.8718,-3.8718,-3.8718,-3.8718,-3.8718,-3.8718,-3.8718,-3.8718,-3.8718,-3.8761,-3.872,-4.7643,-5.6562,-5.666,-5.6582,-5.6582,-5.6582,-5.6621,-5.7068,-5.8704,-5.9099,-5.9233,-5.914,-5.918,-5.918,-5.918,-5.918,-5.918,-5.918,-5.9235,-6.3629,-7.4829,-7.6048,-7.608,-7.6055,-7.6055,-7.6055,-7.6055,-7.6055,-7.6055,-7.6055,-7.6055,-7.6055,-7.6055,-7.6055,-7.6055,-7.6055,-7.6055,-7.6055,-7.6055,-7.6055,-7.6055,0.0,0.0,-0.0,-0.0,0.0,-0.0,-0.0,-0.6501,-1.3809,-1.7807,-1.8762,-1.8762,-1.8762,-1.8762,-1.8749,-1.8694,-1.8728,-1.8749,0.0,0.0,0.0,0.0,0.0,0.0,0.0,0.0,0.0,-1.8762,-1.8762,-1.8762,0.0,-1.8762,-1.8762,-1.8762,-1.8762,-1.8762,-1.8762,-1.8762,-1.8762,-1.8762,-1.8762,-1.8762,-1.8762,-1.8762,-1.8816,-1.9627,-3.285,-3.8592,-3.8751,-3.8784,-3.8718,-3.8718,-3.8718,-3.8718,-3.8718,-3.8718,-3.8718,-3.8718,-3.8718,-3.8718,-3.8718,-3.8718,-3.8718,-3.8718,-3.8718,-3.8718,-3.8718,-3.8718,-3.8735,-3.86,-3.8665,-4.7601,-5.6487,-5.6563,-5.6582,-5.6582,-5.6582,-5.6561,-5.7104,-5.8763,-5.9276,-5.9285,-5.918,-5.918,-5.918,-5.918,-5.918,-5.918,-5.918,-5.9214,-6.3607,-7.4829,-7.6023,-7.6055,-7.6055,-7.6055,-7.6055,-7.6055,-7.6055,-7.6055,-7.6055,-7.6055,-7.6055,-7.6055,-7.6055,-7.6055,-7.6055,-7.6055,-7.6055,-7.6055,-7.6055,-7.6055,-0.0,-0.0,0.0,-0.0,-0.0,0.0,-0.0,-0.3038,-0.8444,-1.6963,-1.883,-1.8796,-1.8816,-1.8782,-1.8762,-1.8782,-1.8782,-1.8762,0.0,-1.8762,0.0,0.0,0.0,0.0,0.0,0.0,-1.8762,-1.8762,-1.8762,-1.8762,0.0,0.0,-1.8762,-1.8762,-1.8762,-1.8762,-1.8762,-1.8762,-1.8762,-1.8762,-1.8762,-1.8762,-1.8762,-1.8762,-1.8816,-1.9365,-2.8066,-3.4423,-3.8711,-3.8784,-3.8718,-3.8718,-3.8718,-3.8718,-3.8718,-3.8718,-3.8718,-3.8718,-3.8718,-3.8718,-3.8718,-3.8718,-3.8718,-3.8718,-3.8718,-3.8718,-3.8758,-3.8711,-3.8761,-3.9697,-4.3866,-5.0907,-5.6692,-5.6504,-5.6582,-5.6621,-5.6504,-5.6519,-5.7059,-5.8941,-5.9233,-5.918,-5.918,-5.918,-5.918,-5.918,-5.918,-5.9285,-5.9193,-5.9229,-6.3478,-7.4978,-7.6028,-7.6055,-7.6055,-7.6055,-7.6055,-7.6055,-7.6055,-7.6055,-7.6055,-7.6055,-7.6105,-7.6032,-7.6105,-7.6105,-7.6032,-7.6105,-7.6055,-7.6055,-7.6055,-7.6055]},{"header":{"parameterUnit":"m.s-1","parameterCategory":1,"la1":30.6,"la2":29.2853,"lo1":-89.7004,"lo2":-87.6739,"dy":0.0162,"dx":0.0183,"nx":112,"ny":82,"refTime":"2023-02-27T06:00:00:Z","depth":0,"parameterNumber":3,"parameterNumberName":"V-component_of_WINDS"},"data":[0.0,0.0,0.0,0.0,0.0,0.0,0.0,0.0,0.0,0.0,0.0,0.0,0.0,0.0,0.0,0.0,0.0,0.0,0.0,0.0,0.0,0.0,0.0,0.0,0.0,0.0,0.0,0.0,0.0,0.0,0.0,0.0,0.0,0.0,0.0,0.0,0.0,0.0,0.0,0.0,0.0,0.0,0.0,0.0,0.0,0.0,0.0,0.0,0.0,0.0,0.0,0.0,0.0,0.0,0.0,0.0,0.0,0.0,0.0,0.0,0.0,0.0,0.0,0.0,0.0,0.0,0.0,0.0,0.0,0.0,0.0,0.0,0.0,0.0,0.0,0.0,0.0,0.0,0.0,0.0,0.0,0.0,0.0,0.0,0.0,0.0,0.0,0.0,0.0,0.0,-8.2769,-8.2769,-8.2769,-8.2769,-8.2769,-8.2769,-8.2769,-8.2769,0.0,0.0,0.0,0.0,0.0,0.0,0.0,0.0,0.0,0.0,0.0,0.0,0.0,0.0,0.0,0.0,0.0,0.0,0.0,0.0,0.0,0.0,0.0,0.0,0.0,0.0,0.0,0.0,0.0,0.0,0.0,0.0,0.0,0.0,0.0,0.0,0.0,0.0,0.0,0.0,0.0,0.0,0.0,0.0,0.0,0.0,0.0,0.0,0.0,0.0,0.0,0.0,0.0,0.0,0.0,0.0,0.0,0.0,0.0,0.0,0.0,0.0,0.0,0.0,0.0,0.0,0.0,0.0,0.0,0.0,0.0,0.0,0.0,0.0,0.0,0.0,0.0,0.0,0.0,0.0,0.0,0.0,0.0,0.0,0.0,0.0,0.0,0.0,0.0,0.0,0.0,0.0,0.0,0.0,0.0,0.0,0.0,0.0,0.0,0.0,0.0,0.0,0.0,0.0,-8.2769,-8.2769,-8.2769,-8.2769,-8.2769,-8.2769,-8.2769,-8.2769,0.0,0.0,0.0,0.0,0.0,0.0,0.0,0.0,0.0,0.0,0.0,0.0,0.0,0.0,0.0,0.0,0.0,0.0,0.0,0.0,0.0,0.0,0.0,0.0,0.0,0.0,0.0,0.0,0.0,0.0,0.0,0.0,0.0,0.0,0.0,0.0,0.0,0.0,0.0,0.0,0.0,0.0,0.0,0.0,0.0,0.0,0.0,0.0,0.0,0.0,0.0,0.0,0.0,0.0,0.0,0.0,0.0,0.0,0.0,0.0,0.0,0.0,0.0,0.0,0.0,0.0,0.0,0.0,0.0,0.0,0.0,0.0,0.0,0.0,0.0,0.0,0.0,0.0,0.0,0.0,0.0,0.0,0.0,0.0,0.0,0.0,0.0,0.0,0.0,0.0,0.0,0.0,0.0,0.0,0.0,0.0,0.0,0.0,0.0,0.0,0.0,0.0,0.0,-8.2769,-8.2769,-8.2769,-8.2769,-8.2769,-8.2769,-8.2769,-8.2769,-8.2769,-8.2769,0.0,0.0,0.0,0.0,0.0,0.0,0.0,0.0,0.0,0.0,0.0,0.0,0.0,0.0,0.0,0.0,0.0,0.0,0.0,0.0,0.0,0.0,0.0,0.0,0.0,0.0,0.0,0.0,0.0,0.0,0.0,0.0,0.0,0.0,0.0,0.0,0.0,0.0,0.0,0.0,0.0,0.0,0.0,0.0,0.0,0.0,0.0,0.0,0.0,0.0,0.0,0.0,0.0,0.0,0.0,0.0,0.0,0.0,0.0,0.0,0.0,0.0,0.0,0.0,0.0,0.0,0.0,0.0,0.0,0.0,0.0,0.0,0.0,0.0,0.0,0.0,0.0,0.0,0.0,0.0,0.0,0.0,0.0,0.0,0.0,0.0,0.0,0.0,0.0,0.0,0.0,0.0,0.0,0.0,0.0,0.0,0.0,0.0,0.0,0.0,0.0,0.0,-8.2769,-8.2769,-8.2769,-8.2769,-8.2769,-8.2769,-8.2769,-8.2769,-8.2769,-8.2769,0.0,0.0,0.0,0.0,0.0,0.0,0.0,0.0,0.0,0.0,0.0,0.0,0.0,0.0,0.0,0.0,0.0,0.0,0.0,0.0,0.0,0.0,0.0,0.0,0.0,0.0,0.0,0.0,0.0,0.0,0.0,0.0,0.0,0.0,0.0,0.0,0.0,0.0,0.0,0.0,0.0,0.0,0.0,0.0,0.0,0.0,0.0,0.0,0.0,0.0,0.0,0.0,0.0,0.0,0.0,0.0,0.0,0.0,0.0,0.0,0.0,0.0,0.0,0.0,0.0,0.0,0.0,0.0,0.0,0.0,0.0,0.0,0.0,0.0,0.0,0.0,0.0,0.0,0.0,0.0,0.0,0.0,0.0,0.0,0.0,0.0,0.0,0.0,0.0,0.0,0.0,0.0,0.0,0.0,0.0,0.0,0.0,0.0,0.0,0.0,0.0,0.0,-8.2769,-8.2769,-8.2769,-8.2769,-8.2769,-8.2769,-8.2769,-8.2769,-8.2769,-8.2769,0.0,0.0,0.0,0.0,0.0,0.0,0.0,0.0,0.0,0.0,0.0,0.0,0.0,0.0,0.0,0.0,0.0,0.0,0.0,0.0,0.0,0.0,0.0,0.0,0.0,0.0,0.0,0.0,0.0,0.0,0.0,0.0,0.0,0.0,0.0,0.0,0.0,0.0,0.0,0.0,0.0,0.0,0.0,0.0,0.0,0.0,0.0,0.0,0.0,0.0,0.0,0.0,0.0,0.0,0.0,0.0,0.0,0.0,0.0,0.0,0.0,0.0,0.0,0.0,0.0,0.0,0.0,0.0,0.0,0.0,0.0,0.0,0.0,0.0,0.0,0.0,0.0,0.0,0.0,0.0,0.0,0.0,0.0,0.0,0.0,0.0,0.0,0.0,0.0,0.0,0.0,0.0,0.0,0.0,0.0,0.0,0.0,0.0,0.0,0.0,0.0,0.0,-8.2769,-8.2769,-8.2769,-8.2769,-8.2769,-8.2769,-8.2769,-8.2769,-8.2769,0.0,0.0,0.0,0.0,0.0,0.0,0.0,0.0,0.0,0.0,0.0,0.0,0.0,0.0,0.0,0.0,0.0,0.0,0.0,0.0,0.0,0.0,0.0,0.0,0.0,0.0,0.0,0.0,0.0,0.0,0.0,0.0,0.0,0.0,0.0,0.0,0.0,0.0,0.0,0.0,0.0,0.0,0.0,0.0,0.0,0.0,0.0,0.0,0.0,0.0,0.0,0.0,0.0,0.0,0.0,0.0,0.0,0.0,0.0,0.0,0.0,0.0,0.0,0.0,0.0,0.0,0.0,0.0,0.0,0.0,0.0,0.0,0.0,0.0,0.0,0.0,0.0,0.0,0.0,0.0,0.0,0.0,0.0,0.0,0.0,0.0,0.0,0.0,0.0,0.0,0.0,0.0,0.0,0.0,0.0,0.0,0.0,0.0,0.0,0.0,0.0,0.0,-8.3367,-8.3367,-8.3367,-8.3367,-8.3367,-8.3367,-8.3367,-8.3367,-8.3367,-8.3367,0.0,0.0,0.0,0.0,0.0,0.0,0.0,0.0,0.0,0.0,0.0,0.0,0.0,0.0,0.0,0.0,0.0,0.0,0.0,0.0,0.0,0.0,0.0,0.0,0.0,0.0,0.0,0.0,0.0,0.0,0.0,0.0,0.0,0.0,0.0,0.0,0.0,0.0,0.0,0.0,0.0,0.0,0.0,0.0,0.0,0.0,0.0,0.0,0.0,0.0,0.0,0.0,0.0,0.0,0.0,0.0,0.0,0.0,0.0,0.0,0.0,0.0,0.0,0.0,0.0,0.0,0.0,0.0,0.0,0.0,0.0,0.0,0.0,0.0,0.0,0.0,0.0,0.0,0.0,0.0,0.0,0.0,0.0,0.0,0.0,0.0,0.0,0.0,0.0,0.0,0.0,0.0,0.0,0.0,0.0,0.0,0.0,0.0,0.0,0.0,0.0,0.0,-8.4714,-8.4714,-8.4714,-8.4714,-8.4714,-8.4714,-8.4714,-8.4714,-8.4714,0.0,0.0,0.0,0.0,0.0,0.0,0.0,0.0,0.0,0.0,0.0,0.0,0.0,0.0,0.0,0.0,0.0,0.0,0.0,0.0,0.0,0.0,0.0,0.0,0.0,0.0,0.0,0.0,0.0,0.0,0.0,0.0,0.0,0.0,0.0,0.0,0.0,0.0,0.0,0.0,0.0,0.0,0.0,0.0,0.0,0.0,0.0,0.0,0.0,0.0,0.0,0.0,0.0,0.0,0.0,0.0,0.0,0.0,0.0,0.0,0.0,0.0,0.0,0.0,0.0,0.0,0.0,0.0,0.0,0.0,0.0,0.0,0.0,0.0,0.0,0.0,0.0,0.0,0.0,0.0,0.0,0.0,0.0,0.0,0.0,0.0,0.0,0.0,0.0,0.0,0.0,0.0,0.0,0.0,0.0,0.0,0.0,0.0,0.0,0.0,0.0,0.0,0.0,-8.4714,-8.4714,-8.4714,-8.4714,-8.4714,-8.4714,-8.4714,-8.4714,-8.4714,-8.4714,0.0,0.0,0.0,0.0,0.0,0.0,0.0,0.0,0.0,0.0,0.0,0.0,0.0,0.0,0.0,0.0,0.0,0.0,0.0,0.0,0.0,0.0,0.0,0.0,0.0,0.0,0.0,0.0,0.0,0.0,0.0,0.0,0.0,0.0,0.0,0.0,0.0,0.0,0.0,0.0,0.0,0.0,0.0,0.0,0.0,0.0,0.0,0.0,0.0,0.0,0.0,0.0,0.0,0.0,0.0,0.0,0.0,0.0,0.0,0.0,0.0,0.0,0.0,0.0,0.0,0.0,0.0,0.0,0.0,0.0,0.0,0.0,0.0,0.0,0.0,0.0,0.0,0.0,0.0,0.0,0.0,0.0,0.0,0.0,0.0,0.0,0.0,0.0,0.0,0.0,0.0,0.0,0.0,0.0,0.0,0.0,0.0,0.0,0.0,0.0,0.0,0.0,-8.6609,-8.7338,-8.7758,-8.7758,-8.7758,-8.7489,-8.6609,-8.6609,-8.6332,-8.5492,0.0,0.0,0.0,0.0,0.0,0.0,0.0,0.0,0.0,0.0,0.0,0.0,0.0,0.0,0.0,0.0,0.0,0.0,0.0,0.0,0.0,0.0,0.0,0.0,0.0,0.0,0.0,0.0,0.0,0.0,0.0,0.0,0.0,0.0,0.0,0.0,0.0,0.0,0.0,0.0,0.0,0.0,0.0,0.0,0.0,0.0,0.0,0.0,0.0,0.0,0.0,0.0,0.0,0.0,0.0,0.0,0.0,0.0,0.0,0.0,0.0,0.0,0.0,0.0,0.0,0.0,0.0,0.0,0.0,0.0,0.0,0.0,0.0,0.0,0.0,0.0,0.0,0.0,0.0,0.0,0.0,0.0,0.0,0.0,0.0,0.0,0.0,0.0,0.0,0.0,0.0,0.0,0.0,0.0,0.0,0.0,0.0,0.0,0.0,0.0,0.0,0.0,-8.95,-9.1235,-9.241,-9.241,-9.241,-9.1667,-8.9948,-8.9799,-8.8959,-8.7103,0.0,0.0,0.0,0.0,0.0,0.0,0.0,0.0,0.0,0.0,0.0,0.0,0.0,0.0,0.0,0.0,0.0,0.0,0.0,0.0,0.0,0.0,0.0,0.0,0.0,0.0,0.0,0.0,0.0,0.0,0.0,0.0,0.0,0.0,0.0,0.0,0.0,0.0,0.0,0.0,0.0,0.0,0.0,0.0,0.0,0.0,0.0,0.0,0.0,0.0,0.0,0.0,0.0,0.0,0.0,0.0,0.0,0.0,0.0,0.0,-9.8158,-9.7158,0.0,0.0,0.0,0.0,0.0,0.0,0.0,0.0,0.0,0.0,0.0,0.0,0.0,0.0,0.0,0.0,0.0,0.0,0.0,0.0,0.0,0.0,0.0,0.0,0.0,0.0,0.0,0.0,0.0,0.0,0.0,0.0,0.0,0.0,0.0,0.0,0.0,0.0,0.0,0.0,-8.95,-9.1235,-9.241,-9.241,-9.241,-9.2269,-9.181,-9.181,-9.0977,-8.9079,-8.8959,0.0,0.0,0.0,0.0,0.0,0.0,0.0,0.0,0.0,0.0,0.0,0.0,0.0,0.0,0.0,0.0,0.0,0.0,0.0,0.0,0.0,0.0,0.0,0.0,0.0,0.0,0.0,0.0,0.0,0.0,0.0,0.0,0.0,0.0,0.0,0.0,0.0,0.0,0.0,0.0,0.0,0.0,0.0,0.0,0.0,0.0,0.0,0.0,0.0,0.0,0.0,0.0,0.0,0.0,0.0,0.0,0.0,0.0,0.0,-9.9977,-9.9098,0.0,0.0,0.0,0.0,0.0,0.0,0.0,0.0,0.0,0.0,0.0,0.0,0.0,0.0,0.0,0.0,0.0,0.0,0.0,0.0,0.0,0.0,0.0,0.0,0.0,0.0,0.0,0.0,0.0,0.0,0.0,0.0,0.0,0.0,0.0,0.0,0.0,0.0,0.0,0.0,-9.2205,-9.3904,-9.5078,-9.5078,-9.5078,-9.4779,-9.38,-9.38,-9.2519,-8.965,-8.95,0.0,0.0,0.0,0.0,0.0,0.0,0.0,0.0,0.0,0.0,0.0,0.0,0.0,0.0,0.0,0.0,0.0,0.0,0.0,0.0,0.0,0.0,0.0,0.0,0.0,0.0,0.0,0.0,0.0,0.0,0.0,0.0,0.0,0.0,0.0,0.0,0.0,0.0,0.0,0.0,0.0,0.0,0.0,0.0,0.0,0.0,0.0,0.0,0.0,0.0,0.0,0.0,0.0,-10.12,-10.1494,-10.1494,-10.1494,-10.1494,-10.1494,-10.1604,-10.1002,-9.9801,-9.9731,0.0,0.0,0.0,0.0,0.0,0.0,0.0,0.0,0.0,0.0,0.0,0.0,0.0,0.0,0.0,0.0,0.0,0.0,0.0,0.0,0.0,0.0,-9.8003,-9.8003,-9.8003,-9.8003,-9.8003,0.0,0.0,0.0,0.0,0.0,0.0,0.0,0.0,0.0,0.0,0.0,-9.5178,-9.6866,-9.8003,-9.8003,-9.8003,-9.7312,-9.5867,-9.5736,-9.4176,-9.0653,-9.0244,-8.9079,0.0,0.0,0.0,0.0,0.0,0.0,0.0,0.0,0.0,0.0,0.0,0.0,0.0,0.0,0.0,0.0,0.0,0.0,0.0,0.0,0.0,0.0,0.0,0.0,0.0,0.0,0.0,0.0,0.0,0.0,0.0,0.0,-9.6557,-9.725,0.0,0.0,0.0,0.0,0.0,0.0,0.0,0.0,0.0,0.0,0.0,0.0,0.0,-9.8557,-9.9952,-10.0209,-10.0686,-10.131,-10.1384,-10.1494,-10.1494,-10.1494,-10.1494,-10.1494,-10.2191,0.0,-10.1213,-10.0702,0.0,0.0,0.0,0.0,0.0,0.0,0.0,0.0,0.0,0.0,0.0,0.0,0.0,0.0,0.0,0.0,0.0,0.0,0.0,0.0,0.0,0.0,-9.8003,-9.8003,-9.8003,-9.8003,-9.8003,-9.8003,-9.7879,-9.7721,-9.645,-9.59,0.0,0.0,0.0,0.0,0.0,0.0,-9.5178,-9.6866,-9.8003,-9.8003,-9.8003,-9.7879,-9.7597,-9.7597,-9.6739,-9.4612,-9.2939,-9.1091,-8.923,-8.7823,0.0,0.0,0.0,0.0,0.0,0.0,0.0,0.0,0.0,0.0,0.0,0.0,0.0,0.0,0.0,0.0,0.0,0.0,0.0,0.0,0.0,0.0,0.0,0.0,0.0,0.0,0.0,0.0,0.0,-9.6673,-9.7096,-9.7442,-9.8365,-9.8814,0.0,0.0,0.0,0.0,0.0,0.0,0.0,0.0,0.0,-9.8557,-9.8998,-9.9585,-10.0283,-10.0686,-10.12,-10.1494,-10.1494,-10.1494,-10.1494,-10.2008,-10.2191,-10.2191,-10.2999,-10.3182,-10.2815,-10.2609,-10.233,-10.2003,0.0,0.0,0.0,0.0,-10.1188,-10.1747,-10.2101,-10.1787,-10.1108,-10.0439,0.0,0.0,0.0,0.0,0.0,0.0,0.0,-9.8003,-9.8003,-9.8003,-9.8003,-9.8003,-9.8003,-9.8003,-9.8003,-9.8003,-9.8003,-9.8003,-9.7312,-9.7027,-9.7879,-9.6612,0.0,0.0,0.0,-9.6739,-9.6739,-9.7438,-9.8003,-9.8003,-9.8003,-9.8003,-9.8003,-9.8003,-9.7153,-9.531,-9.4478,-9.266,-8.965,-8.8655,-8.7823,0.0,0.0,0.0,0.0,0.0,0.0,0.0,0.0,0.0,0.0,0.0,0.0,0.0,0.0,0.0,0.0,0.0,0.0,0.0,0.0,0.0,0.0,0.0,0.0,0.0,0.0,0.0,0.0,-9.7134,-9.7673,-9.8096,-9.9133,-9.9572,0.0,0.0,0.0,0.0,0.0,0.0,-9.786,-9.808,-9.8594,-9.9402,-9.9989,-10.0393,-10.0613,-10.12,-10.1494,-10.1494,-10.1677,-10.1788,-10.1788,-10.2595,-10.2999,-10.3109,-10.388,-10.421,-10.421,-10.421,-10.3997,-10.3638,-10.3452,-10.3377,-10.3187,-10.2923,-10.3059,-10.3258,-10.3258,-10.2988,-10.2619,-10.1539,-10.0925,-10.0439,-9.8958,0.0,0.0,0.0,0.0,-9.8003,-9.8003,-9.8003,-9.8003,-9.8003,-9.8003,-9.8003,-9.8003,-9.8003,-9.8003,-9.8003,-9.8003,-9.8003,-9.8003,-9.8003,0.0,-9.8003,-9.8003,-9.8003,-9.8003,-9.8003,-9.8003,-9.8003,-9.8003,-9.8003,-9.8003,-9.8003,-9.7438,-9.603,-9.5475,-9.3904,-9.1059,-9.0065,-8.8807,-8.7386,0.0,0.0,0.0,0.0,0.0,0.0,0.0,0.0,0.0,0.0,0.0,0.0,0.0,0.0,0.0,0.0,0.0,0.0,0.0,0.0,0.0,0.0,0.0,0.0,0.0,0.0,0.0,0.0,0.0,-9.975,-9.9376,0.0,0.0,0.0,0.0,-9.6801,-9.7383,-9.786,-9.7897,-9.8631,-9.9402,-10.0209,-10.0283,-10.0686,-10.1384,-10.1494,-10.1494,-10.1494,-10.2301,-10.2595,-10.2705,-10.3513,-10.3806,-10.388,-10.4724,-10.5018,-10.5018,-10.5018,-10.4971,-10.4875,-10.44,-10.4981,-10.6047,-10.4706,-10.4981,-10.6206,-10.6206,-10.5324,-10.4203,-10.4072,-10.3258,-10.1858,-10.0404,-9.9986,0.0,0.0,-9.8003,-9.8003,-9.8003,-9.8003,-9.8003,-9.8003,-9.8003,-9.8003,-9.8003,-9.8003,-9.8003,-9.8003,-9.8003,-9.8003,-9.8003,0.0,-9.8003,-9.8003,-9.8003,-9.8003,-9.8003,-9.8003,-9.8003,-9.8003,-9.8003,-9.8003,-9.8003,-9.8003,-9.8003,-9.7879,-9.6159,-9.5178,-9.4879,-9.1492,-8.95,-8.9381,-8.7668,0.0,0.0,0.0,0.0,0.0,0.0,0.0,0.0,0.0,0.0,0.0,0.0,0.0,0.0,0.0,0.0,0.0,0.0,0.0,0.0,0.0,0.0,0.0,0.0,0.0,0.0,0.0,0.0,-9.9332,-9.9564,0.0,-9.8305,-9.7993,-9.7678,-9.7497,-9.775,-9.8337,-9.9402,-9.9732,-10.0209,-10.098,-10.109,-10.12,-10.1494,-10.1494,-10.1788,-10.2301,-10.2595,-10.2999,-10.3513,-10.432,-10.4687,-10.4724,-10.5605,-10.5899,-10.5899,-10.5899,-10.5899,-10.5935,-10.5728,-10.5997,-10.6254,-10.5838,-10.5997,-10.6376,-10.6376,-10.6084,-10.5538,-10.4614,-10.3321,-10.1928,-10.0482,-10.0704,-10.096,-9.8633,-9.8633,-9.9161,-9.8215,-9.8003,-9.8003,-9.8003,-9.8003,-9.8003,-9.8003,-9.8003,-9.8003,-9.8003,-9.8003,-9.8003,-9.8003,-9.8003,-9.8003,-9.8003,-9.8003,-9.8003,-9.8003,-9.8003,-9.8003,-9.8003,-9.8003,-9.8003,-9.8003,-9.8003,-9.8003,-9.8003,-9.7312,-9.645,-9.531,-9.28,-9.08,-8.95,-8.7668,-8.6689,0.0,0.0,0.0,0.0,0.0,0.0,0.0,0.0,0.0,0.0,0.0,0.0,0.0,0.0,0.0,0.0,0.0,0.0,0.0,0.0,0.0,0.0,0.0,0.0,0.0,0.0,-10.0017,-9.9753,-9.9793,-9.9346,-9.8279,-9.7955,-9.7801,-9.7901,-9.8374,-9.9181,-10.0209,-10.0576,-10.0907,-10.1494,-10.1494,-10.1494,-10.1494,-10.1788,-10.2191,-10.2705,-10.3293,-10.3806,-10.432,-10.5201,-10.5495,-10.5605,-10.6119,-10.6376,-10.6376,-10.6376,-10.6376,-10.6376,-10.6376,-10.6376,-10.6376,-10.6376,-10.6376,-10.6376,-10.6376,-10.6376,-10.6254,-10.5324,-10.4391,-10.3357,-10.1963,-10.1752,-10.1787,-9.9907,-9.9362,-9.9244,-9.8839,-9.8303,-9.8003,-9.8003,-9.8003,-9.8003,-9.8003,-9.8003,-9.8003,-9.8003,-9.8003,-9.8003,-9.8003,-9.8003,-9.8003,-9.8003,-9.8003,-9.8003,-9.8003,-9.8003,-9.8003,-9.8003,-9.8003,-9.8003,-9.8003,-9.8003,-9.8003,-9.8003,-9.8003,-9.7438,-9.6159,-9.38,-9.181,-9.0507,-8.7948,-8.6689,-8.6689,0.0,0.0,0.0,0.0,0.0,0.0,0.0,0.0,0.0,0.0,0.0,0.0,0.0,0.0,0.0,0.0,0.0,0.0,0.0,0.0,0.0,0.0,0.0,-10.0096,-10.0096,-10.0404,-10.1173,-9.9911,-9.9007,-9.9045,-9.8305,-9.7897,-9.797,-9.9402,-10.0283,-10.0319,-10.109,-10.1494,-10.1494,-10.1494,-10.1494,-10.1494,-10.2301,-10.2705,-10.2815,-10.4394,-10.5128,-10.5201,-10.6009,-10.6376,-10.6376,-10.6376,-10.6376,-10.6376,-10.6376,-10.6376,-10.6376,-10.6376,-10.6376,-10.6376,-10.6376,-10.6376,-10.6376,-10.6376,-10.6376,-10.6376,-10.6376,-10.6376,-10.6133,-10.4706,-10.3393,-10.2311,-10.2172,-10.0179,-9.8425,-9.9792,-9.9042,-9.8003,-9.8003,-9.8003,-9.8003,-9.8003,-9.8003,-9.8003,-9.8003,-9.8003,-9.8003,-9.8003,-9.8003,-9.8003,-9.8003,-9.8003,0.0,-9.8003,-9.8003,-9.8003,-9.8003,-9.8003,-9.8003,-9.8003,-9.8003,-9.8003,-9.8003,-9.8003,-9.8003,-9.7879,-9.4343,-9.241,-9.2269,-8.8533,-8.6689,-8.6689,0.0,0.0,0.0,0.0,0.0,0.0,0.0,0.0,0.0,0.0,0.0,0.0,0.0,0.0,0.0,0.0,0.0,0.0,0.0,0.0,0.0,0.0,-10.0096,-10.0096,-10.0596,-10.0899,-10.0512,-9.96,-9.8998,-9.9049,-9.8355,-9.8374,-9.9548,-9.9989,-10.0576,-10.109,-10.1384,-10.1494,-10.1494,-10.1494,-10.1788,-10.2412,-10.2595,-10.3293,-10.443,-10.4908,-10.5422,-10.6082,-10.6302,-10.6376,-10.6376,-10.6376,-10.6376,-10.6376,-10.6376,-10.6376,-10.6376,-10.6376,-10.6376,-10.6376,-10.6376,-10.6376,-10.6376,-10.6376,-10.6376,-10.6376,-10.6376,-10.6376,-10.6133,-10.4706,-10.467,-10.4798,-10.2822,-10.1611,-10.0925,-10.0327,-9.9042,-9.8003,-9.8003,-9.8003,-9.8003,-9.8003,-9.8003,-9.8003,-9.8003,-9.8003,-9.8003,-9.8003,-9.8003,-9.8003,-9.8003,-9.8003,-9.8003,-9.8003,-9.8003,-9.8003,-9.8003,-9.8003,-9.8003,-9.8003,-9.8003,-9.8003,-9.8003,-9.8003,-9.7438,-9.603,-9.3663,-9.1122,-8.8256,-8.726,-8.6689,0.0,0.0,0.0,0.0,0.0,0.0,0.0,0.0,0.0,0.0,0.0,0.0,0.0,0.0,0.0,0.0,0.0,0.0,0.0,0.0,0.0,0.0,-10.0596,-10.0596,-10.0596,-10.1019,-10.1093,-10.0678,-9.9957,-9.9547,-9.9579,-9.9168,-9.9292,-10.0209,-10.0613,-10.098,-10.1494,-10.1494,-10.1494,-10.1494,-10.1788,-10.2191,-10.2705,-10.3403,-10.421,-10.5128,-10.5495,-10.5899,-10.6376,-10.6376,-10.6376,-10.6376,-10.6376,-10.6376,-10.6376,-10.6376,-10.6376,-10.6376,0.0,0.0,0.0,0.0,-10.6376,-10.6376,-10.6376,-10.6376,-10.6376,-10.6376,-10.6376,-10.6254,-10.5413,-10.5324,-10.5324,-10.4333,-10.3123,-10.1963,-10.1252,-9.9872,-9.8753,-9.8092,-9.8003,-9.8003,-9.8003,-9.8003,-9.8003,-9.8003,-9.8003,0.0,-9.8003,-9.8003,-9.8003,-9.8003,-9.8003,-9.8003,-9.8003,-9.8003,-9.8003,-9.8003,-9.8003,-9.8003,-9.8003,-9.8003,0.0,0.0,0.0,-9.6739,-9.4208,-9.2939,0.0,0.0,0.0,-8.6689,-8.6689,-8.6689,0.0,0.0,-8.6509,-8.6479,0.0,0.0,0.0,0.0,0.0,0.0,0.0,0.0,0.0,0.0,0.0,0.0,0.0,0.0,0.0,0.0,-10.1289,-10.1289,-10.1289,-10.1289,-10.1289,-10.1404,-10.0799,-10.0386,-10.0516,-10.0526,-10.0441,-10.0393,-10.109,-10.1494,-10.1494,-10.1494,0.0,0.0,0.0,-10.2815,-10.2999,-10.4394,-10.5128,-10.5311,-10.6009,-10.6376,-10.6376,-10.6376,-10.6376,-10.6376,-10.6376,-10.6376,-10.6376,-10.6376,-10.6376,-10.6376,-10.6376,-10.6376,-10.6376,-10.6376,-10.6376,-10.6376,-10.6376,0.0,0.0,-10.6376,-10.6376,-10.6376,-10.6376,-10.5538,-10.4835,-10.601,-10.4485,-10.2379,-10.224,-10.1178,-9.9792,-9.8303,-9.8003,-9.8003,-9.8003,-9.8003,-9.8003,-9.8003,-9.8003,-9.8003,-9.8003,-9.8003,-9.8003,-9.8003,-9.8003,-9.8003,-9.8003,-9.8003,-9.8003,-9.8003,-9.8003,0.0,-9.8003,-9.8003,-9.8003,-9.8003,-9.7845,-9.6192,-9.28,-9.2237,-9.0538,-8.7103,-8.6817,-8.6689,-8.6689,-8.6689,-8.6689,-8.6689,-8.6689,-8.6689,0.0,0.0,0.0,0.0,0.0,0.0,0.0,0.0,0.0,0.0,0.0,0.0,0.0,0.0,0.0,-10.1289,-10.1289,-10.1289,-10.1289,-10.1289,-10.1597,-10.2289,-10.1614,-10.1415,-10.2123,-10.1563,-10.1315,-10.1317,-10.1384,-10.1494,-10.1494,-10.1494,-10.1788,-10.2412,-10.2595,-10.3293,-10.4614,-10.4908,-10.5495,-10.6192,-10.6302,0.0,-10.6376,-10.6376,-10.6376,-10.6376,-10.6376,-10.6376,-10.6376,-10.6376,-10.6376,-10.6376,-10.6376,-10.6376,-10.6376,-10.6376,-10.6376,-10.6376,-10.6376,-10.6376,-10.6376,-10.6376,-10.6376,-10.6376,-10.6376,-10.6169,0.0,-10.6254,-10.5234,-10.3615,-10.2481,-10.1178,-9.9792,-9.8303,-9.8003,-9.8003,-9.8003,-9.8003,-9.8003,-9.8003,-9.8003,-9.8003,-9.8003,-9.8003,-9.8003,-9.8003,-9.8003,-9.8003,-9.8003,-9.8003,-9.8003,-9.8003,-9.8003,-9.8003,-9.8003,-9.8003,-9.8003,-9.8003,-9.6578,-9.5475,-9.4612,-9.1636,-8.965,-8.8928,-8.7542,-8.6689,-8.6689,-8.6689,-8.6689,-8.6689,-8.6689,-8.6689,0.0,0.0,0.0,0.0,0.0,0.0,0.0,0.0,0.0,0.0,0.0,-9.9711,0.0,0.0,-10.1289,-10.1289,-10.1289,-10.1289,-10.1289,-10.1712,-10.2097,-10.252,-10.2203,-10.2167,-10.2689,-10.2324,-10.187,-10.1501,-10.1494,-10.1494,-10.1494,-10.1898,-10.2301,-10.2705,-10.3513,-10.432,-10.5128,-10.5495,-10.6009,-10.6376,-10.6376,-10.6376,-10.6376,-10.6376,-10.6376,-10.6376,-10.6376,-10.6376,-10.6376,-10.6376,-10.6376,-10.6376,-10.6376,-10.6376,-10.6376,-10.6376,-10.6376,-10.6376,-10.6376,-10.6376,-10.6376,-10.6376,-10.6376,-10.6376,-10.6376,-10.6376,-10.6376,-10.6376,-10.5874,-10.4926,-10.265,-10.1681,-10.0593,-9.8546,-9.8003,-9.8003,-9.8003,-9.8003,-9.8003,-9.8003,-9.8003,-9.8003,-9.8003,-9.8003,-9.8003,-9.8003,-9.8003,-9.8003,-9.8003,-9.8003,-9.8003,-9.8003,-9.8003,-9.8003,-9.8003,-9.8003,-9.8003,-9.8003,-9.7153,-9.5736,-9.3936,-9.1953,-9.0096,-8.8102,-8.726,-8.6689,-8.6689,-8.6689,-8.6689,-8.6689,-8.6689,-8.6689,0.0,0.0,0.0,0.0,0.0,0.0,0.0,0.0,-9.8326,-9.8711,-9.9481,-10.0288,-10.1212,-10.1289,-10.1289,-10.1289,-10.1289,-10.1404,-10.152,-10.2212,-10.2712,-10.302,-10.3097,-10.3083,-10.2991,-10.298,-10.2496,-10.1574,-10.1494,-10.1567,-10.1677,-10.2301,-10.2815,-10.3219,-10.443,-10.5201,-10.5422,-10.6009,-10.6376,-10.6376,-10.6376,-10.6376,-10.6376,-10.6376,-10.6376,-10.6376,-10.6376,-10.6376,-10.6376,-10.6376,-10.6376,-10.6376,-10.6376,-10.6376,-10.6376,-10.6376,-10.6376,-10.6376,-10.6376,-10.6376,-10.6376,-10.6376,-10.6376,-10.6376,-10.6376,-10.6376,-10.6376,-10.6376,-10.6376,-10.5838,-10.3258,-10.2379,-10.1575,-9.9042,-9.8215,-9.8003,-9.8003,-9.8003,-9.8003,-9.8003,-9.8003,-9.8003,-9.8003,-9.8003,-9.8003,-9.8003,-9.8003,-9.8003,-9.8003,-9.8003,-9.8003,-9.8003,-9.8003,-9.8003,-9.8003,-9.8003,-9.8003,-9.8003,-9.8003,-9.645,-9.3078,-9.2551,-9.0831,-8.723,-8.6817,-8.6689,-8.6689,-8.6689,-8.6689,-8.6689,-8.6689,-8.6689,-9.7695,-9.7578,-9.7383,-9.7148,-9.7064,-9.6981,0.0,0.0,-9.8133,-9.8673,-9.9519,-10.0288,-10.1212,-10.1289,-10.1289,-10.1289,-10.1289,-10.1597,-10.2289,-10.252,-10.3212,-10.4597,-10.4826,-10.4614,-10.3882,-10.3927,-10.3193,-10.1581,-10.1494,-10.1788,-10.2522,-10.2705,-10.3403,-10.4798,-10.5018,-10.5495,-10.6192,-10.6376,-10.6376,-10.6376,-10.6376,-10.6376,-10.6376,-10.6376,-10.6376,-10.6376,-10.6376,-10.6376,-10.6376,-10.6376,-10.6376,-10.6376,-10.6376,-10.6376,-10.6376,-10.6376,-10.6376,-10.6376,-10.6376,-10.6376,-10.6376,-10.6376,-10.6376,-10.6376,-10.6376,-10.6376,-10.6376,-10.6376,-10.6376,-10.6047,-10.4521,-10.3088,-10.1752,-10.0179,-9.8958,-9.8003,-9.8003,-9.8003,-9.8003,-9.8003,-9.8003,-9.8003,-9.8003,-9.8003,-9.8003,-9.8003,-9.8003,-9.8003,-9.8003,-9.8003,-9.8003,-9.8003,-9.8003,-9.8003,-9.8003,-9.8003,-9.8003,-9.8003,-9.8003,-9.7027,-9.5045,-9.3249,-9.138,-8.923,-8.7542,-8.6689,-8.6689,-8.6689,-8.6689,-8.6689,-8.6689,-8.6689,-9.7695,-9.7656,-9.7567,-9.742,-9.732,-9.7281,-9.7437,-9.8089,-9.8826,-9.9442,-10.0211,-10.0904,-10.1212,-10.1289,-10.1289,0.0,-10.1289,-10.1597,-10.252,-10.302,-10.3789,-10.4982,-10.5482,-10.5388,-10.4071,-10.4025,-10.3327,-10.1581,-10.1494,-10.1898,-10.2705,-10.3109,-10.3917,-10.5128,-10.5605,-10.6009,-10.6376,-10.6376,-10.6376,-10.6376,-10.6376,-10.6376,-10.6376,-10.6376,-10.6376,-10.6376,-10.6376,-10.6376,-10.6376,-10.6376,-10.6376,-10.6376,-10.6376,-10.6376,-10.6376,-10.6376,-10.6376,-10.6376,-10.6376,-10.6376,-10.6376,-10.6376,-10.6376,-10.6376,-10.6376,-10.6376,-10.6376,-10.6376,-10.6376,-10.6084,-10.4743,-10.3294,-10.1823,-10.037,-9.9042,-9.8003,-9.8003,-9.8003,-9.8003,-9.8003,-9.8003,-9.8003,-9.8003,-9.8003,-9.8003,-9.8003,-9.8003,-9.8003,-9.8003,-9.8003,-9.8003,-9.8003,-9.8003,-9.8003,-9.8003,-9.8003,-9.8003,-9.8003,-9.8003,-9.6612,-9.3663,-9.2832,-9.0977,-8.7948,-8.7103,-8.6689,-8.6689,-8.6689,-8.6689,-8.6689,-8.6689,-8.6689,-9.7695,-9.7656,-9.7637,-9.7626,-9.7379,-9.7373,-9.8047,-9.8634,-9.9288,-9.9942,-10.0673,-10.1289,-10.1289,-10.1289,-10.1289,-10.1289,-10.152,-10.202,-10.2789,-10.3712,-10.4482,-10.5405,-10.602,-10.5901,-10.4534,-10.4108,-10.3393,-10.1862,-10.1801,-10.2191,-10.2999,-10.3806,-10.4614,-10.5422,-10.6082,-10.6376,-10.6376,-10.6376,-10.6376,-10.6376,-10.6376,-10.6376,-10.6376,-10.6376,-10.6376,-10.6376,-10.6376,-10.6376,-10.6376,-10.6376,-10.6376,-10.6376,-10.6376,-10.6376,-10.6376,-10.6376,-10.6376,-10.6376,-10.6376,-10.6376,-10.6376,-10.6376,-10.6376,-10.6376,-10.6376,-10.6376,-10.6376,-10.6376,-10.6376,-10.6206,-10.5108,-10.3844,-10.2481,-10.1467,-9.9907,-9.8512,-9.8512,-9.8337,-9.8003,-9.8003,-9.8003,-9.8003,-9.8003,-9.8003,-9.8003,-9.8003,-9.8003,-9.8003,-9.8003,-9.8003,-9.8003,-9.8003,-9.8003,-9.8003,-9.8003,-9.8003,-9.8003,-9.8003,-9.8003,-9.6321,-9.2551,-9.241,-9.0538,-8.6817,-8.6689,-8.6689,-8.6689,-8.6689,-8.6689,-8.6689,-8.6689,-8.6689,-9.7695,-9.7578,-9.7422,-9.7421,-9.6991,-9.6855,-9.7735,-9.8404,-9.9057,-9.9942,-10.0673,-10.1289,-10.1289,-10.1289,-10.1289,-10.1289,-10.202,-10.2904,-10.3712,-10.4597,-10.5405,-10.629,-10.6405,-10.6117,0.0,-10.4534,-10.3576,-10.2673,-10.2674,-10.2999,-10.3806,-10.4614,-10.5495,-10.6302,-10.6376,-10.6376,-10.6376,-10.6376,-10.6376,-10.6376,-10.6376,-10.6376,-10.6376,-10.6376,-10.6376,-10.6376,-10.6376,-10.6376,-10.6376,-10.6376,-10.6376,-10.6376,-10.6376,-10.6376,-10.6376,-10.6376,-10.6376,-10.6376,-10.6376,-10.6376,-10.6376,-10.6376,-10.6376,-10.6376,-10.6376,-10.6376,-10.6376,-10.6376,-10.6376,-10.6413,-10.6339,-10.5324,-10.4167,-10.4203,-10.2138,-9.9952,-9.9952,-9.8958,-9.8003,-9.8003,-9.8003,-9.8003,-9.8003,-9.8003,-9.8003,-9.8003,-9.8003,-9.8003,-9.8003,-9.8003,-9.8003,-9.8003,-9.8003,-9.8003,-9.8003,-9.8003,-9.8003,-9.8003,-9.8003,-9.6321,-9.2551,-9.241,-9.0538,-8.6817,-8.6689,-8.6689,-8.6689,-8.6689,-8.6689,-8.6689,-8.6689,-8.6689,-9.7695,0.0,-9.7617,-9.7617,-9.7812,-9.8157,-9.881,-9.9404,-10.0096,-10.0788,-10.1096,-10.1289,-10.1289,-10.1289,-10.1289,-10.1289,-10.202,-10.2904,-10.3789,-10.4597,-10.5405,-10.629,-10.6405,0.0,0.0,0.0,0.0,-10.2818,-10.2674,-10.3109,-10.388,-10.4687,-10.5495,-10.6376,-10.6376,-10.6376,-10.6376,-10.6376,-10.6376,-10.6376,-10.6376,-10.6376,-10.6376,-10.6376,-10.6376,-10.6376,-10.6376,-10.6376,-10.6376,-10.6376,-10.6376,-10.6376,-10.6376,-10.6376,-10.6376,-10.6376,-10.6376,-10.6376,-10.6376,-10.6376,-10.6376,-10.6376,-10.6376,-10.6376,-10.6376,-10.6376,-10.6376,-10.6376,-10.6376,-10.6376,-10.6376,-10.5397,-10.4108,-10.3123,-10.1467,-9.9907,-9.8958,-9.8303,-9.8003,-9.8003,-9.8003,-9.8003,-9.8003,-9.8003,-9.8003,-9.8003,-9.8003,-9.8003,-9.8003,-9.8003,-9.8003,-9.8003,-9.8003,-9.8003,-9.8003,-9.8003,-9.8003,-9.8003,-9.8003,-9.6866,-9.4343,-9.3078,-9.1267,-8.8685,-8.7386,-8.6689,-8.6689,-8.6689,-8.6689,-8.6689,-8.6689,-8.6689,0.0,-9.7695,-9.7695,-9.7695,-9.8203,-9.8848,-9.9366,-10.0009,-10.0596,-10.1212,-10.1289,-10.1289,-10.1289,-10.1289,-10.1404,-10.1712,-10.252,-10.3405,-10.4212,-10.4982,-10.579,-10.629,-10.6405,-10.6405,-10.6405,0.0,0.0,-10.3223,-10.3089,-10.3403,-10.388,-10.4981,-10.5789,-10.6376,-10.6376,-10.6376,-10.6376,-10.6376,-10.6376,-10.6376,-10.6376,-10.6376,-10.6376,-10.6376,-10.6376,-10.6376,-10.6376,-10.6376,-10.6376,-10.6376,-10.6376,-10.6376,-10.6376,-10.6376,-10.6376,-10.6376,-10.6376,-10.6376,-10.6376,-10.6376,-10.6376,-10.6376,-10.6376,-10.6376,-10.6376,-10.6376,-10.6376,-10.6376,-10.6376,-10.6376,-10.6376,-10.5714,-10.4798,-10.3844,-10.2172,-10.0628,-9.9676,-9.8753,-9.8003,-9.8003,-9.8003,-9.8003,-9.8003,-9.8003,-9.8003,-9.8003,-9.8003,-9.8003,-9.8003,-9.8003,-9.8003,-9.8003,-9.8003,-9.8003,-9.8003,-9.8003,-9.8003,-9.8003,-9.8003,-9.7153,-9.531,-9.3388,-9.1524,-8.95,-8.7668,-8.6689,-8.6689,-8.6689,-8.6689,-8.6689,-8.6689,-8.6689,-9.7695,-9.7695,-9.7695,-9.7695,-9.8242,-9.8906,-9.9414,-10.0125,-10.0673,-10.1212,-10.1289,-10.1289,0.0,0.0,-10.1597,-10.2403,-10.3289,-10.4174,-10.4905,-10.579,-10.6405,-10.6405,-10.6405,-10.6405,-10.6405,-10.4935,0.0,-10.4025,0.0,-10.388,-10.388,-10.5495,-10.6376,-10.6376,-10.6376,-10.6376,-10.6376,-10.6376,-10.6376,-10.6376,-10.6376,-10.6376,-10.6376,-10.6376,-10.6376,-10.6376,-10.6376,-10.6376,-10.6376,-10.6376,-10.6376,-10.6376,-10.6376,-10.6376,-10.6376,-10.6376,-10.6376,-10.6376,-10.6376,-10.6376,-10.6376,-10.6376,-10.6376,-10.6376,-10.6376,-10.6376,-10.6376,-10.6376,-10.6376,-10.6376,-10.6376,-10.6376,-10.6413,-10.6291,-10.4203,-10.2207,-10.2068,-9.9872,-9.8003,-9.8003,-9.8003,-9.8003,-9.8003,-9.8003,-9.8003,-9.8003,-9.8003,-9.8003,-9.8003,-9.8003,-9.8003,-9.8003,-9.8003,-9.8003,-9.8003,-9.8003,-9.8003,-9.8003,-9.8003,-9.7153,-9.5441,-9.3526,-9.1524,-8.965,-8.7668,-8.6689,-8.6689,-8.6689,-8.6689,-8.6689,-8.6689,-8.6689,-9.7695,-9.7695,-9.7695,-9.7695,-9.8789,-9.9883,-9.9804,-10.0786,-10.1712,-10.1597,-10.1404,-10.1289,-10.1289,-10.1289,0.0,-10.1597,-10.2904,0.0,-10.4212,-10.5482,-10.6405,-10.6405,-10.6405,-10.6405,-10.6405,-10.4935,-10.4025,0.0,-10.391,-10.388,-10.388,-10.5495,-10.6376,-10.6376,-10.6376,-10.6376,-10.6376,-10.6376,-10.6376,-10.6376,-10.6376,-10.6376,-10.6376,-10.6376,-10.6376,-10.6376,-10.6376,-10.6376,-10.6376,-10.6376,-10.6376,-10.6376,-10.6376,-10.6376,-10.6376,-10.6376,-10.6376,-10.6376,-10.6376,-10.6376,-10.6376,-10.6376,-10.6376,-10.6376,-10.6376,-10.6376,-10.6376,-10.6376,-10.6376,-10.6376,-10.6376,-10.6376,-10.6133,-10.5144,-10.3456,-10.1858,-10.085,-9.9279,-9.8003,-9.8003,-9.8003,-9.8003,-9.8003,-9.8003,-9.8003,-9.8003,-9.8003,-9.8003,-9.8003,-9.8003,-9.8003,-9.8003,-9.8003,-9.8003,-9.8003,-9.8003,-9.8003,-9.8003,-9.8003,-9.7721,-9.7312,-9.4073,-9.2127,-9.1667,-8.841,-8.6689,-8.6689,-8.6689,-8.6689,-8.6689,-8.6689,-8.6689,-9.7695,-9.7695,-9.7695,-9.7695,-9.9023,-10.0195,-9.9961,-10.0994,-10.1996,-10.1786,-10.1481,-10.1289,-10.1289,-10.1289,-10.1404,0.0,0.0,0.0,-10.4405,-10.5597,-10.6405,-10.6405,-10.6405,-10.6405,-10.6405,-10.5307,-10.4381,-10.3988,-10.391,-10.388,-10.388,-10.5495,-10.6376,-10.6376,-10.6376,-10.6376,-10.6376,-10.6376,-10.6376,-10.6376,-10.6376,-10.6376,-10.6376,-10.6376,-10.6376,-10.6376,-10.6376,-10.6376,-10.6376,-10.6376,-10.6376,-10.6376,-10.6376,-10.6376,-10.6376,-10.6376,-10.6376,-10.6376,-10.6376,-10.6376,-10.6376,-10.6376,-10.6376,-10.6376,-10.6376,-10.6376,-10.6376,-10.6376,-10.6376,-10.6376,-10.6376,-10.6376,-10.6169,-10.5449,-10.413,-10.2685,-10.1325,-9.9907,-9.8753,-9.8126,-9.8003,-9.8003,-9.8003,-9.8003,-9.8003,-9.8003,-9.8003,-9.8003,-9.8003,-9.8003,-9.8003,-9.8003,-9.8003,-9.8003,-9.8003,-9.8003,-9.8003,-9.8003,-9.8003,-9.8003,-9.8003,-9.4343,-9.241,-9.241,-8.8685,-8.6689,-8.6689,-8.6689,-8.6689,-8.6689,-8.6689,-8.6689,-9.7695,-9.7695,-9.7695,-9.7695,-9.9023,-10.0195,-10.0,-10.1094,-10.2015,-10.1804,-10.1481,-10.1289,-10.1289,-10.1289,-10.1481,-10.2328,0.0,-10.4097,-10.4789,-10.579,-10.6405,-10.6405,-10.6405,-10.6405,-10.6405,-10.5686,-10.4866,-10.4086,-10.3984,-10.4007,-10.388,-10.5495,-10.6376,-10.6376,-10.6376,-10.6376,-10.6376,-10.6376,-10.6376,-10.6376,-10.6376,-10.6376,-10.6376,-10.6376,-10.6376,-10.6376,-10.6376,-10.6376,-10.6376,-10.6376,-10.6376,-10.6376,-10.6376,-10.6376,-10.6376,-10.6376,-10.6376,-10.6376,-10.6376,-10.6376,-10.6376,-10.6376,-10.6376,-10.6376,-10.6376,-10.6376,-10.6376,-10.6376,-10.6376,-10.6376,-10.6376,-10.6376,-10.6376,-10.6376,-10.5324,-10.388,-10.2481,-10.089,-9.9478,-9.8215,-9.8003,-9.8003,-9.8003,-9.8003,-9.8003,-9.8003,-9.8003,-9.8003,-9.8003,-9.8003,-9.8003,-9.8003,-9.8003,-9.8003,-9.8003,-9.8003,-9.8003,-9.8003,-9.8003,-9.8003,-9.8003,-9.4343,-9.241,-9.241,-8.8685,-8.6689,-8.6689,-8.6689,-8.6689,-8.6689,-8.6689,-8.6689,-9.7695,-9.7695,-9.7695,-9.7695,-9.9023,-10.0312,-10.0195,-10.1211,-10.2094,-10.1997,-10.1597,-10.1289,-10.1289,-10.1289,-10.1289,-10.1481,-10.2904,-10.3905,-10.4097,-10.5405,-10.6405,-10.6405,-10.6405,-10.6405,-10.6405,-10.5686,-10.4866,0.0,-10.459,-10.4646,-10.3925,-10.5495,-10.6376,-10.6376,-10.6376,-10.6376,-10.6376,-10.6376,-10.6376,-10.6376,-10.6376,-10.6376,-10.6376,-10.6376,-10.6376,-10.6376,-10.6376,0.0,-10.6376,-10.6376,-10.6376,-10.6376,-10.6376,-10.6376,-10.6376,-10.6376,-10.6376,-10.6376,-10.6376,-10.6376,-10.6376,-10.6376,-10.6376,-10.6376,-10.6376,-10.6376,-10.6376,-10.6376,-10.6376,-10.6376,-10.6376,-10.6376,-10.6376,-10.6376,-10.5324,-10.388,-10.2517,-10.0248,-9.8337,-9.8003,-9.8003,-9.8003,-9.8003,-9.8003,-9.8003,-9.8003,-9.8003,-9.8003,-9.8003,-9.8003,-9.8003,-9.8003,-9.8003,-9.8003,-9.8003,-9.8003,-9.8003,-9.8003,-9.8003,-9.8003,-9.8003,-9.4343,-9.241,-9.241,-8.8685,-8.6689,-8.6689,-8.6689,-8.6689,-8.6689,-8.6689,-8.6689,-9.7695,-9.7695,-9.7695,-9.7695,-9.9023,-10.0312,-10.0312,-10.1211,-10.2094,-10.2074,-10.1712,-10.1289,-10.1289,-10.1289,-10.1404,-10.1904,-10.3097,-10.3982,-10.4482,-10.5597,-10.6405,-10.6405,-10.6405,-10.6405,-10.6405,-10.6112,-10.5319,-10.4086,-10.5053,-10.5279,-10.3999,-10.5495,-10.6376,-10.6376,-10.6376,-10.6376,-10.6376,-10.6376,-10.6376,-10.6376,-10.6376,-10.6376,-10.6376,-10.6376,-10.6376,-10.6376,-10.6376,-10.6376,-10.6376,-10.6376,-10.6376,-10.6376,-10.6376,-10.6376,-10.6376,-10.6376,-10.6376,-10.6376,-10.6376,-10.6376,-10.6376,-10.6376,-10.6376,-10.6376,-10.6376,-10.6376,-10.6376,-10.6376,-10.6376,-10.6376,-10.6376,-10.6376,-10.6376,-10.6376,-10.4835,-10.3023,-10.2276,-9.9986,-9.8003,-9.8003,-9.8003,-9.8003,-9.8003,-9.8003,-9.8003,-9.8003,-9.8003,-9.8003,-9.8003,-9.8003,-9.8003,-9.8003,-9.8003,-9.8003,-9.8003,-9.8003,-9.8003,-9.8003,-9.8003,-9.8003,-9.8003,-9.4343,-9.241,-9.241,-8.8685,-8.6689,-8.6689,-8.6689,-8.6689,-8.6689,-8.6689,-8.6689,-9.7695,-9.7695,-9.7695,-9.7695,-9.9023,-10.0312,-10.0312,-10.1211,-10.2094,-10.2074,-10.1712,-10.1289,-10.1289,-10.1289,-10.1597,-10.252,-10.3289,-10.4212,-10.4982,-10.5905,-10.6405,-10.6405,-10.6405,-10.6405,-10.6405,-10.6405,0.0,-10.4381,-10.5373,0.0,-10.4476,-10.5678,-10.6376,-10.6376,-10.6376,-10.6376,-10.6376,-10.6376,-10.6376,-10.6376,-10.6376,-10.6376,-10.6376,-10.6376,-10.6376,-10.6376,-10.6376,-10.6376,-10.6376,-10.6376,-10.6376,-10.6376,-10.6376,-10.6376,-10.6376,-10.6376,-10.6376,-10.6376,-10.6376,-10.6376,-10.6376,-10.6376,-10.6376,-10.6376,-10.6376,-10.6376,-10.6376,-10.6376,-10.6376,-10.6376,-10.6376,-10.6376,-10.6376,-10.6376,-10.4225,-10.2172,-10.2172,-9.9986,-9.8003,-9.8003,-9.8003,-9.8003,-9.8003,-9.8003,-9.8003,-9.8003,-9.8003,-9.8003,-9.8003,-9.8003,-9.8003,-9.8003,-9.8003,-9.8003,-9.8003,-9.8003,-9.8003,-9.8003,-9.8003,-9.8003,-9.8003,-9.4779,-9.2832,-9.241,-8.911,-8.7103,-8.6689,-8.6689,-8.6689,-8.6689,-8.6689,-8.6689,-9.7695,-9.7695,-9.7695,-9.7695,-9.9023,-10.0312,-10.0312,-10.1211,-10.2094,-10.2074,-10.1712,-10.1289,-10.1289,-10.1289,-10.1597,-10.252,-10.3288,-10.4211,-10.4982,-10.5905,-10.6405,-10.6405,-10.6405,-10.6405,-10.6405,-10.6405,-10.5997,-10.5167,-10.5182,0.0,-10.6129,-10.6302,-10.6376,-10.6376,-10.6376,-10.6376,-10.6376,-10.6376,-10.6376,-10.6376,-10.6376,-10.6376,-10.6376,-10.6376,-10.6376,-10.6376,-10.6376,-10.6376,0.0,-10.6376,-10.6376,-10.6376,-10.6376,-10.6376,-10.6376,-10.6376,-10.6376,-10.6376,-10.6376,-10.6376,-10.6376,-10.6376,-10.6376,-10.6376,-10.6376,-10.6376,-10.6376,-10.6376,-10.6376,-10.6376,-10.6376,-10.6376,-10.6376,-10.6376,-10.4167,-10.2207,-10.2172,-9.9986,-9.8003,-9.8003,-9.8003,-9.8003,-9.8003,-9.8003,-9.8003,-9.8003,-9.8003,-9.8003,-9.8003,-9.8003,-9.8003,-9.8003,-9.8003,-9.8003,-9.8003,-9.8003,-9.8003,-9.8003,-9.8003,-9.8003,-9.8003,-9.603,-9.4208,-9.241,-9.0391,-8.8379,-8.6689,-8.6689,-8.6689,-8.6689,-8.6689,-8.6689,-9.7695,-9.7695,-9.7695,-9.7695,-9.9023,-10.0312,-10.0312,-10.1211,-10.2094,-10.2074,-10.1712,-10.1289,-10.1289,-10.1289,-10.1597,-10.252,-10.3288,-10.417,-10.498,-10.5905,-10.6405,-10.6405,-10.6405,-10.6405,0.0,0.0,-10.6093,-10.5273,0.0,0.0,-10.5615,-10.6082,-10.6376,-10.6376,-10.6376,-10.6376,-10.6376,-10.6376,-10.6376,-10.6376,-10.6376,-10.6376,-10.6376,-10.6376,-10.6376,-10.6376,-10.6376,-10.6376,0.0,-10.6376,-10.6376,-10.6376,-10.6376,-10.6376,-10.6376,-10.6376,-10.6376,-10.6376,-10.6376,-10.6376,-10.6376,-10.6376,-10.6376,-10.6376,-10.6376,-10.6376,-10.6376,-10.6376,-10.6376,-10.6376,-10.6376,-10.6376,-10.6206,-10.5324,-10.3615,-10.1998,-10.1108,-9.9362,-9.8003,-9.8003,-9.8003,-9.8003,-9.8003,-9.8003,-9.8003,-9.8003,-9.8003,-9.8003,-9.8003,-9.8003,-9.8003,-9.8003,-9.8003,-9.8003,-9.8003,-9.8003,-9.8003,-9.8003,-9.8003,-9.8003,-9.8003,-9.6159,-9.4343,-9.241,-9.0507,-8.8533,-8.6689,-8.6689,-8.6689,-8.6689,-8.6689,-8.6689,-9.7695,-9.7695,-9.7695,-9.7695,-9.9023,-10.0312,-10.0195,-10.1211,-10.2094,-10.1997,-10.1597,-10.1289,-10.1289,-10.1289,-10.1597,-10.252,-10.3289,-10.4211,-10.5018,-10.5864,-10.6405,-10.6405,0.0,-10.6405,0.0,-10.6405,-10.6116,0.0,0.0,0.0,-10.5138,-10.5899,-10.6376,-10.6376,-10.6376,-10.6376,-10.6376,-10.6376,-10.6376,-10.6376,-10.6376,-10.6376,-10.6376,-10.6376,-10.6376,-10.6376,-10.6376,-10.6376,0.0,-10.6376,-10.6376,-10.6376,-10.6376,-10.6376,-10.6376,-10.6376,-10.6376,-10.6376,-10.6376,-10.6376,-10.6376,-10.6376,-10.6376,-10.6376,-10.6376,-10.6376,-10.6376,-10.6376,-10.6376,-10.6376,-10.6376,-10.6376,-10.6047,-10.4578,-10.3223,-10.1752,-10.0404,-9.8924,-9.8003,-9.8003,-9.8003,-9.8003,-9.8003,-9.8003,-9.8003,-9.8003,-9.8003,-9.8003,-9.8003,-9.8003,-9.8003,-9.8003,-9.8003,-9.8003,-9.8003,-9.8003,-9.8003,-9.8003,-9.8003,-9.8003,-9.8003,-9.6159,-9.4343,-9.241,-9.0507,-8.8533,-8.6689,-8.6689,-8.6689,-8.6689,-8.6689,-8.6689,-9.7695,-9.7695,-9.7695,-9.7695,-9.9023,-10.0195,-9.9961,-10.1015,-10.2015,-10.1804,-10.1481,-10.1289,-10.1289,-10.1289,-10.1597,-10.252,-10.329,-10.4214,-10.498,-10.5864,-10.6405,0.0,0.0,-10.6405,-10.6405,-10.6405,0.0,0.0,0.0,0.0,-10.5101,-10.5899,-10.6376,-10.6376,-10.6376,-10.6376,-10.6376,-10.6376,-10.6376,-10.6376,-10.6376,-10.6376,-10.6376,-10.6376,-10.6376,-10.6376,-10.6376,-10.6376,0.0,-10.6376,-10.6376,-10.6376,-10.6376,-10.6376,-10.6376,-10.6376,-10.6376,-10.6376,-10.6376,-10.6376,-10.6376,-10.6376,-10.6376,-10.6376,-10.6376,-10.6376,-10.6376,-10.6376,-10.6376,-10.6376,-10.6376,-10.6376,-10.6047,-10.4578,-10.3223,-10.1752,-10.0404,-9.8924,-9.8003,-9.8003,-9.8003,-9.8003,-9.8003,-9.8003,-9.8003,-9.8003,-9.8003,-9.8003,-9.8003,-9.8003,-9.8003,-9.8003,-9.8003,-9.8003,-9.8003,-9.8003,-9.8003,-9.8003,-9.8003,-9.8003,-9.8003,-9.6159,-9.4343,-9.241,-9.0507,-8.8533,-8.6689,-8.6689,-8.6689,-8.6689,-8.6689,-8.6689,-9.7695,-9.7695,-9.7695,-9.7695,-9.9023,-10.0195,-9.9961,-10.1008,-10.2,-10.1826,-10.1481,-10.1289,-10.1289,-10.1289,-10.1404,-10.1712,-10.2905,-10.3983,-10.4211,-10.548,0.0,-10.6405,-10.6405,-10.6405,0.0,0.0,0.0,0.0,0.0,0.0,-10.5209,-10.6018,-10.6376,-10.6376,-10.6376,-10.6376,-10.6376,-10.6376,-10.6376,-10.6376,-10.6376,-10.6376,-10.6376,-10.6376,-10.6376,-10.6376,-10.6376,-10.6376,-10.6376,-10.6376,-10.6376,-10.6376,-10.6376,-10.6376,-10.6376,-10.6376,-10.6376,-10.6376,-10.6376,-10.6376,-10.6376,-10.6376,-10.6376,-10.6376,-10.6376,-10.6376,-10.6376,-10.6376,-10.6376,-10.6376,-10.6376,-10.6376,-10.575,-10.3456,-10.2481,-10.161,-9.9161,-9.8337,-9.8003,-9.8003,-9.8003,-9.8003,-9.8003,-9.8003,-9.8003,-9.8003,-9.8003,-9.8003,-9.8003,-9.8003,-9.8003,-9.8003,-9.8003,-9.8003,-9.8003,-9.8003,-9.8003,-9.8003,-9.8003,-9.8003,-9.8003,-9.6159,-9.4343,-9.241,-9.0507,-8.8533,-8.6689,-8.6689,-8.6689,-8.6689,-8.6689,-8.6689,-9.7695,-9.7695,-9.7695,-9.7695,-9.8945,-10.0117,-9.9804,-10.0903,-10.1904,-10.1597,-10.1404,-10.1289,-10.1289,-10.1289,-10.1289,-10.1289,-10.279,-10.3906,-10.3901,-10.5287,0.0,-10.6405,0.0,0.0,0.0,0.0,0.0,0.0,0.0,0.0,-10.5169,-10.57,-10.6082,-10.6376,-10.6376,-10.6376,-10.6376,-10.6376,-10.6376,-10.6376,-10.6376,-10.6376,-10.6376,-10.6376,-10.6376,-10.6376,-10.6376,-10.6376,0.0,-10.6376,-10.6376,-10.6376,-10.6376,-10.6376,-10.6376,-10.6376,-10.6376,-10.6376,-10.6376,-10.6376,-10.6376,-10.6376,-10.6376,-10.6376,-10.6376,-10.6376,-10.6376,-10.6376,-10.6376,-10.6376,-10.6376,-10.6376,-10.5663,-10.2858,-10.2207,-10.1432,-9.8633,-9.8003,-9.8003,-9.8003,-9.8003,-9.8003,-9.8003,-9.8003,-9.8003,-9.8003,-9.8003,-9.8003,-9.8003,-9.8003,-9.8003,-9.8003,-9.8003,-9.8003,-9.8003,-9.8003,-9.8003,-9.8003,-9.8003,-9.8003,-9.8003,-9.5475,-9.3631,-9.241,-8.983,-8.7823,-8.6689,-8.6689,-8.6689,-8.6689,-8.6689,-8.6689,0.0,-9.7695,-9.7695,-9.7695,-9.8828,-9.9843,-9.9564,-10.0607,0.0,-10.1404,-10.1289,-10.1289,-10.1289,-10.1289,-10.1289,-10.1289,-10.279,-10.3906,-10.3901,-10.5287,0.0,0.0,-10.6405,0.0,-10.6405,0.0,0.0,0.0,0.0,0.0,-10.5279,-10.5189,-10.5615,-10.6376,-10.6376,-10.6376,-10.6376,-10.6376,-10.6376,-10.6376,-10.6376,-10.6376,-10.6376,-10.6376,-10.6376,0.0,-10.6376,0.0,0.0,-10.6376,-10.6376,-10.6376,-10.6376,-10.6376,-10.6376,-10.6376,-10.6376,-10.6376,-10.6376,-10.6376,-10.6376,-10.6376,-10.6376,-10.6376,-10.6376,-10.6376,-10.6376,-10.6376,-10.6376,-10.6376,-10.6376,-10.6376,-10.5663,-10.2923,-10.2172,-10.1432,-9.8633,-9.8003,-9.8003,-9.8003,-9.8003,-9.8003,-9.8003,-9.8003,-9.8003,-9.8003,-9.8003,-9.8003,-9.8003,-9.8003,-9.8003,-9.8003,-9.8003,-9.8003,-9.8003,-9.8003,-9.8003,-9.8003,-9.8003,-9.8003,-9.8003,-9.4343,-9.241,-9.241,-8.8685,-8.6689,-8.6689,-8.6689,-8.6689,-8.6689,-8.6689,-8.6689,-9.7695,0.0,-9.7695,-9.7695,-9.8828,-9.9815,0.0,-10.0582,-10.1597,-10.1404,-10.1289,-10.1289,-10.1289,-10.1289,-10.1289,-10.1289,-10.279,-10.3906,-10.3901,-10.5287,0.0,-10.6405,-10.6405,-10.6405,0.0,0.0,0.0,0.0,0.0,-10.6134,-10.6107,-10.6102,-10.6196,-10.6376,-10.6376,-10.6376,-10.6376,-10.6376,-10.6376,-10.6376,-10.6376,-10.6376,-10.6376,-10.6376,-10.6376,-10.6376,-10.6376,0.0,-10.6376,-10.6376,-10.6376,-10.6376,-10.6376,-10.6376,-10.6376,-10.6376,-10.6376,-10.6376,-10.6376,-10.6376,-10.6376,-10.6376,-10.6376,-10.6376,-10.6376,-10.6376,-10.6376,-10.6376,-10.6376,-10.6376,-10.6376,-10.6376,-10.5663,-10.2923,-10.2207,-10.136,-9.8633,-9.8003,-9.8003,-9.8003,-9.8003,-9.8003,-9.8003,-9.8003,-9.8003,-9.8003,-9.8003,-9.8003,-9.8003,-9.8003,-9.8003,-9.8003,-9.8003,-9.8003,-9.8003,-9.8003,-9.8003,-9.8003,-9.8003,-9.8003,-9.8003,-9.4343,-9.241,-9.241,-8.8685,-8.6689,-8.6689,-8.6689,-8.6689,-8.6689,-8.6689,-8.6689,-9.7695,-9.7695,-9.7695,-9.7695,-9.8711,-9.968,-9.9525,-10.048,-10.1481,-10.1289,-10.1289,-10.1289,-10.1289,-10.1289,-10.1289,-10.1289,-10.279,-10.4214,-10.4903,0.0,-10.6405,-10.6405,-10.6405,0.0,0.0,0.0,0.0,0.0,0.0,-10.5801,-10.5785,-10.5801,-10.5774,-10.5789,-10.6192,-10.6376,-10.6376,-10.6376,-10.6376,-10.6376,-10.6376,-10.6376,-10.6376,-10.6376,-10.6376,-10.6376,-10.6376,0.0,-10.6376,-10.6376,-10.6376,-10.6376,-10.6376,-10.6376,-10.6376,-10.6376,-10.6376,-10.6376,-10.6376,-10.6376,-10.6376,-10.6376,-10.6376,-10.6376,-10.6376,-10.6376,-10.6376,-10.6376,-10.6376,-10.6376,-10.6376,-10.6376,-10.5663,-10.2923,-10.2207,-10.1432,-9.8633,-9.8003,-9.8003,-9.8003,-9.8003,-9.8003,-9.8003,-9.8003,-9.8003,-9.8003,-9.8003,-9.8003,-9.8003,-9.8003,-9.8003,-9.8003,-9.8003,-9.8003,-9.8003,-9.8003,-9.8003,-9.8003,-9.8003,-9.8003,-9.8003,-9.4343,-9.1555,-8.983,-8.7668,-8.6689,-8.6689,-8.6689,-8.6689,-8.6689,-8.6689,-8.6689,-9.7695,-9.7695,-9.7695,-9.7695,-9.8594,-9.9485,-9.9525,-10.0404,-10.1289,-10.1289,-10.1289,-10.1289,-10.1289,-10.1289,-10.1289,-10.1289,-10.2828,-10.4522,-10.6213,-10.6405,-10.6405,-10.6405,-10.6405,0.0,0.0,0.0,0.0,0.0,0.0,-10.5416,-10.5434,-10.5417,-10.5376,-10.5311,-10.6009,-10.6376,-10.6376,-10.6376,-10.6376,-10.6376,-10.6376,-10.6376,-10.6376,-10.6376,-10.6376,-10.6376,0.0,0.0,-10.6376,-10.6376,-10.6376,-10.6376,-10.6376,-10.6376,-10.6376,-10.6376,-10.6376,-10.6376,-10.6376,-10.6376,-10.6376,-10.6376,-10.6376,-10.6376,-10.6376,-10.6376,-10.6376,-10.6376,-10.6376,-10.6376,-10.6376,-10.6376,-10.5663,-10.2923,-10.2172,-10.1432,-9.8633,-9.8003,-9.8003,-9.8003,-9.8003,-9.8003,-9.8003,-9.8003,-9.8003,-9.8003,-9.8003,-9.8003,-9.8003,-9.8003,-9.8003,-9.8003,-9.8003,-9.8003,-9.8003,-9.8003,-9.8003,-9.8003,-9.8003,-9.7721,-9.7153,-9.4073,-9.0538,-8.6817,-8.6689,-8.6689,-8.6689,-8.6689,-8.6689,-8.6689,-8.6689,-8.6689,-9.7695,-9.7695,-9.7695,-9.7695,-9.8594,-9.9485,-9.9525,-10.0404,-10.1289,-10.1289,-10.1289,-10.1289,-10.1289,-10.1289,-10.1289,-10.1289,-10.2788,-10.4518,-10.6213,0.0,-10.6405,-10.6405,0.0,0.0,0.0,0.0,0.0,0.0,0.0,-10.621,-10.6199,-10.6186,-10.6176,-10.624,-10.6302,-10.6376,-10.6376,-10.6376,-10.6376,-10.6376,-10.6376,-10.6376,-10.6376,-10.6376,-10.6376,-10.6376,0.0,-10.6376,-10.6376,-10.6376,-10.6376,-10.6376,-10.6376,-10.6376,-10.6376,-10.6376,-10.6376,-10.6376,-10.6376,-10.6376,-10.6376,-10.6376,-10.6376,-10.6376,-10.6376,-10.6376,-10.6376,-10.6376,-10.6376,-10.6376,-10.6376,-10.6376,-10.5663,-10.2923,-10.2207,-10.136,-9.8633,-9.8003,-9.8003,-9.8003,-9.8003,-9.8003,-9.8003,-9.8003,-9.8003,-9.8003,-9.8003,-9.8003,-9.8003,-9.8003,-9.8003,-9.8003,-9.8003,-9.8003,-9.8003,-9.8003,-9.8003,-9.8003,-9.8003,-9.6612,-9.3388,-9.2692,-9.0538,-8.6817,-8.6689,-8.6689,-8.6689,-8.6689,-8.6689,-8.6689,-8.6689,-8.6689,-9.7695,-9.7695,-9.7773,-9.8086,-9.8867,-9.9602,-9.9912,-10.0673,-10.1289,-10.1289,-10.1289,-10.1289,-10.1289,-10.1289,-10.1597,-10.2597,-10.3403,-10.4477,-10.6213,-10.6405,-10.6405,0.0,0.0,0.0,0.0,0.0,0.0,0.0,0.0,0.0,-10.5787,-10.6614,-10.6604,-10.5772,-10.6607,-10.6827,-10.6376,-10.6376,-10.6376,-10.6376,-10.6376,-10.6376,-10.6376,-10.6376,-10.6376,-10.6376,0.0,-10.6376,-10.6376,-10.6376,-10.6376,-10.6376,-10.6376,-10.6376,-10.6376,-10.6376,-10.6376,-10.6376,-10.6376,-10.6376,-10.6376,-10.6376,-10.6376,-10.6376,-10.6376,-10.6376,-10.6376,-10.6376,-10.6376,-10.6376,-10.6376,-10.6376,-10.5663,-10.2923,-10.2172,-10.1432,-9.8633,-9.8003,-9.8003,-9.8003,-9.8003,-9.8003,-9.8003,-9.8003,-9.8003,-9.8003,-9.8003,-9.8003,-9.8003,-9.8003,-9.8003,-9.8003,-9.8003,-9.8003,-9.8003,-9.8003,-9.8003,-9.8003,-9.7027,-9.5211,-9.2551,-9.138,-8.9531,-8.6817,-8.6689,-8.6689,-8.6689,-8.6689,-8.6689,-8.6689,-8.6689,-8.6689,-9.7695,-9.7695,-9.789,-9.8711,-9.9195,-9.9669,-10.0273,-10.0904,-10.1289,-10.1289,-10.1289,-10.1289,-10.1289,-10.1289,-10.1904,-10.3599,-10.3905,-10.4477,-10.6213,-10.6405,-10.6405,-10.6405,0.0,0.0,0.0,0.0,0.0,0.0,0.0,0.0,-10.548,-10.6597,-10.6795,-10.5765,-10.6851,-10.7085,-10.6754,-10.6486,-10.6376,-10.6376,-10.6376,-10.6376,-10.6376,-10.6376,-10.6376,-10.6376,-10.6376,-10.6376,-10.6376,-10.6376,-10.6376,-10.6376,-10.6376,-10.6376,-10.6376,-10.6376,-10.6376,-10.6376,-10.6376,-10.6376,-10.6376,-10.6376,-10.6376,-10.6376,-10.6376,-10.6376,-10.6376,-10.6376,-10.6376,-10.6376,-10.6376,-10.6376,-10.5663,-10.2923,-10.2172,-10.1432,-9.8633,-9.8003,-9.8003,-9.8003,-9.8003,-9.8003,-9.8003,-9.8003,-9.8003,-9.8003,-9.8003,-9.8003,-9.8003,-9.8003,-9.8003,-9.8003,-9.8003,-9.8003,-9.8003,-9.8003,-9.8003,-9.8003,-9.6288,-9.4343,-9.2551,-9.0538,-8.8655,-8.6689,-8.6689,-8.6689,-8.6689,-8.6689,-8.6689,-8.6689,-8.6689,-8.6689,-9.7695,-9.7695,-9.8047,-9.9453,-9.9656,-9.9632,-10.0289,-10.0904,-10.1289,-10.1289,-10.1289,-10.1289,-10.1289,-10.1289,-10.1904,-10.3599,-10.3905,-10.4477,-10.6213,0.0,0.0,0.0,0.0,0.0,0.0,0.0,0.0,0.0,0.0,0.0,-10.6328,-10.6405,-10.678,-10.7404,-10.6833,-10.6827,-10.7536,-10.6827,-10.6376,-10.6376,-10.6376,-10.6376,-10.6376,-10.6376,-10.6376,-10.6376,-10.6376,-10.6376,-10.6376,-10.6376,-10.6376,-10.6376,-10.6376,-10.6376,-10.6376,-10.6376,-10.6376,-10.6376,-10.6376,-10.6376,-10.6376,-10.6376,-10.6376,-10.6376,-10.6376,-10.6376,-10.6376,-10.6376,-10.6376,-10.6376,-10.6376,-10.6376,-10.5663,-10.2923,-10.2207,-10.136,-9.8633,-9.8003,-9.8003,-9.8003,-9.8003,-9.8003,-9.8003,-9.8003,-9.8003,-9.8003,-9.8003,-9.8003,-9.8003,-9.8003,-9.8003,-9.8003,-9.8003,-9.8003,-9.8003,-9.8003,-9.8003,-9.8003,-9.6288,-9.4343,-9.2551,-9.0538,-8.8655,-8.6689,-8.6689,-8.6689,-8.6689,-8.6689,-8.6689,-8.6689,-8.6689,-8.6689,-9.7695,-9.7617,-9.789,-9.9492,-9.96,-9.9673,-10.0904,-10.1289,-10.1289,-10.1289,-10.1289,-10.1289,-10.1289,-10.1289,-10.1904,-10.3599,-10.3905,-10.4477,0.0,0.0,0.0,0.0,0.0,0.0,0.0,0.0,0.0,0.0,0.0,0.0,0.0,-10.6905,-10.729,-10.7594,-10.7287,-10.7278,-10.761,-10.6827,-10.6376,-10.6376,-10.6376,-10.6376,-10.6376,-10.6376,-10.6376,-10.6376,-10.6376,-10.6376,-10.6376,-10.6376,-10.6376,-10.6376,-10.6376,-10.6376,-10.6376,-10.6376,-10.6376,-10.6376,-10.6376,-10.6376,-10.6376,-10.6376,-10.6376,-10.6376,-10.6376,-10.6376,-10.6376,-10.6376,-10.6376,-10.6376,-10.6376,-10.6376,-10.5663,-10.2923,-10.2207,-10.136,-9.8633,-9.8003,-9.8003,-9.8003,-9.8003,-9.8003,-9.8003,-9.8003,-9.8003,-9.8003,-9.8003,-9.8003,-9.8003,-9.8003,-9.8003,-9.8003,-9.8003,-9.8003,-9.8003,-9.8003,-9.8003,-9.8003,-9.5109,-9.3202,-9.2429,-8.9388,-8.7386,-8.6659,-8.6689,-8.6689,-8.6689,-8.6689,-8.6689,-8.6689,-8.6689,-8.6689,-9.7695,-9.7617,-9.7887,-9.9505,-9.9578,-9.975,-10.1289,-10.1481,-10.1289,-10.1289,-10.1289,-10.1289,-10.1289,-10.1289,-10.1904,-10.3599,-10.3905,0.0,0.0,0.0,0.0,0.0,0.0,0.0,0.0,0.0,0.0,0.0,0.0,0.0,0.0,-10.6982,-10.7408,-10.76,-10.7591,-10.7606,-10.7573,-10.7085,-10.6754,-10.6376,-10.6376,-10.6376,-10.6376,-10.6376,-10.6376,-10.6376,-10.6376,-10.6376,-10.6376,-10.6376,-10.6376,-10.6376,-10.6376,-10.6376,-10.6376,-10.6376,-10.6376,-10.6376,-10.6376,-10.6376,-10.6376,-10.6376,-10.6376,-10.6376,-10.6376,-10.6376,-10.6376,-10.6376,-10.6376,-10.6376,-10.6376,-10.6376,-10.575,-10.342,-10.2481,-10.161,-9.9161,-9.8337,-9.8003,-9.8003,-9.8003,-9.8003,-9.8003,-9.8003,-9.8003,-9.8003,-9.8003,-9.8003,-9.8003,-9.8003,-9.8003,-9.8003,-9.8003,-9.8003,-9.8003,-9.8003,-9.771,-9.7114,-9.4179,-9.2327,-9.2316,-8.8685,-8.6689,-8.6689,-8.6689,-8.6689,-8.6689,-8.6689,-8.6689,-8.6689,-8.6689,-8.6689,-9.7695,-9.7695,-9.8046,-9.9537,-9.9711,-9.9904,-10.1404,-10.1481,-10.1289,-10.1289,-10.1289,-10.1289,-10.1289,-10.1289,-10.1904,-10.3599,-10.3905,0.0,0.0,0.0,0.0,0.0,0.0,0.0,0.0,0.0,0.0,0.0,0.0,0.0,0.0,-10.6405,-10.679,-10.7716,-10.7591,-10.7568,-10.762,-10.761,-10.7195,-10.6376,-10.6376,-10.6376,-10.6376,-10.6376,-10.6376,-10.6376,-10.6376,-10.6376,-10.6376,-10.6376,-10.6376,-10.6376,-10.6376,-10.6376,-10.6376,-10.6376,-10.6376,-10.6376,-10.6376,-10.6376,-10.6376,-10.6376,-10.6376,-10.6376,-10.6376,-10.6376,-10.6376,-10.6376,-10.6376,-10.6376,-10.6376,-10.6376,-10.6047,-10.4578,-10.3187,-10.1823,-10.0404,-9.8958,-9.8003,-9.8003,-9.8003,-9.8003,-9.8003,-9.8003,-9.8003,-9.8003,-9.8003,-9.8003,-9.8003,-9.8003,-9.8003,-9.8003,-9.8003,-9.8003,-9.8003,-9.8003,-9.7148,-9.5273,-9.3439,-9.2413,-9.2314,-8.8685,-8.6689,-8.6689,-8.6689,-8.6689,-8.6689,-8.6689,-8.6689,-8.6689,-8.6689,-8.6689,-9.7695,-9.789,-9.8398,-9.9576,-9.9904,-10.0211,-10.1404,-10.1481,-10.1289,-10.1289,-10.1289,-10.1289,-10.1289,-10.1289,-10.1904,-10.3599,-10.3905,0.0,0.0,0.0,0.0,0.0,0.0,0.0,0.0,0.0,0.0,0.0,0.0,0.0,0.0,-10.6405,-10.679,-10.7716,-10.7098,-10.7281,-10.8496,-10.7256,-10.6901,-10.7195,-10.6754,-10.6376,-10.6376,-10.6376,-10.6376,-10.6376,-10.6376,-10.6376,-10.6376,-10.6376,-10.6376,-10.6376,-10.6376,-10.6376,-10.6376,-10.6376,-10.6376,-10.6376,-10.6376,-10.6376,-10.6376,-10.6376,-10.6376,-10.6376,-10.6376,-10.6376,-10.6376,-10.6376,-10.6376,-10.6376,-10.6376,-10.6376,-10.5997,-10.4622,-10.3214,-10.1761,-10.0332,-9.8969,-9.8003,-9.8003,-9.8003,-9.8003,-9.8003,-9.8003,-9.8003,-9.8003,-9.8003,-9.8003,-9.8003,-9.8003,-9.8003,-9.8003,-9.8003,-9.8003,-9.8003,-9.8003,-9.7148,-9.5273,-9.3475,-9.1831,-9.0374,-8.7966,-8.6689,-8.6689,-8.6689,-8.6689,-8.6689,-8.6689,-8.6689,-8.6689,-8.6689,-8.6928,-9.7695,-9.8065,-9.8627,-9.9536,-9.9981,-10.048,-10.1289,-10.1404,-10.1289,-10.1289,-10.1289,-10.1289,-10.1289,-10.1597,-10.2328,-10.3714,0.0,0.0,0.0,0.0,0.0,0.0,0.0,0.0,0.0,0.0,0.0,0.0,0.0,0.0,0.0,-10.6405,-10.6597,-10.7175,-10.6982,-10.7405,-10.8402,-10.7735,-10.7516,-10.761,-10.7085,-10.6754,-10.6376,-10.6376,-10.6376,-10.6376,-10.6376,-10.6376,-10.6376,-10.6376,-10.6376,-10.6376,-10.6376,-10.6376,-10.6376,-10.6376,-10.6376,-10.6376,-10.6376,-10.6376,-10.6376,-10.6376,-10.6376,-10.6376,-10.6376,-10.6376,-10.6376,-10.6376,-10.6376,-10.6376,-10.6376,-10.6376,-10.6243,-10.5308,-10.3561,-10.2026,-10.1088,-9.9437,-9.8003,-9.8003,-9.8003,-9.8003,-9.8003,-9.8003,-9.8003,-9.8003,-9.8003,-9.8003,-9.8003,-9.8003,-9.8003,-9.8003,-9.8003,-9.8003,-9.8003,-9.8003,-9.6911,-9.4221,-9.3064,-9.1125,-8.8534,-8.7335,-8.6689,-8.6689,-8.6689,-8.6689,-8.6689,-8.6689,-8.6808,-8.7077,-8.7077,-8.7437,-9.7656,-9.816,-9.8788,-9.9326,-9.9981,-10.0596,-10.1212,-10.1289,-10.1289,-10.1289,-10.1289,-10.1289,-10.1289,-10.1981,-10.2905,0.0,0.0,0.0,0.0,0.0,0.0,0.0,0.0,0.0,0.0,0.0,0.0,0.0,0.0,0.0,0.0,-10.6405,-10.6405,-10.6405,-10.7175,-10.76,-10.76,-10.8402,-10.8402,-10.7663,-10.763,-10.7195,-10.6486,-10.6376,-10.6376,-10.6376,-10.6376,-10.6376,-10.6376,-10.6376,-10.6376,-10.6376,-10.6376,-10.6376,-10.6376,-10.6376,-10.6376,-10.6376,-10.6376,-10.6376,-10.6376,-10.6376,-10.6376,-10.6376,-10.6376,-10.6376,-10.6376,-10.6376,-10.6376,-10.6376,-10.6376,-10.6376,-10.6376,-10.6376,-10.4216,-10.2185,-10.2166,-10.0045,-9.8003,-9.8003,-9.8003,-9.8003,-9.8003,-9.8003,-9.8003,-9.8003,-9.8003,-9.8003,-9.8003,-9.8003,-9.8003,-9.8003,-9.8003,-9.8003,-9.8003,-9.7901,-9.6193,-9.2681,-9.2234,-9.0539,-8.6907,-8.6689,-8.6689,-8.6689,-8.6689,-8.6689,-8.6718,-8.6778,-8.7137,-8.7796,-8.7796,-8.8155,-9.7461,-9.8238,-9.9096,-9.9211,-10.0211,-10.1096,-10.1289,-10.1289,-10.1289,-10.1289,-10.1289,-10.1289,-10.1289,-10.1981,0.0,0.0,0.0,0.0,0.0,0.0,0.0,0.0,0.0,0.0,0.0,0.0,0.0,0.0,0.0,0.0,0.0,-10.6405,-10.6405,-10.6405,-10.6597,-10.6982,-10.7716,-10.7783,-10.8094,0.0,-10.7889,-10.7536,-10.7268,-10.6754,-10.6376,-10.6376,-10.6376,-10.6376,-10.6376,-10.6376,-10.6376,-10.6376,-10.6376,-10.6376,-10.6376,-10.6376,-10.6376,-10.6376,-10.6376,-10.6376,-10.6376,-10.6376,-10.6376,-10.6376,-10.6376,-10.6376,-10.6376,-10.6376,-10.6376,-10.6376,-10.6376,-10.6376,-10.6376,-10.6376,-10.4216,-10.2226,-10.2212,-9.9981,-9.8003,-9.8003,-9.8003,-9.8003,-9.8003,-9.8003,-9.8003,-9.8003,-9.8003,-9.8003,-9.8003,-9.8003,-9.8003,-9.8003,-9.8003,-9.8003,-9.8003,-9.6619,-9.478,-9.2491,-9.0977,-8.9055,-8.6718,-8.6689,-8.6689,-8.6689,-8.6689,-8.6997,-8.7456,-8.7426,-8.7874,-8.8484,-8.8484,-8.8813,-9.7905,-9.863,-9.9481,-10.0096,-10.0788,-10.1289,-10.1289,-10.1289,-10.1289,-10.1289,-10.1289,-10.1289,-10.1289,0.0,0.0,0.0,0.0,0.0,0.0,0.0,0.0,0.0,0.0,0.0,0.0,0.0,0.0,0.0,0.0,0.0,0.0,-10.6405,-10.6405,-10.6405,-10.6405,-10.679,-10.7716,-10.7713,-10.8133,-10.8898,-10.8365,-10.7992,-10.761,-10.6827,-10.6376,-10.6376,-10.6376,-10.6376,-10.6376,-10.6376,-10.6376,-10.6376,-10.6376,-10.6376,-10.6376,-10.6376,-10.6376,-10.6376,-10.6376,-10.6376,-10.6376,-10.6376,-10.6376,-10.6376,-10.6376,-10.6376,-10.6376,-10.6376,-10.6376,-10.6376,-10.6376,-10.6376,-10.6376,-10.6376,-10.4216,-10.2188,-10.2174,-9.9989,-9.8003,-9.8003,-9.8003,-9.8003,-9.8003,-9.8003,-9.8003,-9.8003,-9.8003,-9.8003,-9.8003,-9.8003,-9.8003,-9.8003,-9.8003,-9.7609,-9.6687,-9.6058,-9.4507,-9.1718,-9.0771,-8.9675,-8.7764,-8.7704,-8.7456,-8.7117,-8.7456,-8.7825,-8.8194,-8.8215,-8.8561,-8.9112,-8.9142,-8.9501,-9.8245,-9.8903,-9.975,-10.0981,-10.1289,-10.1289,-10.1289,-10.1289,-10.1289,-10.1289,-10.1289,-10.1289,0.0,0.0,0.0,0.0,0.0,0.0,0.0,0.0,0.0,0.0,0.0,0.0,0.0,0.0,0.0,0.0,0.0,0.0,-10.6405,-10.6405,-10.6405,-10.6405,-10.6405,-10.6713,-10.7523,-10.76,-10.8098,-10.8902,-10.8898,-10.8423,-10.761,-10.6827,-10.6376,-10.6376,-10.6376,-10.6376,-10.6376,-10.6376,-10.6376,-10.6376,-10.6376,-10.6376,-10.6376,-10.6376,-10.6376,-10.6376,-10.6376,-10.6376,-10.6376,-10.6376,-10.6376,-10.6376,-10.6376,-10.6376,-10.6376,-10.6376,-10.6376,-10.6376,-10.6376,-10.6376,-10.6376,-10.6376,-10.4216,-10.2188,-10.2174,-9.9989,-9.8003,-9.8003,-9.8003,-9.8003,-9.8003,-9.8003,-9.8003,-9.8003,-9.8003,-9.8003,-9.8003,-9.8003,-9.8003,-9.8003,-9.8104,-9.7474,-9.5565,-9.5683,-9.4409,-9.0942,-9.0898,-9.0404,-8.8827,-8.8857,-8.8577,-8.8086,-8.8487,-8.8827,-8.8887,-8.8873,-8.9218,-8.9935,-8.9801,-9.013,-9.7523,-9.8365,-9.9558,-10.1019,-10.1289,-10.1289,-10.1289,-10.1289,-10.1289,0.0,0.0,0.0,0.0,0.0,0.0,0.0,0.0,0.0,0.0,0.0,0.0,0.0,0.0,0.0,0.0,0.0,0.0,0.0,0.0,0.0,-10.6405,-10.6405,-10.6405,-10.6405,-10.6405,-10.6521,-10.6597,-10.729,-10.8101,-10.8909,-10.8902,-10.8423,-10.761,-10.6827,-10.6376,-10.6376,-10.6376,-10.6376,-10.6376,-10.6376,-10.6376,-10.6376,-10.6376,-10.6376,-10.6376,-10.6376,-10.6376,-10.6376,-10.6376,-10.6376,-10.6376,-10.6376,-10.6376,-10.6376,-10.6376,-10.6376,-10.6376,-10.6376,-10.6376,-10.6376,-10.6376,-10.6376,-10.6376,-10.6376,-10.4216,-10.2188,-10.2174,-9.9989,-9.8003,-9.8003,-9.8003,-9.8003,-9.8003,-9.8003,-9.8003,-9.8003,-9.8003,-9.8003,-9.8003,-9.8003,-9.8003,-9.8003,-9.8566,-9.8138,-9.6193,-9.5239,-9.3808,-9.151,-8.9845,-8.8948,-8.8664,-8.9292,-8.9441,-8.9411,-8.8948,-8.8978,-8.9636,-8.959,-8.9799,-9.0489,-9.0489,-9.0549,-9.8382,-9.956,-10.0673,-10.1212,-10.1289,-10.1289,-10.1289,-10.1289,-10.1289,0.0,0.0,0.0,0.0,0.0,0.0,0.0,0.0,0.0,0.0,0.0,0.0,0.0,0.0,0.0,0.0,0.0,0.0,0.0,0.0,-10.6405,-10.6405,-10.6405,-10.6405,-10.6405,-10.6405,-10.6405,-10.6405,-10.679,-10.7598,-10.8906,-10.8859,-10.8688,-10.832,-10.7536,-10.6827,-10.6376,-10.6376,-10.6376,-10.6376,-10.6376,-10.6376,-10.6376,-10.6376,-10.6376,-10.6376,-10.6376,-10.6376,-10.6376,-10.6376,-10.6376,-10.6376,-10.6376,-10.6376,-10.6376,-10.6376,-10.6376,-10.6376,-10.6376,-10.6376,-10.6376,-10.6376,-10.6376,-10.6376,-10.6376,-10.4216,-10.2188,-10.2174,-9.9989,-9.8003,-9.8003,-9.8003,-9.8003,-9.8003,-9.8003,-9.8003,-9.8003,-9.8003,-9.8003,-9.8003,-9.8397,-9.86,-9.86,-9.9232,-9.8544,-9.5509,-9.5128,-9.378,-9.0668,-8.9978,-8.9829,-8.9829,-8.9978,-9.0233,-9.0233,-8.9888,-8.9888,-9.0233,-9.0233,-9.0323,-9.0638,-9.0638,-9.0638,-9.9609,-10.0709,-10.1481,-10.1404,-10.1404,-10.1289,0.0,0.0,0.0,0.0,0.0,0.0,0.0,0.0,0.0,0.0,0.0,0.0,0.0,0.0,0.0,0.0,0.0,0.0,0.0,0.0,0.0,0.0,0.0,-10.6405,-10.6405,-10.6405,-10.6405,-10.6405,-10.6405,-10.6405,-10.6405,-10.6597,-10.7405,-10.8594,-10.8782,-10.8811,-10.8522,-10.7922,-10.7195,-10.6376,-10.6376,-10.6376,-10.6376,-10.6376,-10.6376,-10.6376,-10.6376,-10.6376,-10.6376,-10.6376,-10.6376,-10.6376,-10.6376,-10.6376,-10.6376,-10.6376,-10.6376,-10.6376,-10.6376,-10.6376,-10.6376,-10.6376,-10.6376,-10.6376,-10.6376,-10.6376,-10.6376,-10.6376,-10.4216,-10.2007,-10.1248,-9.9492,-9.8003,-9.8003,-9.8003,-9.8003,-9.8003,-9.8003,-9.8003,-9.8003,-9.8003,-9.807,-9.8206,-9.8702,-9.9198,-9.9413,-9.9616,-9.8439,-9.5004,-9.4883,-9.3517,-9.0203,-9.0323,-9.0638,-9.0638,-9.0638,-9.0638,-9.0638,-9.0638,-9.0638,-9.0638,-9.0638,-9.0638,-9.0638,-9.0638,-9.0638,-10.0703,-10.0981,-10.1019,-10.1481,-10.1481,-10.1289,0.0,0.0,0.0,0.0,0.0,0.0,0.0,0.0,0.0,0.0,0.0,0.0,0.0,0.0,0.0,0.0,0.0,0.0,0.0,0.0,0.0,0.0,0.0,-10.6405,-10.6405,-10.6405,-10.6405,-10.6405,-10.6405,-10.6405,-10.6405,-10.7175,-10.7716,-10.7831,-10.8517,-10.8503,-10.7703,-10.7624,-10.7195,-10.6376,-10.6376,-10.6376,-10.6376,-10.6376,-10.6376,-10.6376,-10.6376,-10.6376,-10.6376,-10.6376,-10.6376,-10.6376,-10.6376,-10.6376,-10.6376,-10.6376,-10.6376,-10.6376,-10.6376,-10.6376,-10.6376,-10.6376,-10.6376,-10.6376,-10.6376,-10.6376,-10.6376,-10.6376,-10.4216,-10.1482,-9.8818,-9.807,-9.8003,-9.8003,-9.8003,-9.8003,-9.8003,-9.8003,-9.8003,-9.8003,-9.8003,-9.8206,-9.8961,-9.9063,-9.9322,-10.0063,-9.9167,-9.7709,-9.5565,-9.4385,-9.2761,-9.0698,-9.0638,-9.0638,-9.0638,-9.0638,-9.0638,-9.0638,-9.0638,-9.0638,-9.0638,-9.0638,-9.0638,-9.0638,-9.0638,-9.0638,-10.1015,-10.1409,-10.1597,-10.1712,-10.1481,-10.1289,0.0,0.0,0.0,0.0,0.0,0.0,0.0,0.0,0.0,0.0,0.0,0.0,0.0,0.0,0.0,0.0,0.0,0.0,0.0,0.0,0.0,0.0,0.0,0.0,-10.6405,-10.6405,-10.6405,-10.6405,-10.6405,-10.6405,-10.6405,-10.6713,-10.7098,-10.7716,-10.8482,-10.8402,-10.7576,-10.8216,-10.772,-10.6376,-10.6376,-10.6376,-10.6376,-10.6376,-10.6376,-10.6376,-10.6376,-10.6376,-10.6376,-10.6376,-10.6376,-10.6376,-10.6376,-10.6376,-10.6376,-10.6376,-10.6376,-10.6376,-10.6376,-10.6376,-10.6376,-10.6376,-10.6376,-10.6376,-10.6376,-10.6376,-10.5851,-10.4106,-10.2944,-10.1394,-9.8561,-9.8003,-9.8003,-9.8003,-9.8003,-9.8003,-9.8003,-9.8003,-9.8138,-9.86,-9.8668,-9.8995,-9.9661,-10.0294,-10.0717,-10.0899,-9.9901,-9.8349,-9.6374,-9.453,-9.2731,-9.0728,-9.0638,-9.0638,-9.0638,-9.0638,-9.0638,-9.0638,-9.0638,-9.0638,-9.0638,-9.0638,-9.0638,-9.0638,-9.0638,-9.0638,-10.1601,-10.1984,-10.2212,-10.1902,0.0,-10.1404,0.0,0.0,0.0,0.0,0.0,0.0,0.0,0.0,0.0,0.0,0.0,0.0,0.0,0.0,0.0,0.0,0.0,0.0,0.0,0.0,0.0,0.0,0.0,0.0,-10.6405,-10.6405,-10.6405,-10.6405,-10.6405,-10.6405,-10.6405,-10.6405,-10.6713,-10.729,-10.8101,-10.8021,-10.7192,-10.8141,-10.772,-10.6376,-10.6376,-10.6376,-10.6376,-10.6376,-10.6376,-10.6376,-10.6376,-10.6376,-10.6376,-10.6376,-10.6376,-10.6376,-10.6376,-10.6376,-10.6376,-10.6376,-10.6376,-10.6376,-10.6376,-10.6376,-10.6376,-10.6376,-10.6376,-10.6376,-10.6376,-10.6046,-10.507,-10.2803,-10.1855,-10.095,-9.8499,-9.8003,-9.8003,-9.8003,-9.8003,-9.8003,-9.8003,-9.8172,-9.8532,-9.9029,-9.9345,-9.9694,-10.0521,-10.1149,-10.15,-10.1635,-9.9867,-9.8052,-9.6665,-9.4077,-9.1977,-9.0698,-9.0638,-9.0638,-9.0638,-9.0638,-9.0638,-9.0638,-9.0638,-9.0638,-9.0638,-9.0638,-9.0638,-9.0638,-9.0638,-9.0638,0.0,0.0,0.0,-10.2199,0.0,0.0,0.0,0.0,0.0,0.0,0.0,0.0,0.0,0.0,0.0,0.0,0.0,0.0,0.0,0.0,0.0,0.0,0.0,0.0,0.0,0.0,0.0,0.0,0.0,-10.6405,-10.6405,-10.6405,-10.6405,-10.6405,-10.6405,-10.6405,-10.6405,-10.6405,-10.6405,-10.6405,-10.729,-10.721,-10.6381,-10.7248,-10.7195,-10.6376,-10.6376,-10.6376,-10.6376,-10.6376,-10.6376,-10.6376,-10.6376,-10.6376,-10.6376,-10.6376,-10.6376,-10.6376,-10.6376,-10.6376,-10.6376,-10.6376,-10.6376,-10.6376,-10.6376,-10.6376,-10.6376,-10.6376,-10.6376,-10.6376,-10.6376,-10.5411,-10.3875,-10.2524,-10.1047,-9.9661,-9.8363,-9.8003,-9.8003,-9.8003,-9.8003,-9.8003,-9.8003,-9.86,-9.9097,-9.913,-9.9746,-10.0501,-10.1365,-10.1433,-10.1635,-10.2434,-9.8971,-9.6516,-9.6603,-9.2852,-9.0638,-9.0638,-9.0638,-9.0638,-9.0638,-9.0638,-9.0638,-9.0638,-9.0638,-9.0638,-9.0638,-9.0638,-9.0638,-9.0638,-9.0638,-9.0638,-10.2695,0.0,0.0,0.0,0.0,0.0,0.0,0.0,0.0,0.0,0.0,0.0,0.0,0.0,0.0,0.0,0.0,0.0,0.0,0.0,0.0,0.0,0.0,0.0,0.0,0.0,0.0,0.0,-10.6405,-10.6405,-10.6405,-10.6405,-10.6405,-10.6405,-10.6405,-10.6405,-10.6405,-10.6405,-10.6405,-10.6405,-10.729,-10.7213,-10.6395,-10.7173,-10.7195,-10.6376,-10.6376,-10.6376,-10.6376,-10.6376,-10.6376,-10.6376,-10.6376,-10.6376,-10.6376,-10.6376,-10.6376,-10.6376,-10.6376,-10.6376,-10.6376,-10.6376,-10.6376,-10.6376,-10.6376,-10.6376,-10.6376,-10.6376,-10.6376,-10.6376,-10.6376,-10.5411,-10.3872,-10.2452,-10.1145,-9.9661,-9.8363,-9.8003,-9.8003,-9.8003,-9.8003,-9.8003,-9.8003,-9.86,-9.9278,-9.9847,-10.0562,-10.1365,-10.2069,-10.217,-10.2367,-10.2502,-9.8971,-9.6516,-9.6603,-9.2852,-9.0638,-9.0638,-9.0638,-9.0638,-9.0638,-9.0638,-9.0638,-9.0638,-9.0638,-9.0638,-9.0638,-9.0638,-9.0638,-9.0638,-9.0638,-9.0638,-10.2812,-10.2812,-10.2617,-10.25,0.0,0.0,-10.1712,-10.1481,0.0,0.0,0.0,0.0,0.0,0.0,0.0,0.0,0.0,0.0,0.0,0.0,0.0,0.0,0.0,0.0,0.0,0.0,0.0,-10.6405,-10.6405,-10.6405,-10.6405,-10.6405,-10.6405,-10.6405,-10.6405,-10.6405,-10.6405,-10.6405,-10.6405,-10.6405,-10.6905,-10.6905,-10.6399,-10.6874,-10.6827,-10.6376,-10.6376,-10.6376,-10.6376,-10.6376,-10.6376,-10.6376,-10.6376,-10.6376,-10.6376,-10.6376,-10.6376,-10.6376,-10.6376,-10.6376,-10.6376,-10.6376,-10.6376,-10.6376,-10.6376,-10.6376,-10.6376,-10.6376,-10.6376,-10.6376,-10.6376,-10.4887,-10.3221,-10.2361,-10.0657,-9.8995,-9.8138,-9.8003,-9.8003,-9.8003,-9.8003,-9.807,-9.8431,-9.9063,-9.9877,-10.0596,-10.1433,-10.2001,-10.2434,-10.2502,-10.217,-10.1365,-9.8474,-9.6288,-9.5373,-9.2384,-9.0638,-9.0638,-9.0638,-9.0638,-9.0638,-9.0638,-9.0638,-9.0638,-9.0638,-9.0638,-9.0638,-9.0638,-9.0638,-9.0638,-9.0638,-9.0638,-10.289,-10.289,-10.2812,-10.2617,-10.2285,0.0,-10.1784,-10.1481,-10.1289,0.0,0.0,0.0,0.0,0.0,0.0,0.0,0.0,0.0,0.0,0.0,0.0,0.0,0.0,0.0,0.0,-10.6405,-10.6405,-10.6405,-10.6405,-10.6405,-10.6405,-10.6405,-10.6405,-10.6405,-10.6405,-10.6405,-10.6405,-10.6405,-10.6405,-10.6405,-10.6405,-10.6405,-10.6399,-10.643,-10.635,-10.6376,-10.6376,-10.6376,-10.6376,-10.6376,-10.6376,-10.6376,-10.6376,-10.6376,-10.6376,-10.6376,-10.6376,-10.6376,-10.6376,-10.6376,-10.6376,-10.6376,-10.6376,-10.6376,-10.6376,-10.6376,-10.6376,-10.6376,-10.6376,-10.6376,-10.6376,-10.4289,-10.2171,-10.2188,-10.0023,-9.8003,-9.8003,-9.8003,-9.8003,-9.8003,-9.807,-9.8363,-9.8995,-9.9797,-10.0555,-10.1264,-10.2001,-10.2502,-10.2502,-10.2502,-10.1635,-9.9671,-9.7822,-9.5768,-9.3769,-9.1826,-9.0638,-9.0638,-9.0638,-9.0638,-9.0638,-9.0638,-9.0638,-9.0638,-9.0638,-9.0638,-9.0638,-9.0638,-9.0638,-9.0638,-9.0638,-9.0638,-10.289,-10.289,-10.289,-10.2812,-10.2519,0.0,-10.1977,-10.1597,-10.1289,0.0,0.0,0.0,0.0,0.0,0.0,0.0,0.0,0.0,0.0,0.0,0.0,0.0,0.0,0.0,0.0,-10.6405,-10.6405,-10.6405,-10.6405,-10.6405,-10.6405,-10.6405,-10.6405,-10.6405,-10.6405,-10.6405,-10.6405,-10.6405,-10.6405,-10.6405,-10.6405,-10.6405,-10.6364,-10.6422,-10.6403,-10.6376,-10.6376,-10.6376,-10.6376,-10.6376,-10.6376,-10.6376,-10.6376,-10.6376,-10.6376,-10.6376,-10.6376,-10.6376,-10.6376,-10.6376,-10.6376,-10.6376,-10.6376,-10.6376,-10.6376,-10.6376,-10.6376,-10.6376,-10.6376,-10.6376,-10.6376,-10.4289,-10.2171,-10.2188,-10.0023,-9.8003,-9.8003,-9.8003,-9.8003,-9.8003,-9.8499,-9.8961,-9.9063,-10.0168,-10.1224,-10.1399,-10.2001,-10.2502,-10.2502,-10.2502,-10.1635,-9.9671,-9.7686,-9.5723,-9.3773,-9.1826,-9.0638,-9.0638,-9.0638,-9.0638,-9.0638,-9.0638,-9.0638,-9.0638,-9.0638,-9.0638,-9.0638,-9.0638,-9.0638,-9.0638,-9.0638,-9.0638,-10.289,-10.289,-10.289,-10.289,-10.2593,0.0,0.0,-10.1789,-10.1481,0.0,0.0,0.0,0.0,0.0,0.0,0.0,0.0,0.0,0.0,0.0,0.0,0.0,0.0,0.0,0.0,-10.6405,-10.6405,-10.6405,-10.6405,-10.6405,-10.6405,-10.6405,-10.6405,-10.6405,-10.6405,-10.6405,-10.6405,-10.6405,-10.6405,-10.6405,-10.6405,-10.6405,-10.6405,-10.679,-10.6771,-10.6376,-10.6827,-10.6827,-10.6376,-10.6376,-10.6376,-10.6376,-10.6376,-10.6376,-10.6376,-10.6376,-10.6376,-10.6376,-10.6376,-10.6376,-10.6376,-10.6376,-10.6376,-10.6376,-10.6376,-10.6376,-10.6376,-10.6376,-10.6376,-10.6229,-10.5521,-10.3765,-10.199,-10.1263,-9.9525,-9.8003,-9.8003,-9.8003,-9.8104,-9.8499,-9.9097,-9.9605,-9.9602,-10.0589,-10.15,-10.1933,-10.2367,-10.2502,-10.2502,-10.2502,-10.1433,-9.8407,-9.7185,-9.5336,-9.2354,-9.1134,-9.0638,-9.0638,-9.0638,-9.0638,-9.0638,-9.0638,-9.0638,-9.0638,-9.0638,-9.0638,-9.0638,-9.0638,-9.0638,-9.0638,-9.0638,-9.0638,-10.289,-10.289,-10.289,-10.289,-10.2695,-10.238,0.0,0.0,0.0,0.0,0.0,0.0,0.0,0.0,0.0,0.0,0.0,0.0,0.0,0.0,0.0,0.0,0.0,0.0,0.0,-10.6405,-10.6405,-10.6405,-10.6405,-10.6405,-10.6405,-10.6405,-10.6405,-10.6405,-10.6405,-10.6405,-10.6405,-10.6405,-10.6405,-10.6405,-10.6405,-10.6405,-10.6405,-10.7098,-10.699,-10.6433,-10.7087,-10.7011,-10.6376,-10.6376,-10.6376,-10.6376,-10.6376,-10.6376,-10.6376,-10.6376,-10.6376,-10.6376,-10.6376,-10.6376,-10.6376,-10.6376,-10.6376,-10.6376,-10.6376,-10.6376,-10.6376,-10.6376,-10.6376,-10.6119,-10.474,-10.3306,-10.1818,-10.0427,-9.9029,-9.8003,-9.8003,-9.8003,-9.8172,-9.8961,-9.9639,-10.0192,-10.0461,-10.1068,-10.1866,-10.2434,-10.2502,-10.2502,-10.2502,-10.217,-10.0568,-9.7017,-9.6279,-9.4486,-9.0984,-9.0638,-9.0638,-9.0638,-9.0638,-9.0638,-9.0638,-9.0638,-9.0638,-9.0638,-9.0638,-9.0638,-9.0638,-9.0638,-9.0638,-9.0638,-9.0638,-9.0638,-10.289,-10.289,-10.289,-10.289,-10.2695,-10.2406,-10.2187,0.0,-10.2789,-10.252,0.0,0.0,0.0,0.0,0.0,0.0,0.0,0.0,0.0,0.0,0.0,0.0,0.0,0.0,0.0,0.0,-10.6405,-10.6405,-10.6405,-10.6405,-10.6405,-10.6405,-10.6405,-10.6405,-10.6405,-10.6405,-10.6405,-10.6405,-10.6405,-10.6405,-10.6405,-10.6405,-10.6405,-10.6521,-10.6501,-10.6422,-10.6474,-10.6486,-10.6376,-10.6376,-10.6376,-10.6376,-10.6376,-10.6376,-10.6376,-10.6376,-10.6376,-10.6376,-10.6376,-10.6376,-10.6376,-10.6376,-10.6376,-10.6376,-10.6376,-10.6376,-10.6376,-10.6376,-10.6376,-10.6119,-10.474,-10.3321,-10.1767,-10.0439,-9.9029,-9.8003,-9.8003,-9.8003,-9.8172,-9.8961,-9.9704,-10.0461,-10.1068,-10.1933,-10.2434,-10.2502,-10.2502,-10.2502,-10.2502,-10.0933,-9.9005,-9.6754,-9.5003,-9.3078,-9.0758,-9.0638,-9.0638,-9.0638,-9.0638,-9.0638,-9.0638,-9.0638,-9.0638,-9.0638,-9.0638,-9.0638,-9.0638,-9.0638,-9.0638,-9.0638,-9.0638,-9.0638,-10.289,-10.289,-10.289,-10.289,-10.3203,-10.3386,-10.298,-10.3413,-10.3905,-10.3405,0.0,0.0,0.0,0.0,0.0,0.0,-10.6215,0.0,0.0,0.0,0.0,0.0,0.0,0.0,0.0,0.0,0.0,0.0,0.0,-10.6405,-10.6405,-10.6405,-10.6405,-10.6405,-10.6405,-10.6405,-10.6405,-10.6405,-10.6405,-10.6405,-10.6405,-10.6405,-10.6405,-10.6905,-10.6905,-10.6386,-10.6915,-10.6827,-10.6376,-10.6376,-10.6376,-10.6376,-10.6376,-10.6376,-10.6376,-10.6376,-10.6376,-10.6376,-10.6376,-10.6376,-10.6376,-10.6376,-10.6376,-10.6376,-10.6376,-10.6376,-10.6376,-10.6376,-10.6376,-10.5851,-10.3692,-10.2594,-10.1585,-9.9424,-9.8465,-9.8003,-9.8003,-9.8397,-9.8893,-9.9593,-10.0405,-10.1068,-10.1933,-10.2367,-10.2502,-10.2502,-10.2502,-10.2502,-10.2502,-10.0635,-9.8751,-9.6753,-9.4728,-9.2761,-9.0728,-9.0638,-9.0638,-9.0638,-9.0638,-9.0638,-9.0638,-9.0638,-9.0638,-9.0638,-9.0638,-9.0638,-9.0638,-9.0638,-9.0638,-9.0638,-9.0638,-9.0638,-10.289,-10.3086,-10.3281,-10.3281,-10.3906,-10.4408,-10.4025,-10.4489,-10.4905,-10.4405,-10.4905,0.0,0.0,0.0,-10.6328,-10.6097,0.0,-10.6294,0.0,0.0,0.0,0.0,0.0,0.0,0.0,0.0,0.0,0.0,-10.6405,-10.6405,-10.6405,-10.6405,-10.6405,-10.6405,-10.6405,-10.6405,-10.6405,-10.6405,-10.6405,-10.6405,-10.6405,-10.6405,-10.6405,-10.7098,-10.6982,-10.6395,-10.6989,-10.6901,-10.6376,-10.6376,-10.6376,-10.6376,-10.6376,-10.6376,-10.6376,-10.6376,-10.6376,-10.6376,-10.6376,-10.6376,-10.6376,-10.6376,-10.6376,-10.6376,-10.6376,-10.6376,-10.6376,-10.6376,-10.6376,-10.5778,-10.2876,-10.2172,-10.1517,-9.8634,-9.8003,-9.8003,-9.8003,-9.8566,-9.93,-10.0114,-10.0844,-10.1568,-10.2434,-10.2502,-10.2502,-10.2502,-10.2502,-10.2502,-10.2502,-10.0366,-9.8191,-9.6736,-9.4334,-9.2233,-9.0698,-9.0638,-9.0638,-9.0638,-9.0638,-9.0638,-9.0638,-9.0638,-9.0638,-9.0638,-9.0638,-9.0638,-9.0638,-9.0638,-9.0638,-9.0638,-9.0638,-9.0638,-10.289,-10.3515,-10.4219,-10.4219,-10.4804,-10.539,-10.5117,-10.551,-10.5828,-10.5482,-10.5905,-10.6405,-10.6405,-10.6405,-10.6097,-10.5287,-10.5787,0.0,0.0,0.0,0.0,0.0,0.0,0.0,0.0,0.0,0.0,-10.6405,-10.6405,-10.6405,-10.6405,-10.6405,-10.6405,-10.6405,-10.6405,-10.6405,-10.6405,-10.6405,-10.6405,-10.6405,-10.6405,-10.6405,-10.6405,-10.6405,-10.6405,-10.6395,-10.6429,-10.6376,-10.6376,-10.6376,-10.6376,-10.6376,-10.6376,-10.6376,-10.6376,-10.6376,-10.6376,-10.6376,-10.6376,-10.6376,-10.6376,-10.6376,-10.6376,-10.6376,-10.6376,-10.6376,-10.6376,-10.6376,-10.6376,-10.5778,-10.2876,-10.2172,-10.1517,-9.8634,-9.8003,-9.8003,-9.8003,-9.8566,-9.9345,-10.0158,-10.0832,-10.1568,-10.2434,-10.2502,-10.2502,-10.2502,-10.2502,-10.2502,-10.2502,-9.9072,-9.6589,-9.6643,-9.3078,-9.0668,-9.0638,-9.0638,-9.0638,-9.0638,-9.0638,-9.0638,-9.0638,-9.0638,-9.0638,-9.0638,-9.0638,-9.0638,-9.0638,-9.0638,-9.0638,-9.0638,-9.0638,-9.0638,0.0,0.0,-10.4297,-10.4883,0.0,-10.6211,-10.6015,-10.6286,-10.6688,-10.6411,-10.6405,-10.6405,-10.6405,-10.6405,-10.6328,-10.602,-10.6213,-10.6328,0.0,0.0,0.0,0.0,0.0,0.0,0.0,0.0,0.0,-10.6405,-10.6405,-10.6405,0.0,-10.6405,-10.6405,-10.6405,-10.6405,-10.6405,-10.6405,-10.6405,-10.6405,-10.6405,-10.6405,-10.6405,-10.6405,-10.6405,-10.6713,-10.7202,-10.6616,-10.6754,-10.7195,-10.6559,-10.6376,-10.6376,-10.6376,-10.6376,-10.6376,-10.6376,-10.6376,-10.6376,-10.6376,-10.6376,-10.6376,-10.6376,-10.6376,-10.6376,-10.6376,-10.6376,-10.6376,-10.6376,-10.5704,-10.463,-10.273,-10.1502,-10.035,-9.8465,-9.8003,-9.8003,-9.8003,-9.8961,-9.991,-10.0259,-10.1135,-10.217,-10.2502,-10.2502,-10.2502,-10.2502,-10.2502,-10.2502,-10.2502,-9.9038,-9.6557,-9.6643,-9.3048,-9.0638,-9.0638,-9.0638,-9.0638,-9.0638,-9.0638,-9.0638,-9.0638,-9.0638,-9.0638,-9.0638,-9.0638,-9.0638,-9.0638,-9.0638,-9.0638,-9.0638,-9.0638,-9.0638,-10.3984,-10.4609,0.0,-10.5781,-10.6484,0.0,-10.6914,-10.7105,-10.7285,-10.7102,-10.679,-10.6597,-10.6713,-10.6521,-10.6405,-10.6521,-10.6521,-10.6405,0.0,-10.6405,0.0,0.0,0.0,0.0,0.0,0.0,-10.6405,-10.6405,-10.6405,-10.6405,0.0,0.0,-10.6405,-10.6405,-10.6405,-10.6405,-10.6405,-10.6405,-10.6405,-10.6405,-10.6405,-10.6405,-10.6405,-10.6405,-10.6713,-10.7091,-10.6601,-10.6735,-10.7085,-10.6559,-10.6376,-10.6376,-10.6376,-10.6376,-10.6376,-10.6376,-10.6376,-10.6376,-10.6376,-10.6376,-10.6376,-10.6376,-10.6376,-10.6376,-10.6376,-10.6376,-10.6486,-10.7085,-10.5778,-10.4093,-10.3341,-10.1548,-9.9695,-9.8363,-9.8003,-9.807,-9.8363,-9.939,-10.034,-10.0562,-10.1568,-10.2502,-10.2502,-10.2502,-10.2502,-10.2502,-10.2502,-10.217,-10.15,-9.8574,-9.6361,-9.5537,-9.264,-9.0638,-9.0638,-9.0638,-9.0638,-9.0638,-9.0638,-9.0638,-9.0638,-9.0638,-9.0698,-9.1014,-9.0698,-9.0698,-9.1014,-9.0698,-9.0638,-9.0638,-9.0638,-9.0638]}]]